GEFSSGP_500_meanwind_072.txt.gz
Wind_Speed
11 13 15 16 15 13 10 12 13 11 8 10 13 13 14 15 15 15 13 12 10 13 13 13 13 14 15 15 15 14 14 13 13 13 13 12 11 11 10 9 8 8 7 7 6 6 5 5 6
14 14 17 18 18 15 13 17 16 12 12 15 16 15 16 16 14 15 14 13 12 14 14 15 15 16 17 17 17 16 16 15 14 14 13 12 12 11 10 9 8 7 7 6 5 5 5 5 5
18 18 19 20 19 17 18 20 18 11 10 15 18 17 18 17 15 15 16 16 14 15 16 17 17 17 18 18 18 17 16 15 15 14 14 13 12 11 10 9 8 7 6 5 5 4 4 4 5
23 22 21 20 18 17 19 23 18 11 10 13 17 17 20 17 16 15 15 15 14 16 17 17 17 18 18 19 19 18 17 16 15 14 13 12 11 10 9 8 8 7 6 5 4 4 4 4 5
28 26 24 20 17 18 19 24 19 12 9 11 16 19 20 16 15 15 15 15 15 15 16 16 17 18 18 18 18 18 16 15 14 13 13 12 11 10 9 9 8 7 6 5 4 4 4 4 5
31 30 27 22 19 18 21 24 19 13 10 11 15 20 23 18 14 13 14 14 14 14 14 15 16 17 17 18 17 17 16 15 14 13 12 12 11 10 10 9 8 7 6 5 5 5 5 5 5
33 33 30 25 22 21 22 27 23 18 15 18 19 21 24 19 13 12 13 13 13 13 13 13 15 16 16 16 16 16 15 14 13 12 12 12 11 10 9 9 8 7 7 6 6 5 5 5 6
34 35 34 30 25 22 23 28 26 25 20 24 24 24 27 18 10 12 13 14 12 12 12 12 13 15 15 15 15 15 14 14 13 12 12 11 10 10 9 9 8 8 8 7 7 6 6 6 7
35 37 35 31 28 23 23 28 27 26 23 24 26 29 31 19 10 12 14 13 12 11 11 12 12 13 15 15 15 15 14 14 13 12 12 11 11 10 10 10 9 9 9 9 8 8 8 8 8
35 38 35 33 29 25 23 26 26 22 23 23 25 31 30 21 15 14 14 14 12 11 11 11 12 13 14 14 15 14 14 13 13 12 12 11 11 11 11 11 10 10 10 10 10 10 10 11 11
33 35 35 35 32 30 28 27 25 25 23 21 22 28 26 19 17 17 17 15 13 12 12 11 12 13 13 14 14 14 14 13 13 12 12 12 12 12 12 12 12 12 11 12 12 13 13 14 14
31 33 35 37 36 35 36 34 29 25 23 23 26 30 26 19 17 19 19 17 15 14 13 12 13 13 13 13 13 13 13 13 13 13 12 12 13 13 13 13 13 13 14 14 15 16 17 18 18
30 32 35 38 40 40 39 36 31 27 25 26 29 30 27 21 19 21 21 19 17 15 14 14 13 13 13 13 13 13 13 14 13 13 13 13 13 13 13 14 15 16 16 17 19 20 20 21 22
28 30 33 37 39 40 40 36 34 31 28 28 30 29 26 23 23 24 24 22 18 16 15 15 14 14 14 14 14 14 14 14 14 14 14 15 15 15 15 16 17 18 19 21 22 23 24 25 26
28 30 31 34 35 36 37 36 33 32 32 30 29 31 28 28 29 28 27 22 18 16 15 15 15 15 15 15 15 16 16 15 16 16 16 17 17 17 18 19 20 21 23 24 25 26 27 28 29
25 27 27 26 29 31 34 33 31 31 31 30 29 30 30 31 32 29 28 23 19 17 16 16 15 15 16 16 17 18 18 18 18 19 19 19 20 20 21 22 23 24 25 26 27 28 30 31 33
19 19 19 17 21 25 29 28 25 26 29 29 30 30 29 31 32 29 27 25 20 19 17 18 17 17 17 18 18 19 20 20 21 21 21 22 23 24 25 25 25 27 28 29 31 32 33 35 36
9 11 12 13 18 22 24 24 23 25 28 30 31 31 32 32 33 31 28 24 21 21 20 20 20 19 19 19 20 21 22 23 23 23 24 25 27 28 29 29 29 30 31 32 33 34 35 35 35
13 13 14 15 19 21 21 24 26 28 30 30 30 31 32 32 32 30 28 27 24 23 21 21 21 21 22 22 23 24 25 26 27 27 27 27 28 30 32 32 33 33 34 35 35 35 34 34 33
17 16 17 18 20 21 22 26 29 30 30 30 30 32 30 30 30 28 27 26 25 24 24 23 23 24 25 25 26 27 27 28 29 29 29 30 31 32 33 33 34 36 37 36 35 33 31 30 31
20 18 17 17 19 21 23 27 29 30 32 31 31 32 30 28 26 26 25 25 25 26 26 25 25 25 27 28 29 30 30 29 30 31 32 33 33 33 33 34 36 37 37 34 33 30 30 30 29
18 19 17 17 18 20 23 25 27 28 31 31 30 30 28 25 25 24 25 26 27 27 27 27 27 27 28 30 30 31 32 33 33 33 33 33 33 34 35 36 36 34 33 32 31 31 32 32 32
15 17 18 18 18 17 19 22 23 25 28 29 28 28 28 27 26 25 25 26 27 28 28 28 27 28 29 31 32 33 35 36 36 36 35 35 34 34 36 37 35 33 33 32 32 33 33 35 36
16 16 18 17 17 20 21 23 24 26 27 26 25 26 26 26 25 25 25 26 28 28 29 30 29 30 32 34 35 36 38 39 39 40 38 37 37 37 37 37 36 35 35 35 35 36 37 38 39
17 16 14 15 18 19 18 22 27 25 25 24 23 23 24 24 24 25 25 26 27 28 29 30 31 33 34 37 38 39 40 41 42 42 41 40 39 39 39 39 38 38 37 38 39 40 41 41 41
17 19 17 15 16 18 20 28 29 26 23 20 20 22 22 23 23 24 24 25 27 28 29 30 32 34 35 37 39 40 40 41 42 42 42 41 41 41 41 41 41 41 41 42 42 42 43 43 44
14 18 16 17 18 19 23 29 30 26 26 23 21 22 22 22 23 23 24 26 27 28 29 30 32 33 35 37 38 39 40 41 42 42 42 42 43 43 44 44 44 43 43 44 44 45 45 46 46
13 14 16 16 16 18 22 25 26 26 24 25 24 23 23 24 24 25 26 27 28 29 30 31 32 34 36 37 39 40 41 42 43 43 44 44 45 45 45 44 45 46 46 47 46 46 47 48 48
15 15 16 14 14 16 18 21 24 24 23 22 23 24 25 26 27 27 28 30 31 32 33 34 35 36 37 38 40 41 42 43 43 44 45 46 45 46 46 46 47 48 48 48 48 48 48 49 50
13 14 15 18 17 16 19 19 18 18 19 20 20 22 24 25 27 28 29 31 32 33 35 36 37 38 39 40 41 41 42 43 44 44 45 45 45 46 47 47 48 48 49 49 49 50 49 50 51

GEFSSGP_500_meanwind_078.txt.gz
Wind_Speed
18 17 17 18 18 17 17 19 19 15 11 11 11 12 11 10 8 8 9 7 7 7 7 8 9 11 12 12 13 13 13 13 13 12 12 12 12 12 13 13 13 13 12 11 10 9 7 6 6
22 21 21 20 19 17 19 22 21 17 13 12 11 12 11 9 7 7 10 9 8 8 9 10 11 12 13 14 15 15 15 15 15 14 14 13 13 13 14 14 13 12 12 11 9 8 7 6 5
26 25 24 22 19 17 20 23 23 19 15 14 14 14 12 8 5 8 9 9 9 10 10 12 13 13 14 15 16 16 17 17 16 16 15 14 14 14 14 14 13 12 11 10 9 8 7 6 5
29 29 27 24 18 18 22 25 25 20 17 16 17 16 10 8 5 8 9 10 10 10 10 12 13 14 15 16 16 17 18 18 17 17 16 15 15 14 14 13 12 11 10 9 8 7 6 6 6
31 31 30 26 20 20 22 26 27 22 17 17 19 18 12 8 6 8 10 11 10 11 12 11 13 14 15 17 17 17 17 18 18 17 16 15 14 14 13 12 12 11 9 9 8 7 6 6 6
31 33 32 28 23 23 24 26 27 24 18 18 20 19 13 9 7 9 12 13 11 11 12 12 12 14 15 16 16 17 17 17 17 17 16 15 14 13 12 12 11 10 9 8 8 7 6 6 6
31 33 33 30 27 26 26 28 28 25 21 21 23 19 16 11 9 11 13 13 12 11 11 11 12 13 14 15 15 16 16 17 17 17 16 15 14 13 12 11 10 9 8 8 7 7 6 6 6
32 33 33 31 30 27 28 31 29 26 24 24 25 22 19 14 12 12 14 13 13 12 11 11 11 12 13 14 15 15 16 16 16 16 16 15 14 13 12 10 9 9 8 8 7 7 7 7 7
31 32 31 30 31 30 31 33 31 29 27 25 24 23 20 16 14 13 13 14 14 13 12 12 12 12 13 13 14 15 16 16 16 16 15 14 14 13 11 10 9 9 8 8 7 7 8 8 8
29 30 28 30 33 34 35 35 33 31 29 26 25 24 21 18 16 15 15 16 16 14 13 13 13 13 13 13 13 14 16 16 16 15 15 14 13 12 11 10 9 9 9 8 8 8 9 9 10
28 28 28 31 34 36 37 36 35 34 31 29 26 23 21 19 17 17 17 19 19 17 15 13 13 13 13 13 13 14 15 15 15 15 14 14 13 12 11 10 10 10 9 9 9 9 10 11 12
27 27 29 31 34 36 37 38 38 36 32 30 27 23 22 19 18 19 18 21 21 20 17 14 13 13 13 13 14 14 15 15 14 14 13 13 13 12 12 11 11 11 10 10 10 10 12 13 14
27 27 29 31 34 36 38 40 39 38 35 32 28 25 23 19 19 20 20 21 22 20 18 15 14 14 14 14 15 15 15 14 14 14 14 14 13 13 13 13 13 13 12 12 12 13 14 15 16
27 28 29 31 33 36 39 40 41 38 36 35 32 28 26 23 22 22 23 25 23 23 21 18 17 17 16 16 16 16 15 15 14 14 14 15 15 15 15 14 14 14 14 14 14 15 16 18 18
27 28 28 28 31 34 37 40 41 37 36 36 35 32 30 27 25 24 22 22 23 22 21 21 19 19 19 18 17 16 15 15 15 15 15 16 16 16 15 15 16 16 16 17 17 18 19 21 21
25 25 24 23 27 29 35 38 36 36 37 37 36 35 32 30 28 26 24 23 23 22 20 21 21 20 20 19 18 17 17 17 16 16 17 17 17 17 17 17 17 18 19 20 21 21 22 22 23
21 21 20 20 22 24 31 33 33 36 38 39 38 37 35 32 31 28 27 27 27 23 22 22 20 21 20 19 19 18 17 17 17 17 18 19 19 18 18 19 20 20 21 22 24 23 23 24 25
15 17 17 17 17 20 24 26 29 34 37 38 39 38 37 33 31 29 29 28 27 27 25 24 23 21 20 19 19 18 18 18 19 19 19 19 18 19 20 21 22 23 23 24 25 25 25 26 26
15 16 16 16 16 19 22 22 25 30 33 35 36 38 36 34 32 32 31 30 28 27 27 25 23 22 21 21 21 20 20 20 19 19 20 19 20 22 22 23 23 23 24 24 25 25 26 27 28
17 17 16 17 17 18 19 21 23 26 28 30 32 34 34 33 31 31 32 30 31 29 27 23 24 25 23 21 21 21 21 21 21 21 21 21 23 24 24 24 24 24 24 24 24 25 26 27 27
18 17 16 15 16 16 17 20 21 22 25 27 28 29 30 30 30 30 31 29 28 26 27 25 24 24 24 23 22 22 22 22 22 22 23 23 23 24 25 26 26 26 25 25 25 25 25 25 26
16 17 17 16 17 18 18 19 21 21 23 25 26 27 28 29 29 29 30 30 29 27 25 23 22 23 23 23 23 23 23 23 23 23 24 25 26 25 26 27 27 26 26 26 26 26 25 26 27
16 17 17 16 18 20 20 20 21 22 23 24 25 26 28 29 29 29 29 29 29 27 24 23 22 23 22 22 22 23 23 24 24 25 26 27 28 27 28 28 28 29 27 26 25 24 25 26 28
15 17 17 16 17 20 20 22 21 22 24 25 26 26 27 28 28 28 29 29 29 29 26 23 23 24 24 24 24 25 24 26 27 28 29 30 30 30 30 29 29 30 30 29 28 28 29 29 32
15 17 17 16 18 18 18 22 23 22 24 25 24 25 26 28 28 29 29 28 28 27 26 24 24 24 25 25 26 27 27 28 29 29 30 30 30 31 31 32 32 32 31 32 32 33 33 34 36
16 16 16 14 15 17 18 21 22 23 24 24 23 23 24 25 26 27 27 26 24 24 25 25 25 25 25 26 27 28 28 29 30 30 31 32 32 32 32 33 34 34 35 35 36 36 37 38 39
16 16 15 14 15 16 18 19 21 21 21 22 22 22 23 23 24 24 24 25 24 24 25 26 26 26 26 26 27 28 29 30 31 32 32 33 34 35 35 35 36 36 37 38 39 39 40 41 42
15 16 16 16 15 15 17 18 19 20 21 22 21 21 22 22 23 23 24 24 24 24 25 25 26 27 28 29 29 30 30 31 32 33 35 36 37 37 38 38 39 39 40 41 42 42 43 44 44
14 15 15 15 14 16 16 17 17 18 18 18 19 21 21 20 21 23 25 26 26 26 26 26 28 28 29 30 31 32 33 34 34 35 37 37 38 39 40 40 41 42 42 43 43 43 44 45 46
14 14 14 14 15 16 16 17 16 15 16 16 16 15 16 19 21 22 24 25 26 27 27 28 29 30 31 32 32 33 35 36 36 37 38 38 39 40 40 41 42 42 43 43 43 43 44 44 45

GEFSSGP_500_meanwind_084.txt.gz
Wind_Speed
22 20 20 19 18 17 16 18 20 21 21 20 18 16 15 14 12 8 6 7 7 7 6 6 7 8 8 8 8 7 7 7 7 8 8 8 9 9 9 10 10 10 11 11 11 10 9 8 8
25 23 23 22 20 17 16 19 21 22 22 20 18 17 16 15 13 10 9 8 8 7 8 8 9 9 9 9 9 9 9 9 9 9 9 10 10 11 11 11 11 11 10 10 9 9 8 7 6
26 26 26 24 21 17 17 20 22 23 23 21 19 18 16 15 15 11 10 9 8 8 8 9 10 11 11 10 11 11 11 11 11 11 11 12 12 12 12 11 11 10 10 9 8 7 7 6 5
27 28 28 26 22 19 20 22 23 24 24 23 21 19 17 16 15 12 11 11 10 9 8 9 10 11 12 12 12 12 12 13 13 13 13 13 13 13 12 12 11 10 9 8 7 6 6 6 5
28 29 30 27 23 22 23 24 26 26 26 24 22 21 18 17 14 12 12 13 12 10 9 10 10 12 12 13 13 14 14 14 14 14 14 15 14 13 13 12 11 10 9 8 7 6 6 5 5
29 30 30 28 25 25 26 27 29 28 28 27 24 21 19 17 14 14 13 12 11 11 11 11 11 12 12 13 14 15 15 15 15 15 15 15 15 14 13 12 12 11 10 9 8 7 6 5 5
28 29 29 28 27 27 28 30 31 31 30 29 26 22 20 19 16 13 13 12 11 11 11 11 12 12 12 13 14 15 15 15 15 15 15 15 15 14 13 13 12 11 10 9 8 8 7 6 6
26 27 27 27 27 27 30 33 34 34 32 30 27 23 22 20 18 16 15 14 13 13 12 11 11 12 12 12 13 14 15 15 16 16 16 15 15 14 14 13 13 12 11 10 9 8 8 7 7
25 26 24 25 27 29 32 35 36 37 35 33 29 24 22 21 18 17 17 16 14 14 14 12 11 12 12 13 14 15 15 15 16 16 16 15 15 15 14 14 13 13 12 11 10 9 9 8 8
25 25 24 26 27 29 33 35 37 38 36 34 31 26 24 21 19 17 15 14 15 15 13 12 11 12 13 14 15 15 16 16 16 17 17 16 16 16 15 15 14 14 13 13 12 11 11 10 10
24 24 25 26 27 29 31 35 38 39 38 36 33 29 26 22 20 18 15 15 15 15 14 13 12 13 14 15 16 17 17 17 17 18 18 17 17 17 17 16 16 15 15 14 14 13 13 13 12
24 23 24 25 27 27 30 34 36 38 38 37 35 32 27 23 20 18 16 16 15 15 16 15 14 14 15 17 17 18 18 19 18 19 19 18 18 19 18 18 18 17 16 16 16 16 15 15 14
24 24 24 24 25 27 28 32 35 36 37 38 36 33 28 25 20 18 17 16 16 15 15 16 16 16 17 18 18 18 19 19 19 19 19 20 20 20 20 19 19 18 17 17 17 17 17 17 16
26 25 24 23 24 26 28 30 33 33 36 37 36 34 30 27 23 21 19 17 18 17 16 16 16 18 19 20 21 20 21 21 21 21 21 21 21 21 21 21 20 20 19 18 18 18 18 19 18
27 26 24 23 24 26 28 30 31 33 35 36 36 35 32 29 26 23 22 21 21 19 17 17 17 18 21 23 22 22 23 23 23 23 23 23 22 22 23 22 22 22 21 20 20 20 20 21 21
27 26 24 24 26 27 29 30 30 33 35 36 36 35 34 31 28 26 25 23 22 21 19 18 17 17 20 22 23 24 25 25 25 25 24 23 23 23 23 23 23 24 23 22 22 21 21 22 23
26 26 24 25 27 28 30 30 30 32 34 36 36 36 35 32 30 28 27 25 24 23 21 20 20 20 20 22 24 25 25 25 26 26 25 25 25 24 24 25 25 25 25 25 23 23 23 24 25
24 25 24 24 26 28 30 30 30 32 34 35 36 37 36 34 32 30 28 27 26 25 24 23 21 21 22 22 24 25 25 25 26 27 26 26 26 25 25 26 25 26 26 26 25 25 26 27 27
22 22 22 22 25 28 29 29 29 30 33 34 35 36 36 35 33 32 30 28 27 27 26 26 24 21 22 23 24 25 26 25 27 27 27 27 26 26 25 25 24 25 25 26 27 28 28 28 29
20 20 20 21 24 26 27 27 26 27 29 31 32 33 34 34 33 32 30 30 29 27 27 27 27 24 23 24 25 25 24 23 26 26 27 27 26 25 25 24 24 24 24 25 26 28 29 30 31
17 17 18 20 22 24 25 25 23 23 25 27 29 30 31 31 31 30 30 30 29 28 27 27 26 24 25 26 26 25 24 23 25 25 26 27 26 25 26 26 26 25 26 26 26 27 28 29 30
14 16 18 19 20 21 22 22 21 20 22 24 26 27 28 28 28 29 29 30 29 28 27 26 24 24 25 25 25 24 24 23 24 25 26 27 27 26 26 27 25 25 26 26 27 27 28 29 30
13 15 17 18 18 18 18 20 19 19 20 22 23 24 25 25 26 27 28 28 28 27 26 26 24 23 24 23 24 23 23 23 23 24 25 26 25 25 25 25 25 26 26 26 27 28 29 30 31
13 14 16 16 17 17 16 18 16 17 18 20 21 22 22 23 24 26 26 27 27 27 25 24 24 24 24 25 24 22 22 23 23 23 23 23 23 24 25 25 26 28 28 28 29 30 31 32 33
13 13 14 15 15 16 16 17 16 16 17 18 19 20 21 22 22 23 25 25 26 26 25 25 24 23 23 24 25 23 22 22 22 23 24 24 24 25 25 26 27 28 29 30 31 32 32 33 34
14 13 13 13 14 15 15 15 14 15 15 16 18 19 20 22 22 22 23 24 24 24 24 24 24 24 23 23 23 23 22 21 22 23 24 25 25 26 27 27 29 30 30 30 31 32 33 34 36
13 13 13 13 13 14 14 13 13 14 14 16 17 17 19 21 21 21 21 22 23 23 23 23 23 23 24 24 25 24 23 23 24 25 25 26 26 27 28 30 30 30 31 32 33 35 36 38 39
12 12 13 12 12 13 13 12 13 14 14 15 17 18 18 19 19 20 21 21 22 23 23 23 23 24 24 25 26 25 25 25 27 27 27 28 28 28 30 31 32 33 34 35 36 38 39 40 42
10 11 12 12 12 13 14 13 13 13 14 13 14 15 15 16 17 18 19 20 20 20 21 23 23 25 26 27 27 27 27 27 28 28 28 29 30 31 32 33 34 34 35 37 39 40 41 41 42
9 9 10 11 12 12 14 13 12 12 12 12 12 12 13 14 16 17 19 20 21 22 22 23 24 25 26 27 28 29 29 29 30 30 30 31 32 33 34 34 36 37 38 39 39 39 39 40 40

GEFSSGP_500_meanwind_090.txt.gz
Wind_Speed
19 18 17 15 14 13 13 17 18 18 18 17 16 15 13 12 12 13 12 12 12 13 14 15 14 14 13 13 12 11 11 11 11 10 9 7 6 5 5 4 4 5 5 5 5 5 4 4 3
20 20 19 17 16 14 14 18 19 20 19 17 17 16 14 13 13 14 14 13 13 14 15 16 15 15 14 14 13 13 13 12 12 11 10 9 8 7 6 6 6 6 6 6 6 5 5 4 3
22 22 22 20 18 16 17 21 21 21 19 18 17 16 15 15 15 14 14 15 17 17 16 17 17 16 16 15 14 14 14 14 13 12 11 11 10 9 8 8 8 7 7 7 6 6 5 5 4
24 24 24 22 20 19 21 23 23 22 21 19 17 15 15 15 15 14 15 15 16 17 17 17 17 17 17 16 16 15 15 15 14 14 13 12 12 11 10 10 9 9 8 8 7 7 6 6 5
25 25 25 24 21 22 23 25 25 24 23 21 18 16 15 15 15 15 15 15 16 16 16 17 16 17 17 17 17 17 17 16 16 15 15 14 14 13 12 11 11 10 9 9 8 8 7 7 6
25 25 25 24 24 25 25 26 27 26 25 24 21 18 17 15 14 14 15 14 15 16 17 17 18 18 18 18 18 18 18 18 17 17 17 16 15 14 14 13 12 12 11 10 10 9 9 8 7
24 25 25 24 25 26 27 28 28 28 28 26 23 20 18 16 14 14 14 14 15 18 17 17 17 18 18 19 19 19 19 19 19 19 18 18 17 16 15 15 14 13 12 12 11 11 10 10 9
23 24 24 24 25 27 29 29 29 29 29 28 25 21 20 18 16 15 15 15 15 16 17 17 18 19 19 20 20 21 20 20 20 20 20 19 18 17 17 16 15 14 14 13 12 12 12 12 11
22 22 23 24 25 27 27 28 29 29 29 29 26 24 22 19 18 17 16 16 16 17 17 18 19 20 21 22 22 21 21 21 21 21 21 20 19 18 18 17 16 16 15 14 14 13 14 13 13
21 22 23 24 24 26 26 27 28 28 29 29 28 26 24 21 19 18 17 16 17 17 18 18 19 20 21 22 23 22 22 22 21 22 22 21 20 19 19 18 18 17 16 16 15 15 15 15 15
22 22 23 23 24 24 25 26 27 27 28 29 29 28 25 23 21 20 19 18 18 18 18 19 19 20 22 22 23 23 23 22 22 22 22 21 21 20 20 19 19 18 18 17 17 17 17 17 17
22 22 23 23 24 24 25 26 26 27 28 29 29 29 27 25 23 22 21 20 19 18 19 19 21 20 21 22 24 24 25 24 23 23 22 22 22 22 21 20 20 20 19 19 19 19 19 18 18
21 22 23 24 24 24 25 25 26 27 28 29 29 28 27 26 25 24 22 21 20 19 20 20 21 20 22 23 23 24 24 25 25 24 23 24 24 23 23 22 21 21 21 20 20 20 20 21 21
23 23 24 25 25 25 25 26 26 27 28 28 28 29 28 28 27 27 25 24 23 22 22 21 21 22 23 24 24 24 25 25 25 25 25 24 24 23 23 24 23 23 22 22 22 22 22 22 22
24 24 25 26 26 26 25 26 26 27 28 28 28 29 29 29 29 28 28 27 25 25 24 22 22 23 23 24 25 26 26 26 27 26 26 25 25 24 24 25 25 24 24 24 23 23 23 24 24
24 24 25 27 26 26 25 25 27 27 28 28 29 30 30 30 30 30 29 28 28 27 26 24 23 23 23 23 24 25 26 26 27 27 27 27 27 27 27 26 26 26 26 25 26 25 25 25 25
21 21 21 25 25 25 25 26 27 27 27 28 29 30 31 30 31 31 31 30 29 28 27 26 25 24 23 23 24 22 23 25 26 27 28 29 30 29 29 28 28 28 28 27 27 28 27 27 27
19 19 19 21 24 23 24 25 26 26 27 28 29 30 31 31 31 32 32 32 32 31 29 27 26 25 25 23 23 22 22 24 26 27 28 28 29 30 29 30 29 29 29 29 28 29 29 29 30
18 18 18 20 22 22 23 24 24 25 26 27 28 30 31 31 31 32 32 33 33 33 31 29 28 27 26 24 23 22 22 24 25 26 27 27 28 29 30 31 30 29 29 29 29 29 30 30 31
16 16 17 19 20 21 22 23 23 24 25 26 28 29 31 31 32 32 33 33 34 33 33 31 30 29 27 25 24 24 23 23 24 26 27 27 28 29 30 30 31 30 30 30 30 30 30 30 30
15 15 16 17 18 18 20 20 21 22 23 24 26 28 29 30 31 32 33 34 34 33 33 32 31 30 29 26 25 24 24 24 25 25 25 23 24 27 29 30 28 28 30 31 31 31 31 32 32
14 14 15 16 16 16 18 18 19 20 21 22 24 25 26 27 29 30 31 32 33 33 33 33 32 31 29 28 27 26 26 25 24 24 23 22 23 24 26 28 29 28 29 29 31 30 30 31 31
13 14 14 15 16 16 16 17 18 18 19 20 21 23 24 25 27 28 30 31 31 31 32 32 32 31 30 29 29 29 27 26 25 24 25 24 23 23 26 27 28 29 30 30 30 31 32 32 31
12 12 13 13 14 14 13 14 13 13 15 17 19 20 21 23 24 25 27 28 29 30 31 31 31 30 29 29 28 27 26 26 25 25 25 24 25 25 27 28 29 29 30 31 31 30 29 30 31
11 11 11 12 12 12 12 14 13 11 12 14 17 18 20 21 22 23 24 25 27 28 30 30 30 30 30 29 28 27 27 26 25 25 24 24 25 25 26 27 28 29 30 31 30 30 31 32 33
10 9 10 11 10 12 13 13 13 12 12 13 15 17 19 20 21 22 23 25 26 27 28 29 29 30 30 29 28 27 26 24 24 24 23 24 24 25 26 27 28 29 29 30 30 31 33 34 34
9 10 11 11 11 13 13 14 13 12 12 12 14 16 18 20 22 22 23 25 26 27 28 28 28 28 28 28 27 27 26 25 24 24 24 24 24 25 26 26 27 28 29 30 31 32 33 34 35
9 10 11 10 12 13 14 14 12 11 11 11 12 14 16 18 21 23 23 24 25 27 28 29 28 29 29 28 28 28 27 26 25 25 25 26 27 27 28 28 29 29 30 32 32 32 34 35 35
10 10 11 12 13 13 13 13 13 12 12 12 13 12 14 16 18 21 22 23 24 26 27 28 28 28 29 28 28 28 28 27 26 26 27 27 27 27 28 29 29 30 31 32 33 34 35 36 37
9 10 11 11 12 13 13 14 12 12 12 12 13 13 13 15 16 18 20 22 22 24 26 27 27 27 28 29 29 29 29 28 28 28 28 28 28 28 29 30 31 31 32 33 34 35 36 37 38

GEFSSGP_500_meanwind_096.txt.gz
Wind_Speed
17 16 16 15 14 11 6 4 9 15 18 20 18 17 17 18 20 18 17 16 14 14 15 15 15 15 15 15 15 15 14 14 14 14 14 14 14 13 12 10 9 8 7 7 6 6 5 4 4
18 18 18 17 15 11 6 7 12 17 22 21 19 17 17 19 20 18 17 16 16 16 16 17 17 16 16 16 17 16 16 16 16 15 15 15 15 14 13 12 11 10 9 8 7 7 6 5 5
19 19 19 19 17 12 9 11 16 18 23 22 20 18 18 19 19 18 18 18 17 18 18 19 19 18 18 17 18 18 18 17 17 16 16 16 16 16 15 14 12 11 10 9 9 8 7 6 6
20 20 20 20 17 12 11 14 19 18 21 21 19 18 19 19 18 18 18 18 18 18 19 19 20 20 19 19 19 19 19 18 18 17 17 18 18 18 17 16 14 13 12 11 10 9 8 7 7
20 20 20 20 17 14 14 17 22 22 21 21 20 20 22 20 17 17 17 18 18 18 19 20 21 21 21 21 21 20 20 19 19 18 19 19 19 19 18 17 16 15 14 12 11 10 9 9 9
19 19 19 18 14 12 14 20 24 23 23 22 20 20 23 23 19 18 18 17 18 19 19 20 22 22 21 21 21 21 21 21 20 20 20 20 21 20 20 19 18 17 15 14 13 11 11 10 10
19 19 18 16 14 14 18 23 24 23 23 21 21 21 25 24 21 19 19 18 19 19 19 19 20 22 21 21 21 21 21 21 21 21 21 21 21 21 21 20 19 18 17 16 14 13 12 12 12
19 19 18 17 16 16 20 26 27 26 24 22 23 23 27 26 22 19 20 19 19 18 18 18 19 20 20 21 21 21 21 21 22 22 23 23 22 22 22 21 21 20 19 17 16 15 14 14 13
18 18 17 14 14 17 21 27 26 27 26 24 24 25 27 27 23 21 21 21 20 19 19 19 19 20 21 20 21 21 21 22 22 23 24 24 24 23 23 22 22 22 21 19 18 16 15 15 15
16 16 14 14 19 21 22 24 23 25 24 23 25 25 28 26 24 23 22 22 22 21 20 21 21 22 22 22 22 22 22 23 24 24 25 25 25 25 25 24 23 23 22 21 20 18 17 17 16
16 16 16 19 23 23 23 23 23 24 22 21 24 25 27 26 26 24 24 24 22 22 21 21 22 22 24 24 24 24 25 24 24 25 25 26 26 26 26 25 25 24 23 22 21 20 19 18 18
17 18 20 22 23 24 25 24 24 24 23 23 24 25 25 26 26 25 24 24 25 25 23 22 21 23 24 24 24 25 24 25 26 26 27 27 27 26 26 26 26 25 24 24 23 22 21 20 19
17 18 20 22 23 23 24 24 25 25 24 25 25 26 27 28 27 26 27 27 27 26 24 23 23 23 24 24 24 24 24 24 25 25 26 27 27 26 26 26 26 26 25 24 24 23 23 22 21
16 18 19 20 22 22 23 24 25 25 25 26 26 27 26 27 27 27 27 27 29 28 26 25 25 23 23 24 24 24 24 24 24 25 26 26 27 27 26 26 26 26 26 24 24 24 24 23 22
17 18 19 20 21 22 23 24 24 25 25 26 26 26 27 28 28 29 29 29 30 29 28 25 25 24 23 23 23 24 25 25 26 25 25 26 26 26 26 26 27 26 26 25 25 25 24 25 24
15 16 16 17 20 22 21 20 21 25 25 25 26 26 27 28 29 30 29 29 30 30 29 27 25 25 25 24 24 25 25 25 25 24 26 26 26 26 27 28 28 27 27 27 26 27 26 26 26
12 13 11 12 19 21 20 18 20 23 25 25 26 26 27 28 29 31 30 29 30 30 29 28 27 27 27 26 25 25 24 25 25 24 25 25 27 27 28 28 28 28 28 28 28 27 27 27 27
9 11 12 13 18 22 21 19 20 24 25 26 27 26 27 29 29 30 31 31 31 31 31 30 30 30 28 27 27 26 25 25 24 24 23 23 25 27 27 28 28 28 28 28 28 28 28 29 29
14 16 17 16 18 22 21 21 20 25 25 26 26 26 28 28 29 31 32 33 33 33 33 32 32 32 31 29 28 28 27 25 25 24 22 21 22 23 25 26 28 28 28 28 29 29 29 30 29
15 14 14 16 18 21 21 21 20 24 25 26 26 26 29 28 29 31 32 34 35 35 35 33 34 34 34 32 30 30 28 27 26 25 24 23 22 24 23 25 26 27 28 29 29 30 29 30 30
13 13 14 16 18 20 21 21 20 22 23 25 25 27 28 28 30 32 33 34 35 35 35 35 35 35 35 33 32 30 30 28 26 26 25 25 26 25 25 24 24 26 27 29 30 29 29 29 30
12 12 13 15 17 17 19 22 20 21 24 25 25 26 26 27 29 31 33 34 33 34 35 35 35 35 35 34 34 32 31 30 28 27 26 26 25 24 24 24 24 25 26 27 29 30 29 30 31
12 13 15 15 16 16 16 20 18 18 22 24 22 24 25 26 27 29 31 32 33 33 34 35 35 35 35 34 34 33 32 31 30 29 28 27 26 26 25 25 24 25 25 26 27 28 29 30 30
12 12 13 14 16 17 15 18 19 20 20 21 19 22 23 24 26 27 29 31 32 33 34 35 35 35 35 35 34 34 33 31 30 29 28 27 27 27 26 26 26 26 26 27 28 29 29 30 30
12 13 14 16 16 15 15 18 19 20 20 19 19 21 23 23 24 26 27 29 30 32 32 33 34 35 35 34 34 34 33 32 31 30 29 28 28 27 27 27 28 29 28 28 29 30 30 30 31
12 12 14 16 16 16 17 16 18 19 19 19 20 20 20 20 21 23 24 26 28 29 30 31 31 32 33 33 33 33 32 32 32 32 30 30 29 28 28 28 29 29 29 30 30 31 32 32 33
10 11 13 16 18 19 17 16 19 19 19 19 19 19 19 19 20 21 22 23 25 27 28 29 30 30 31 32 32 31 31 32 31 31 30 29 28 28 28 28 28 29 30 31 32 32 32 33 33
11 10 12 13 17 18 17 19 19 19 19 18 18 18 17 17 18 20 20 22 24 25 26 27 28 29 30 30 31 31 31 31 31 31 31 30 30 29 28 29 28 29 30 30 31 31 31 33 33
11 13 13 14 15 17 19 20 19 17 17 15 16 17 17 18 18 18 20 21 22 24 25 26 27 28 29 30 30 31 31 31 30 31 30 29 29 28 29 29 29 29 30 30 30 31 31 32 32
11 13 14 15 15 16 18 21 20 18 18 17 16 16 16 16 16 18 19 21 23 24 25 26 27 28 28 28 29 30 30 30 30 30 30 29 29 29 29 29 30 30 30 30 30 32 33 33 34

GEFSSGP_500_meanwind_102.txt.gz
Wind_Speed
20 19 18 16 14 12 13 13 13 12 11 12 13 15 16 16 16 15 13 13 10 8 8 8 8 9 10 11 13 14 14 15 15 14 13 13 13 13 12 12 12 12 12 12 11 10 10 9 8
21 20 19 17 14 13 14 15 14 12 12 13 16 17 17 16 15 14 13 12 10 10 10 10 10 10 11 12 14 15 15 16 16 15 15 14 14 13 13 13 13 13 13 13 12 12 11 10 9
21 20 20 17 14 14 17 17 16 12 12 14 17 18 18 16 14 14 13 12 11 11 11 11 11 12 13 13 15 16 16 16 16 16 16 15 15 14 15 15 15 14 14 14 14 13 12 11 10
21 21 20 17 14 16 18 17 16 13 12 16 19 20 19 17 15 13 12 12 12 12 12 12 12 13 14 15 16 17 17 18 18 18 17 17 16 16 16 16 16 15 15 15 15 14 13 12 11
21 21 20 16 15 17 19 18 17 14 13 17 20 22 22 19 17 14 14 13 13 13 13 13 14 14 15 16 17 18 18 19 19 19 19 19 18 18 18 17 17 16 16 16 15 15 14 13 12
21 21 19 17 17 20 21 20 18 16 15 19 22 24 23 20 18 16 15 14 15 14 14 15 15 16 17 17 18 19 20 20 21 21 20 20 19 19 19 18 18 17 17 17 16 15 14 14 13
21 20 18 18 20 22 22 21 18 17 18 22 25 26 25 22 21 19 16 15 16 16 16 16 16 16 18 19 19 20 20 21 22 22 22 21 21 20 20 20 19 18 18 17 17 16 15 14 14
20 19 18 19 22 24 23 20 19 19 22 25 28 29 27 25 23 20 19 18 18 18 18 17 17 18 18 19 20 20 20 21 22 22 22 22 22 22 21 20 20 19 19 18 18 17 17 16 15
19 17 17 20 24 25 24 21 21 22 24 27 29 31 30 28 25 24 22 20 19 20 20 20 20 19 19 19 20 21 21 21 22 22 23 23 23 23 22 21 20 20 20 19 19 19 18 17 16
18 16 17 22 26 26 23 21 21 22 24 26 28 30 30 29 28 26 24 21 21 22 22 23 22 21 20 20 20 21 21 21 22 23 24 24 24 23 23 21 21 21 21 20 20 20 19 18 18
17 16 19 23 25 25 23 22 22 23 24 26 27 29 29 28 28 28 25 23 22 23 24 25 24 23 21 21 21 21 22 22 22 23 24 24 25 24 24 23 23 23 22 22 22 21 21 20 19
18 18 21 23 24 24 23 23 24 25 25 26 27 28 28 28 28 27 25 23 23 24 25 27 25 23 24 23 22 23 23 23 25 25 25 25 25 25 25 24 25 25 25 24 23 22 22 21 21
18 19 21 23 23 22 21 23 24 25 26 27 27 26 27 27 27 27 27 26 25 25 26 26 25 25 25 25 24 24 25 25 26 26 25 25 25 25 26 26 27 26 26 26 25 24 22 22 22
17 18 19 20 20 20 21 22 24 25 26 27 28 28 28 28 28 28 28 28 27 27 28 27 27 26 26 26 27 27 27 27 26 26 26 26 25 24 25 26 27 27 27 26 26 25 24 22 23
16 15 15 15 16 17 19 21 23 24 25 26 28 29 29 29 29 29 30 29 29 28 28 28 27 27 26 26 27 27 26 27 27 27 28 26 26 25 25 26 26 26 27 27 26 26 26 24 23
14 12 12 13 13 14 16 17 19 21 23 24 25 27 29 29 29 30 30 31 31 31 29 28 28 27 26 26 26 26 26 26 26 26 26 25 24 25 24 24 24 25 25 26 26 24 25 25 24
13 11 11 12 12 13 15 15 17 18 19 21 23 24 25 27 28 30 30 31 31 31 30 30 30 29 27 26 25 24 25 25 25 24 23 23 23 23 23 23 23 24 25 25 25 24 24 24 23
11 11 12 13 12 13 14 15 17 18 20 21 22 23 24 26 27 29 30 31 31 30 30 31 31 29 28 28 28 26 26 24 24 23 20 20 20 20 21 21 23 23 24 24 25 25 25 24 24
12 12 13 12 12 14 14 16 18 19 21 22 23 25 25 26 27 28 29 30 30 30 30 31 31 29 29 29 30 30 28 26 25 22 20 19 19 19 19 20 21 23 24 24 24 24 24 24 25
13 13 11 11 12 16 17 18 19 21 22 23 24 25 26 27 28 28 29 30 30 30 30 31 31 31 31 31 31 30 30 28 25 23 20 20 19 20 20 20 21 23 23 23 24 24 25 25 25
13 13 12 12 13 17 19 21 21 23 23 24 24 24 25 25 25 27 28 28 30 30 31 31 31 31 32 32 31 31 29 28 27 25 22 21 21 21 20 19 19 20 22 22 22 22 25 26 26
12 12 12 13 14 16 19 20 20 23 24 24 24 24 23 23 24 25 27 28 29 30 30 30 31 31 32 32 32 31 29 28 26 25 24 22 21 20 20 19 18 20 21 21 22 22 23 25 26
11 12 12 14 15 16 18 20 20 23 23 23 23 23 24 24 24 25 26 27 28 30 31 31 31 31 31 31 31 31 30 29 28 26 25 25 24 23 22 21 19 19 21 21 22 23 24 24 26
11 12 13 13 14 16 17 20 20 21 22 22 22 22 23 24 24 24 24 25 27 28 29 30 30 31 30 31 31 31 30 29 27 26 26 26 25 24 23 22 22 21 22 22 22 23 24 25 26
11 12 12 12 12 13 15 18 19 18 19 20 21 21 21 21 22 23 24 24 25 26 27 28 29 30 30 31 30 30 30 29 29 28 27 26 26 26 25 24 24 23 23 23 23 23 25 26 27
10 11 12 13 13 12 13 17 17 17 17 17 17 17 18 19 19 20 21 23 23 23 24 26 27 28 28 29 29 29 29 28 28 28 28 27 26 26 26 25 25 24 24 24 24 25 26 27 28
11 11 11 12 12 13 15 16 17 17 16 15 16 16 18 19 18 18 19 20 21 22 23 24 25 26 27 28 28 29 29 28 28 28 28 28 27 26 26 25 25 25 26 26 26 26 27 28 29
11 11 12 12 14 15 15 17 17 15 15 16 17 17 18 18 19 19 19 20 20 21 21 21 22 23 24 25 26 26 27 28 28 28 28 27 27 26 26 26 26 26 26 26 27 27 27 27 28
14 14 13 15 15 15 16 16 17 18 18 18 17 17 17 18 18 18 18 18 19 19 19 20 20 22 22 22 23 24 25 26 27 28 27 27 27 27 28 27 26 26 25 26 26 27 27 27 28
15 15 15 15 15 15 16 17 18 18 18 18 18 17 17 17 17 18 17 18 18 18 19 19 20 20 21 22 22 23 24 24 25 26 26 26 26 26 26 26 25 26 26 26 27 27 28 28 28

GEFSSGP_500_meanwind_108.txt.gz
Wind_Speed
23 21 20 19 18 17 16 17 18 18 18 16 14 11 9 8 7 7 6 6 5 4 5 6 7 8 8 8 8 8 8 8 8 8 7 7 7 6 7 7 8 8 8 9 10 10 11 11 11
24 23 22 20 19 17 17 19 20 21 20 17 15 12 10 9 8 7 6 6 6 6 7 7 9 9 9 9 9 9 9 9 9 9 9 9 8 8 8 8 8 8 8 9 9 10 10 10 10
26 24 23 21 18 17 20 21 23 23 21 18 16 14 11 10 9 8 8 8 8 8 7 8 10 10 10 10 10 10 11 11 11 11 10 10 10 10 10 10 9 9 9 9 10 10 10 10 10
26 25 24 21 17 19 22 24 25 25 23 21 18 15 13 11 10 9 9 9 9 10 9 9 10 11 11 11 12 12 12 13 12 12 12 12 12 12 12 12 12 11 11 11 11 11 10 10 10
26 25 23 20 18 22 25 27 27 26 24 22 20 17 14 13 12 10 10 11 10 11 11 11 11 12 13 13 13 14 14 14 14 14 14 14 14 14 14 14 14 14 13 12 12 12 11 10 10
25 24 22 20 20 24 28 29 29 28 26 23 22 19 16 15 14 13 12 12 12 12 13 13 13 13 14 14 14 15 15 15 15 16 16 16 15 15 16 16 16 15 15 14 13 13 12 11 11
24 23 22 21 23 26 30 31 30 29 27 25 22 20 18 16 15 15 15 14 14 14 15 14 14 15 16 16 16 17 17 17 17 17 17 17 17 18 18 18 17 17 16 16 15 14 13 12 12
23 23 22 22 25 29 31 32 31 30 28 26 23 21 20 19 18 18 18 17 16 16 16 16 16 16 17 17 17 18 18 18 18 19 19 19 19 19 19 20 19 19 18 17 16 16 15 14 14
22 22 21 23 27 30 32 32 32 31 29 27 25 23 22 21 21 20 20 19 19 18 18 18 18 17 17 17 17 18 19 20 20 20 21 21 21 21 21 21 21 21 20 19 18 17 16 16 15
21 20 22 25 28 31 32 32 32 31 30 28 26 25 23 22 22 22 21 21 21 20 19 20 19 18 18 18 19 20 20 20 21 22 22 22 22 22 22 21 22 22 21 21 20 19 19 17 17
20 20 24 26 29 31 32 33 32 32 31 29 27 26 25 24 23 23 22 22 22 21 20 20 20 19 18 19 20 21 22 22 22 23 23 24 23 23 23 22 22 22 22 22 22 21 20 19 19
19 21 24 26 29 30 32 32 32 32 31 30 29 27 26 25 24 24 24 24 24 23 22 22 22 21 21 22 23 23 24 24 23 24 24 24 24 24 24 24 24 24 24 24 24 23 22 21 21
18 20 22 25 28 30 31 31 31 31 31 31 30 28 27 26 25 24 24 24 24 23 23 23 23 23 24 24 25 25 25 25 25 26 25 26 27 26 26 26 25 26 25 26 25 25 25 24 23
17 19 21 23 25 28 30 30 30 30 30 30 29 28 27 27 26 25 25 25 25 25 25 24 23 23 23 24 25 25 24 26 28 28 28 28 28 27 26 26 26 26 26 26 27 26 25 24 23
16 17 18 21 23 25 27 28 28 29 29 29 28 27 27 27 26 27 27 27 27 26 25 25 24 24 24 23 24 24 26 27 28 29 30 30 29 27 27 27 26 26 26 27 27 26 25 24 24
15 17 18 20 22 24 25 26 27 28 28 28 27 27 26 27 27 28 28 29 29 28 27 26 26 26 25 26 26 26 27 28 28 29 29 29 28 28 28 28 28 27 27 26 26 26 25 25 25
16 17 18 20 21 23 24 24 25 26 27 27 27 27 27 27 28 28 29 30 30 30 29 28 26 26 26 27 27 27 26 26 26 26 27 27 27 28 28 29 29 27 26 26 26 26 24 24 24
16 17 18 19 20 21 22 22 23 24 25 25 25 25 26 26 27 28 28 28 28 29 29 28 28 27 27 27 27 27 26 25 24 24 24 25 26 26 26 28 28 27 25 26 26 26 25 24 25
16 16 16 18 19 19 19 20 20 21 22 22 23 23 24 24 25 26 26 26 27 27 28 28 27 28 28 28 27 26 26 26 24 22 23 24 23 22 22 24 25 26 26 25 25 25 25 25 25
16 15 15 17 18 18 18 19 19 19 19 20 21 22 23 23 24 24 25 26 27 27 27 27 27 27 28 28 28 27 26 26 25 25 24 23 22 21 21 22 24 25 25 25 25 26 27 27 26
15 15 15 16 17 18 18 17 17 17 18 19 21 21 22 23 23 24 25 26 26 27 27 27 27 28 28 28 29 29 28 28 27 25 25 24 24 23 23 23 23 24 25 25 24 26 27 27 28
14 15 16 17 17 16 16 16 16 18 19 20 21 20 21 22 23 23 24 25 25 26 27 27 26 27 27 28 28 28 28 27 26 25 25 25 24 23 23 23 23 23 23 23 24 25 26 27 27
14 15 16 17 16 16 16 17 16 18 19 20 21 21 21 22 22 23 24 25 25 26 26 26 26 26 27 28 28 28 28 27 27 26 25 25 24 23 23 23 22 22 23 24 24 24 25 26 27
15 15 16 16 15 15 16 17 16 17 17 19 20 21 22 23 24 23 24 24 24 24 24 25 25 25 26 26 27 27 27 27 27 26 25 24 24 23 23 23 22 21 22 23 23 24 24 24 26
14 14 15 15 14 15 15 16 16 16 17 18 20 21 22 22 21 22 22 21 22 22 23 24 24 25 25 26 26 26 26 26 26 26 26 25 25 24 23 23 23 22 22 22 22 22 22 23 24
13 13 14 14 14 14 15 16 16 16 17 17 17 18 19 19 19 20 20 21 21 21 22 22 23 25 25 26 26 26 26 25 25 25 25 25 25 25 24 24 24 23 23 23 22 21 22 23 24
14 14 14 14 14 14 14 15 14 15 15 16 16 17 18 18 19 18 19 20 20 21 22 23 23 24 24 25 25 25 25 24 25 24 25 26 26 25 25 25 24 24 23 23 23 23 23 23 24
15 14 14 15 16 15 14 14 14 15 16 16 17 17 18 18 19 19 19 20 21 21 22 23 24 24 24 25 25 24 24 23 24 25 26 25 26 26 26 26 25 24 24 24 25 25 25 25 25
15 15 15 15 16 16 15 15 15 16 16 17 17 17 18 19 20 20 20 21 22 22 22 22 23 23 23 23 23 23 23 23 24 24 25 25 26 27 27 26 26 25 26 26 25 25 25 26 26
15 15 15 16 16 16 16 15 16 17 17 18 18 18 19 20 20 20 21 21 21 22 22 22 22 22 22 22 22 23 23 23 24 24 24 24 24 24 25 25 25 26 26 27 27 26 26 27 27

GEFSSGP_500_meanwind_114.txt.gz
Wind_Speed
20 19 18 17 16 16 17 21 20 19 18 16 14 13 12 11 10 8 7 6 6 7 8 9 10 10 10 10 10 10 11 10 10 10 9 8 7 6 5 4 3 2 1 1 2 3 3 4 4
21 20 19 18 17 15 18 23 22 21 19 17 15 14 14 13 11 10 8 7 7 7 8 9 9 10 11 11 12 12 12 12 11 11 10 10 9 8 7 6 5 4 4 3 3 4 4 4 4
22 21 20 19 18 17 21 24 24 22 20 18 17 16 15 14 12 10 9 8 8 8 8 9 9 10 11 12 12 13 13 13 13 12 12 11 10 10 9 8 7 6 6 5 5 6 5 5 5
22 21 21 20 19 22 25 25 24 23 21 19 17 16 16 14 12 10 10 9 9 9 8 8 9 10 11 12 12 13 14 14 14 14 13 13 13 12 11 11 10 9 8 8 8 8 8 7 6
21 21 20 19 20 23 25 26 25 24 22 20 18 17 16 14 13 11 10 10 9 9 9 9 10 10 11 12 13 14 14 15 14 14 15 14 14 14 13 13 12 11 11 10 10 10 10 9 8
20 21 20 19 21 23 26 27 26 24 23 21 19 19 17 15 14 14 12 11 10 9 10 10 10 11 12 13 15 15 15 16 16 16 16 16 16 15 15 14 14 14 13 13 12 12 12 11 10
20 20 20 21 22 24 27 27 27 25 24 23 21 20 19 16 16 15 14 13 12 11 10 11 11 12 13 14 15 16 16 17 18 18 18 18 18 17 17 16 16 16 16 15 15 14 14 13 12
19 20 20 21 22 25 27 27 27 26 26 24 22 22 20 18 17 16 15 15 14 13 12 12 12 13 14 15 16 17 18 18 18 19 20 20 20 20 19 19 18 17 17 17 17 16 15 15 14
18 19 20 22 23 25 26 27 27 26 26 25 24 23 21 19 19 18 17 16 15 14 13 14 14 14 14 15 16 18 19 20 20 20 20 20 21 21 21 20 19 19 19 18 18 17 17 17 17
18 18 21 22 23 24 26 27 27 26 26 26 25 24 22 21 20 20 20 18 17 16 16 15 15 15 16 16 17 18 18 19 20 20 21 22 22 21 22 21 21 21 20 20 19 19 19 19 18
17 19 20 21 22 23 25 27 27 26 27 26 25 24 23 22 22 22 21 20 19 18 17 17 17 17 17 18 19 19 19 20 20 20 21 22 22 22 22 22 22 22 22 22 21 21 21 20 20
16 18 19 20 21 23 24 25 26 26 27 26 26 25 25 24 23 23 24 23 21 21 20 19 19 19 20 20 20 20 20 21 21 22 22 23 24 24 23 23 23 23 23 23 23 22 22 22 22
15 16 18 19 21 23 23 24 24 25 25 25 25 25 26 25 25 24 24 23 22 22 22 22 22 22 22 22 22 22 22 22 23 22 23 24 25 25 25 25 25 25 24 25 24 23 24 24 23
15 15 17 19 20 21 22 23 23 24 24 25 24 25 25 25 25 25 24 24 24 24 24 23 23 23 23 23 24 24 23 23 23 24 24 25 26 26 27 26 26 26 25 25 25 24 24 24 24
14 14 16 18 19 20 20 22 23 24 24 24 24 24 25 25 25 25 25 25 24 25 24 24 24 24 24 24 25 25 25 25 25 25 26 26 26 26 28 27 27 27 27 26 26 26 26 25 25
13 13 14 17 17 18 18 19 23 23 23 24 24 25 26 25 25 26 26 26 26 26 25 25 25 25 25 25 25 25 26 26 26 26 26 26 26 27 28 29 28 29 29 28 28 27 27 26 26
13 12 14 16 16 17 17 19 21 22 22 23 23 24 24 25 25 25 25 25 26 26 26 26 26 26 26 26 25 25 26 26 26 25 25 26 27 27 28 28 28 29 30 29 29 28 27 27 27
13 13 14 15 16 16 16 18 19 20 21 22 22 23 24 24 24 24 25 24 25 26 26 26 26 26 26 26 26 26 26 27 26 25 25 26 26 26 26 26 27 29 29 29 29 29 29 28 28
14 13 14 16 15 15 15 16 16 17 18 19 20 21 22 23 24 24 24 25 25 25 26 26 25 26 26 26 26 26 27 27 27 26 25 26 26 26 27 28 27 26 26 27 29 30 29 28 28
12 12 13 15 14 14 14 14 14 15 16 17 17 18 20 21 23 23 24 24 24 25 26 26 26 25 25 25 26 26 26 27 26 26 25 25 25 25 25 27 27 26 25 26 27 29 30 30 30
11 11 12 14 13 13 14 14 15 15 16 16 17 18 19 20 21 22 23 24 24 25 25 26 25 25 25 25 25 25 26 26 26 26 26 25 25 25 24 25 25 26 26 26 26 27 29 30 30
11 12 12 12 11 12 12 11 15 15 16 16 17 18 19 20 21 22 23 23 24 24 25 25 25 25 25 25 24 25 25 25 26 26 26 26 26 26 26 26 25 25 26 26 27 26 27 28 28
12 11 11 11 11 11 12 11 15 15 16 16 17 18 18 20 20 21 22 23 24 24 25 25 25 25 25 25 25 25 25 25 25 25 25 25 26 26 26 26 26 26 26 26 27 27 27 27 28
10 10 10 9 9 9 12 11 13 14 15 15 16 17 18 19 20 21 22 23 23 23 24 25 25 25 25 25 25 25 25 25 25 26 25 25 25 26 26 26 27 27 27 27 27 28 29 28 28
9 8 7 7 8 10 12 11 13 14 14 15 16 16 17 18 19 20 21 22 22 22 22 24 24 24 24 24 25 25 25 25 26 26 26 26 26 26 26 27 28 28 28 28 28 27 28 28 28
9 9 8 8 9 10 12 12 13 13 14 15 16 17 18 18 19 19 20 21 22 23 23 23 23 23 23 24 25 25 26 26 26 26 26 26 26 27 28 28 28 28 29 29 28 27 27 27 28
11 10 10 9 9 9 11 13 14 14 15 16 17 18 19 19 19 20 20 21 21 22 22 23 22 23 24 24 25 26 26 27 26 26 25 26 27 28 28 29 28 28 28 28 28 28 28 28 29
11 11 11 9 9 9 11 13 15 16 16 18 18 19 19 19 20 21 21 21 21 21 22 22 22 23 24 24 24 25 25 25 25 26 27 26 27 28 29 29 29 29 29 29 29 29 29 28 28
11 11 11 11 11 11 11 13 16 16 17 18 18 19 19 19 20 21 21 22 22 22 22 22 22 22 23 23 23 23 23 24 24 25 26 26 26 27 28 28 28 28 29 30 29 29 28 28 28
12 12 11 11 12 12 12 15 16 17 17 17 17 18 19 20 21 21 22 22 23 22 22 21 22 22 22 22 22 23 23 23 24 24 25 25 26 26 27 27 27 28 28 28 28 27 27 28 29

GEFSSGP_500_meanwind_120.txt.gz
Wind_Speed
15 15 15 14 13 11 7 6 11 17 20 21 19 17 18 17 16 15 14 12 11 11 11 12 12 12 11 11 11 11 10 10 11 11 11 10 10 10 10 9 8 7 6 6 5 4 4 4 3
15 15 15 15 13 10 4 7 14 19 23 22 18 18 18 17 17 16 14 13 12 13 13 13 13 13 13 13 12 12 12 11 11 12 12 12 11 11 11 10 10 9 8 8 7 6 6 5 5
15 15 15 15 13 9 6 11 19 23 24 21 19 19 20 19 18 18 16 15 14 14 13 13 14 14 14 14 14 13 13 13 13 13 13 13 13 12 12 12 11 11 10 9 9 8 8 7 7
14 15 15 15 13 8 10 15 20 21 22 20 21 20 20 20 19 18 18 16 15 14 14 13 14 14 14 14 15 14 14 14 14 14 15 15 14 14 14 13 13 12 12 11 11 10 10 9 9
14 14 14 13 11 10 14 18 23 21 20 20 20 22 21 21 20 19 19 17 15 14 14 14 14 14 14 15 15 15 15 15 15 15 16 16 16 16 16 16 15 15 14 13 13 12 11 11 10
13 13 12 10 7 11 19 23 24 23 19 19 20 23 22 20 18 18 18 16 15 14 14 14 14 14 15 15 15 16 16 16 17 17 17 17 17 18 18 17 17 17 16 16 15 14 13 13 12
13 13 11 8 8 15 21 24 22 20 20 20 21 24 23 18 18 18 18 17 15 14 15 15 16 15 15 16 16 16 17 17 18 19 19 19 19 19 19 19 19 19 18 18 17 16 15 15 14
13 13 13 10 12 17 23 24 22 20 20 23 24 24 23 20 18 18 17 17 16 15 16 16 17 16 16 16 17 18 18 18 19 20 20 21 21 21 21 21 21 21 20 19 18 18 17 17 17
13 13 10 9 13 17 22 22 20 21 21 24 27 26 24 20 18 16 17 18 16 16 16 16 16 17 16 17 17 18 18 18 19 20 21 21 22 22 22 22 23 23 22 20 20 20 19 19 19
12 11 7 12 16 17 19 17 17 19 20 25 27 26 26 21 18 18 17 17 17 18 17 16 17 17 18 18 17 17 17 18 19 20 21 22 22 23 24 24 24 24 23 22 21 21 20 20 20
13 12 13 19 20 19 17 17 18 17 19 23 23 23 22 19 20 19 18 18 18 18 18 17 17 17 17 18 18 18 18 19 20 21 21 22 22 23 25 25 25 24 24 24 23 22 22 22 22
14 16 18 20 21 21 17 18 18 18 23 25 24 20 19 20 20 18 18 18 19 19 18 18 18 18 19 19 18 18 20 20 20 22 22 22 23 24 25 26 25 25 25 24 23 24 24 23 23
15 17 18 19 19 18 19 20 19 20 24 26 23 18 16 18 20 20 21 19 19 19 17 17 19 20 21 21 22 21 20 21 22 21 23 23 22 23 24 25 25 25 24 24 24 24 25 26 24
14 15 16 17 16 16 17 18 19 19 23 25 23 20 19 20 21 21 21 19 19 19 19 19 19 20 21 21 22 22 21 22 22 23 23 23 23 24 25 25 25 25 26 25 24 25 25 25 25
14 14 14 14 14 14 14 15 18 17 19 18 19 19 21 20 21 20 20 19 20 21 21 21 20 21 21 22 22 22 23 23 23 23 23 23 23 24 25 25 26 26 26 26 26 26 26 26 26
12 11 11 12 12 13 13 14 18 17 18 17 17 18 20 19 18 20 21 20 21 21 22 22 21 21 22 23 23 23 24 24 24 23 24 24 25 26 26 26 26 27 27 28 28 28 28 27 26
9 9 10 13 13 13 12 14 19 19 19 17 17 20 19 19 19 20 21 21 21 22 22 23 22 23 23 24 24 25 25 25 25 25 25 26 26 27 26 26 26 26 27 27 27 28 28 27 28
8 8 11 14 15 12 12 14 18 19 17 17 18 19 19 19 20 20 21 21 22 22 23 24 24 25 25 25 26 26 27 27 27 27 26 27 27 27 27 27 27 27 27 27 27 27 28 28 28
9 11 13 16 15 12 12 16 18 18 17 17 18 19 19 19 19 21 21 21 22 23 24 25 25 26 27 27 27 27 28 28 28 28 28 28 28 28 28 28 27 28 28 28 28 28 27 28 29
12 12 13 15 15 13 14 16 18 16 17 18 18 19 19 19 20 21 20 20 21 23 24 25 26 27 27 27 27 28 28 28 28 28 29 29 29 30 30 30 28 27 27 28 28 28 28 28 28
14 13 15 17 17 14 14 16 16 16 17 18 19 18 19 20 20 20 20 21 22 23 24 25 26 27 27 28 28 29 29 29 29 29 29 29 30 30 29 29 29 28 28 28 28 28 27 27 27
13 14 16 16 14 12 12 15 18 18 18 18 18 19 19 19 19 20 21 21 23 24 25 26 27 27 28 28 29 29 29 29 29 29 29 29 28 29 28 29 28 28 28 28 28 28 28 27 26
12 12 12 13 14 13 15 15 20 22 20 18 17 19 18 19 20 21 21 22 24 25 25 26 27 28 28 29 30 30 30 30 29 29 29 28 28 28 28 29 29 29 29 29 28 28 28 28 28
12 12 12 12 14 15 16 15 20 22 22 20 17 18 18 20 21 21 22 23 24 25 26 26 27 28 28 29 29 29 30 30 29 29 28 28 27 27 27 29 29 29 29 30 30 29 29 28 28
12 11 11 12 15 17 15 17 22 22 21 18 18 19 19 21 21 22 23 23 24 25 26 27 28 28 28 29 28 29 29 29 29 28 28 28 28 28 28 28 30 30 30 30 30 30 29 29 29
13 13 13 14 14 14 15 19 22 19 19 20 20 20 22 23 23 23 23 24 25 25 26 27 28 28 29 29 29 29 29 29 29 28 28 28 29 30 30 30 30 30 30 30 30 30 30 30 30
12 12 11 12 12 14 14 17 17 17 16 17 20 22 23 24 24 24 24 25 25 25 26 27 27 27 27 27 28 29 29 29 28 29 29 29 29 29 29 29 29 29 30 31 31 31 31 31 30
11 11 11 12 13 14 15 19 20 18 19 19 19 22 23 23 23 24 24 25 25 26 26 26 26 26 26 26 27 27 27 27 27 28 28 28 29 28 28 28 28 28 28 30 31 31 31 30 30
11 12 14 15 15 16 19 21 20 18 19 20 20 20 22 23 24 25 25 25 25 25 26 26 26 25 25 25 26 26 26 26 27 27 27 27 27 28 28 28 28 28 28 27 28 29 30 30 30
12 12 12 15 15 17 19 22 23 21 19 20 21 22 23 24 24 25 25 25 26 26 26 25 25 25 24 24 24 25 25 25 25 26 26 26 26 26 26 27 27 26 26 27 26 26 27 27 27

GEFSSGP_500_meanwind_126.txt.gz
Wind_Speed
15 15 14 12 12 12 13 14 15 15 15 15 16 17 16 17 17 16 15 14 11 9 9 8 9 9 10 10 11 11 11 10 10 10 10 10 10 10 10 10 10 10 10 9 9 9 8 7 6
15 14 13 12 11 13 14 16 17 17 16 16 18 18 19 19 19 19 17 14 12 10 9 10 10 10 11 11 12 12 12 12 11 11 11 11 11 11 11 11 11 11 11 11 10 10 9 8 8
15 14 13 11 12 15 16 17 15 15 16 18 19 20 20 20 20 20 19 17 15 12 11 11 11 11 12 13 13 13 13 13 13 12 12 12 12 12 12 12 12 12 12 12 11 11 10 9 9
14 13 12 12 15 17 18 18 16 14 17 20 20 21 21 21 21 20 18 18 16 13 12 12 12 12 13 13 14 14 14 14 14 14 14 13 13 13 13 14 14 14 14 13 13 12 12 11 10
14 13 12 13 17 18 19 19 17 16 18 20 22 22 22 21 22 22 20 18 17 15 13 13 13 13 13 14 14 15 15 15 15 15 15 15 15 15 14 15 15 15 15 15 14 14 13 13 12
13 12 12 14 18 19 20 18 16 16 19 21 23 24 24 23 22 22 22 18 16 16 15 14 14 14 14 15 15 15 15 16 16 16 16 16 16 16 16 16 16 16 16 16 15 15 15 14 13
12 11 13 16 18 20 19 16 16 18 21 24 26 27 26 24 21 21 22 19 17 17 16 16 15 15 14 15 15 16 16 16 16 16 17 17 18 18 17 17 17 18 18 18 18 17 16 16 15
13 12 15 19 21 20 16 14 17 20 23 25 27 28 27 25 23 23 22 22 19 17 16 16 15 15 15 15 16 16 16 16 17 18 18 18 19 19 19 19 19 19 19 20 20 19 18 18 17
13 14 18 21 22 19 16 15 19 22 25 27 28 29 28 26 22 22 22 22 20 18 16 17 15 15 16 17 17 17 16 17 18 18 18 19 19 20 20 21 21 21 21 21 21 21 20 19 19
14 17 20 22 21 19 17 17 20 23 25 26 26 27 27 26 24 24 24 21 19 17 16 15 15 16 17 17 17 17 17 17 17 19 19 19 20 20 21 21 21 22 22 22 23 22 22 21 21
17 19 21 22 21 20 18 19 20 22 23 23 24 26 26 26 25 25 23 20 18 16 16 15 15 16 17 17 17 16 16 17 18 19 20 21 21 21 21 21 22 21 22 23 23 23 23 23 23
20 21 21 22 22 21 20 21 22 22 23 24 24 25 25 26 25 25 22 19 18 16 16 17 16 16 17 17 16 16 16 17 18 19 20 21 21 22 22 22 22 23 23 23 23 23 22 23 24
21 22 22 22 22 23 23 24 24 24 24 24 24 24 25 23 23 22 20 16 15 15 15 15 15 16 17 17 16 16 16 17 18 19 20 21 21 22 23 23 23 23 23 23 23 22 22 23 25
21 22 21 21 22 22 24 24 24 24 24 25 24 24 23 23 21 21 20 17 16 13 13 14 15 15 15 17 17 16 16 17 18 20 21 21 22 22 22 24 24 23 23 23 23 22 22 23 24
20 20 20 20 20 20 21 22 22 23 23 24 23 23 20 19 20 19 18 16 15 14 13 13 13 14 15 16 17 16 17 17 19 20 21 22 23 23 23 23 24 23 23 23 22 23 24 23 24
18 17 17 17 19 18 18 18 19 21 21 21 21 21 21 19 18 18 17 16 14 14 13 14 15 15 16 16 17 17 18 19 20 21 22 22 23 24 24 24 25 24 23 23 23 23 24 24 24
16 14 15 16 15 15 15 15 16 17 18 18 19 20 19 17 16 16 17 14 14 14 14 15 14 16 17 17 18 19 20 21 21 22 23 23 24 24 24 25 25 25 24 24 24 24 24 25 25
14 13 12 12 12 12 13 14 14 15 15 15 17 18 18 16 15 16 16 15 14 13 14 14 15 16 17 18 19 20 21 22 23 23 23 24 25 25 25 25 25 25 25 25 25 25 26 26 25
14 12 11 10 10 11 13 14 14 14 15 16 17 16 16 16 16 15 14 13 14 14 14 15 16 17 18 19 20 21 22 23 24 24 25 25 26 26 26 26 26 26 26 26 26 26 26 26 26
13 12 10 10 10 12 13 15 16 16 16 16 16 16 15 16 15 14 15 15 14 15 16 16 17 18 20 21 21 22 23 24 25 26 26 26 27 27 27 27 27 27 27 27 27 26 26 26 26
12 12 11 10 11 14 15 16 16 17 17 17 18 17 17 15 15 15 15 15 15 16 16 18 19 20 21 22 23 24 25 25 26 26 26 27 27 27 27 27 28 28 28 28 28 27 26 26 26
14 14 13 13 14 16 16 17 17 17 17 18 19 18 18 15 15 15 14 15 16 17 18 19 20 21 22 23 24 25 26 26 26 27 26 26 26 27 27 27 27 27 28 28 28 27 27 26 27
14 16 15 15 16 17 18 19 18 17 18 19 19 18 16 15 14 15 16 16 16 18 19 20 21 22 23 24 25 26 26 27 27 27 27 26 26 26 26 26 27 27 27 27 27 26 27 27 27
16 17 16 16 17 19 18 20 20 19 19 19 19 18 15 16 16 17 17 16 17 18 19 21 22 23 24 25 25 26 26 27 27 27 27 26 26 26 26 26 26 26 26 26 26 26 26 26 26
17 16 16 17 19 19 18 20 21 19 20 21 20 19 18 18 17 17 18 18 19 20 21 22 23 24 25 25 25 26 26 26 26 26 26 26 26 26 26 25 26 25 25 25 26 25 26 26 26
17 17 17 16 17 17 17 19 19 20 19 19 20 21 21 20 19 19 19 19 20 21 22 23 24 24 24 25 25 25 26 26 26 26 26 26 26 26 26 26 26 25 25 25 25 25 26 26 26
18 19 18 18 17 18 17 18 19 19 18 19 19 20 21 20 21 20 20 20 21 22 22 23 23 24 25 25 25 26 25 25 25 25 26 26 26 26 27 26 26 26 25 25 25 25 24 25 25
17 17 17 17 16 16 17 16 17 17 19 19 19 21 21 20 20 20 21 21 21 22 22 24 24 25 25 25 25 25 25 25 25 25 26 25 26 27 27 27 26 26 25 24 24 24 24 24 24
15 17 17 17 17 17 18 17 17 18 19 20 21 22 22 20 19 19 19 20 21 22 23 24 25 25 25 25 25 25 25 25 25 24 25 25 26 26 26 26 26 25 24 24 24 24 24 24 24
15 16 16 17 17 18 18 19 19 21 20 21 21 18 18 18 19 19 19 20 21 22 23 24 24 24 24 24 24 24 24 24 24 24 24 24 24 24 24 23 24 24 23 23 23 24 23 23 23

GEFSSGP_500_meanwind_132.txt.gz
Wind_Speed
15 15 15 15 16 16 17 18 18 17 16 14 12 11 10 10 9 9 10 10 9 9 8 9 10 10 9 8 8 8 7 7 7 7 7 6 6 6 6 7 8 8 8 8 8 8 8 8 8
15 15 15 15 16 17 19 19 19 18 17 15 13 12 12 11 10 11 11 11 11 10 10 10 11 11 10 9 9 9 9 9 9 9 8 8 8 8 8 8 9 9 9 9 9 9 8 8 8
16 15 15 15 17 19 20 20 20 18 17 15 14 13 12 12 12 13 13 13 13 13 12 11 12 12 11 11 11 10 10 10 10 10 10 10 10 10 9 10 10 10 10 10 9 9 9 9 9
17 16 16 16 18 20 22 21 20 18 16 15 14 13 12 12 13 15 15 16 16 15 13 13 13 13 13 13 12 12 12 12 11 11 11 11 11 11 11 11 11 11 11 11 11 11 10 10 10
17 17 17 17 19 21 22 23 21 19 17 15 15 14 13 13 14 15 17 17 16 15 15 15 15 14 14 14 14 14 14 13 13 13 13 13 12 12 13 13 13 13 13 13 13 13 12 12 11
17 17 18 19 21 22 23 23 21 19 18 17 16 15 14 15 16 17 18 17 16 16 16 16 16 16 16 15 15 15 15 15 14 14 14 14 14 14 14 14 14 14 15 15 15 15 14 14 13
18 18 19 20 22 23 24 23 21 19 18 17 16 16 16 17 18 19 18 17 17 18 18 17 17 18 17 16 16 16 16 16 15 15 15 15 16 15 15 15 16 16 17 17 17 16 16 16 16
19 20 21 22 23 24 24 23 22 20 19 18 16 16 17 19 19 18 18 18 18 19 18 18 18 18 17 16 16 17 17 17 16 16 16 16 17 17 17 17 17 18 18 19 19 18 18 18 18
19 21 22 23 24 24 24 23 22 21 19 18 17 16 17 19 19 18 19 19 19 20 19 19 18 18 17 17 17 18 18 18 18 18 18 18 18 18 18 18 18 19 20 20 21 21 20 20 20
20 22 23 23 25 25 24 24 22 21 20 18 17 17 18 19 19 18 18 18 19 20 19 19 18 18 17 18 19 19 19 19 19 19 19 19 19 19 19 20 19 20 21 21 21 21 22 22 22
21 22 24 24 25 25 25 24 23 22 21 19 18 18 19 19 18 18 18 19 20 19 18 17 19 18 18 19 19 20 20 20 19 19 19 19 20 20 21 21 20 21 21 22 22 22 22 23 23
22 23 24 25 25 25 25 24 24 23 21 20 19 19 19 19 19 19 18 18 19 18 18 19 18 19 19 19 19 19 20 19 19 19 20 21 21 22 22 21 21 22 22 23 24 24 23 23 23
23 24 24 25 25 25 25 25 24 24 23 22 21 21 21 20 18 18 18 17 16 16 16 16 17 18 17 18 19 19 20 20 20 20 21 22 22 22 22 22 22 22 23 24 24 24 24 23 23
23 24 25 25 25 25 26 25 25 24 24 23 22 22 21 21 19 19 18 18 17 16 16 15 16 15 14 16 18 19 20 20 21 21 21 22 23 23 23 23 23 24 24 25 26 25 25 24 23
22 23 24 25 25 25 25 25 25 24 24 23 22 22 21 21 20 18 17 17 16 16 16 15 14 15 15 17 18 19 20 20 21 22 22 22 23 23 24 24 24 24 25 25 25 25 25 25 24
22 23 24 24 25 25 24 25 24 23 22 22 21 21 20 19 18 17 17 17 17 17 17 16 15 15 16 17 19 19 19 19 20 20 21 21 22 23 24 24 25 25 25 26 26 26 26 26 26
20 22 23 24 25 24 24 24 22 21 20 19 19 19 19 18 18 17 18 17 17 18 19 17 16 16 16 17 19 19 19 18 20 21 21 21 22 24 24 24 25 25 26 26 27 27 27 27 27
19 21 23 24 24 24 22 22 21 18 17 16 17 17 18 19 18 18 18 18 18 18 19 18 17 17 17 17 18 17 18 18 19 20 21 22 22 24 25 25 26 26 26 27 28 28 28 28 28
20 21 22 23 23 21 20 19 18 17 16 16 17 17 17 19 19 18 18 19 19 17 17 17 17 17 18 18 18 19 19 20 20 20 21 22 23 24 25 25 27 28 28 28 28 28 28 28 29
20 20 21 21 21 20 18 16 15 15 16 17 17 17 17 18 17 17 17 17 18 18 17 16 16 17 18 18 19 21 21 20 21 22 22 23 24 25 25 26 28 29 29 29 28 28 28 28 28
19 19 19 19 18 18 18 16 14 14 16 16 17 17 17 16 16 16 17 17 17 17 17 17 17 18 18 19 21 22 22 21 22 22 23 24 25 26 27 27 28 28 29 29 28 28 28 28 28
19 19 19 18 18 17 17 16 14 14 15 16 17 17 16 16 16 16 18 19 18 17 18 18 19 19 20 21 22 22 23 23 24 24 24 25 27 27 28 28 28 28 29 29 28 27 27 27 27
18 19 19 19 18 18 17 17 15 15 15 16 17 17 17 17 18 18 18 19 19 19 20 21 21 21 21 22 23 24 25 25 26 26 26 27 28 28 28 29 28 28 28 28 28 28 27 27 27
18 19 19 19 19 18 17 17 15 15 15 16 18 18 18 18 18 19 19 19 20 21 21 21 22 22 23 23 24 25 26 27 27 27 28 28 28 28 28 29 28 28 28 28 28 27 27 27 26
18 18 19 19 19 17 16 16 15 15 16 17 17 18 19 18 18 18 19 21 22 23 24 24 24 24 25 25 26 26 27 27 28 28 28 28 28 28 28 28 28 28 28 27 27 27 27 26 26
17 17 18 19 19 18 17 18 16 17 18 17 17 17 18 19 19 19 21 22 24 25 25 25 25 25 26 27 27 27 28 28 28 28 28 28 28 28 28 28 28 28 28 28 27 27 27 26 26
17 17 17 18 19 19 18 17 17 18 18 17 18 18 19 19 20 21 21 22 23 23 24 25 25 26 27 27 27 27 28 28 28 27 27 27 27 27 27 27 27 27 28 28 27 27 26 26 26
17 17 17 17 18 19 18 17 17 17 17 18 18 19 20 21 21 21 21 21 21 23 24 24 25 26 26 26 27 27 27 27 27 27 27 27 27 27 27 27 27 27 27 27 27 27 27 26 26
16 17 17 17 17 18 18 16 16 16 17 18 19 20 20 20 21 20 21 21 21 21 21 23 23 24 25 25 26 26 27 26 26 26 27 26 27 26 25 25 25 26 25 25 26 26 26 26 25
17 17 17 17 17 18 18 17 17 18 18 19 20 20 20 21 21 20 21 22 21 21 21 21 22 23 23 24 25 25 26 26 26 25 25 26 26 25 24 24 24 24 24 23 23 23 23 24 24

GEFSSGP_500_meanwind_138.txt.gz
Wind_Speed
14 13 13 13 13 14 15 15 14 13 11 9 8 8 7 6 5 6 6 6 5 5 4 5 5 6 6 7 8 9 9 8 7 7 6 5 4 3 3 2 2 2 2 3 3 4 4 4 4
15 15 15 15 14 14 17 16 15 13 11 10 9 9 8 7 7 7 7 7 6 6 5 6 6 7 7 8 9 9 10 10 9 8 8 7 6 5 5 4 4 3 3 4 4 4 4 4 5
17 16 16 16 16 16 18 16 14 13 12 11 10 10 9 9 8 9 8 8 7 7 7 7 8 8 9 9 10 11 11 11 11 10 9 9 8 7 7 6 5 5 5 5 5 5 5 5 5
17 17 17 17 18 19 18 16 14 13 12 11 11 11 11 10 10 10 10 9 8 7 7 7 8 9 10 11 12 12 12 12 12 11 11 10 10 9 8 8 7 7 7 7 7 7 7 7 7
18 18 18 18 19 19 18 16 14 13 12 12 12 12 12 12 12 12 12 11 11 9 8 9 10 11 12 13 14 14 14 14 14 14 13 12 12 11 10 10 9 9 9 9 9 9 9 9 8
19 19 18 19 20 19 18 16 15 14 13 13 13 13 12 12 13 13 13 13 12 11 10 10 11 12 13 15 16 16 16 16 16 16 15 14 13 13 12 12 12 11 11 11 11 10 11 11 10
19 19 20 20 20 20 19 16 16 15 14 14 14 13 13 13 14 14 14 14 13 13 13 12 13 13 15 15 16 17 17 17 17 17 16 16 15 15 14 14 14 13 13 12 12 12 12 12 12
19 20 21 21 21 20 18 16 16 16 15 14 14 15 15 15 15 15 14 14 13 13 13 13 14 14 15 16 17 18 18 17 18 18 18 17 16 16 16 16 15 15 14 14 14 14 13 13 14
18 20 22 22 21 20 18 17 17 16 15 15 15 15 16 16 16 15 14 14 14 13 14 14 14 15 16 17 18 18 19 18 19 20 19 19 19 18 17 17 16 16 16 15 15 15 15 15 15
19 20 22 21 20 19 18 18 17 16 16 16 16 15 16 16 16 16 16 15 14 14 14 13 13 15 16 16 18 18 19 20 21 21 20 20 20 19 19 18 18 17 17 16 16 16 17 17 17
20 21 20 20 19 19 18 18 17 17 17 17 17 18 17 17 16 16 16 15 15 15 14 14 14 14 16 17 18 19 20 22 22 23 22 21 21 20 20 19 19 19 19 18 18 18 18 18 18
20 20 20 19 18 19 19 18 18 18 18 18 18 19 18 18 17 18 18 17 16 16 15 14 15 15 17 19 19 21 20 22 23 23 23 22 22 22 22 22 21 21 20 19 19 19 19 20 20
19 19 19 19 19 19 19 19 19 19 19 19 19 20 19 19 19 19 18 17 16 16 16 16 16 17 18 19 21 22 23 22 23 24 23 23 23 23 23 23 22 22 21 20 20 20 20 20 21
19 18 18 19 19 19 19 19 19 20 19 20 20 20 20 21 20 20 19 19 18 17 16 16 17 18 19 20 21 22 23 24 24 23 23 23 24 24 24 23 24 23 22 21 21 21 22 22 21
18 18 19 19 20 20 20 20 20 20 20 20 20 20 21 21 21 21 20 20 19 18 17 17 17 17 18 20 21 22 23 23 24 24 24 24 24 24 25 25 25 25 24 23 23 23 23 23 23
18 18 19 20 20 20 19 20 21 20 21 21 21 21 21 22 21 21 20 20 20 20 20 19 18 19 20 21 21 21 21 22 24 25 25 25 25 25 25 26 26 26 25 25 24 24 24 24 24
18 18 20 20 20 20 19 21 21 21 21 21 21 21 22 22 21 20 20 20 20 21 21 20 20 20 22 23 23 22 22 22 23 25 25 25 25 25 26 27 27 27 26 26 26 25 26 25 25
18 18 19 19 20 20 20 20 21 21 21 21 20 20 20 20 20 20 20 20 21 21 21 20 19 19 20 21 22 23 23 23 23 23 24 24 25 26 27 27 27 27 27 26 26 26 26 27 27
18 18 18 19 19 19 19 20 20 20 20 20 19 19 19 19 19 20 21 21 21 20 21 20 19 19 19 20 20 22 23 23 22 22 23 23 24 26 27 28 27 28 28 27 27 27 27 28 27
17 17 18 18 18 18 19 19 19 18 19 19 19 19 19 19 19 19 20 21 21 20 19 19 20 19 19 20 21 21 22 23 23 24 24 25 26 26 26 27 28 27 28 27 27 27 28 28 27
16 16 17 18 17 18 18 18 18 17 17 17 17 18 18 18 18 19 19 20 20 20 20 20 20 20 20 20 20 21 22 23 24 25 25 26 26 27 27 27 27 27 27 28 28 28 28 28 28
15 16 16 17 16 16 16 15 16 16 16 16 16 17 17 17 18 18 19 19 20 19 19 20 21 21 21 21 21 22 22 23 24 25 27 27 27 27 27 27 28 28 28 29 29 30 29 29 29
16 16 16 16 16 16 15 14 15 15 16 16 16 17 17 18 18 19 19 20 20 20 20 20 21 21 21 22 23 23 24 24 25 26 27 27 27 27 28 28 29 29 30 30 30 30 30 30 29
15 15 14 14 14 15 15 14 15 15 15 16 17 17 18 19 18 19 20 21 21 21 21 21 22 22 23 24 24 25 25 26 27 27 27 27 28 28 29 29 30 30 30 30 30 30 30 30 29
14 13 13 13 14 15 16 16 16 15 16 17 17 17 18 19 19 20 20 21 22 22 23 23 24 24 24 25 25 27 27 28 28 28 28 29 29 29 29 29 29 29 29 29 29 29 29 29 29
14 14 13 13 13 14 17 17 16 16 17 17 18 18 19 19 20 21 20 21 22 23 23 24 25 25 25 26 26 27 28 28 28 29 29 28 29 29 29 28 28 29 29 29 29 28 28 29 29
14 14 14 14 14 14 16 16 16 16 17 17 17 18 19 20 20 21 22 22 22 23 24 24 25 25 25 26 26 26 27 27 27 28 28 28 28 29 28 28 28 28 29 29 30 29 29 29 29
15 15 15 14 13 14 15 16 16 16 16 17 18 18 18 19 21 22 22 23 24 24 25 25 26 26 26 26 26 26 26 26 27 27 28 28 28 28 28 29 29 29 29 29 30 29 29 29 28
15 15 15 15 15 14 15 16 17 16 15 16 17 18 20 22 23 23 23 23 23 23 24 25 25 25 26 26 26 25 26 26 26 26 27 28 29 29 29 28 28 28 28 28 28 28 28 27 27
14 15 15 15 16 15 15 17 16 16 16 17 18 19 20 21 21 21 22 23 22 23 23 24 24 25 25 25 25 25 25 25 25 25 26 26 26 26 26 26 25 26 26 25 25 24 24 24 24

GEFSSGP_500_meanwind_144.txt.gz
Wind_Speed
13 12 11 9 7 5 4 5 10 15 15 12 12 12 12 11 9 10 10 10 10 10 10 10 10 11 11 12 12 12 11 11 11 10 10 9 9 9 8 7 7 6 5 4 4 4 3 3 3
14 13 12 11 9 4 3 8 16 18 14 12 12 13 13 12 12 11 11 11 10 11 10 11 11 12 12 13 13 13 13 13 12 12 11 11 10 10 9 9 8 7 7 6 5 5 4 4 4
15 14 13 11 9 6 6 14 20 18 14 14 13 13 12 13 12 12 12 12 12 12 12 12 12 13 14 14 14 14 14 14 14 13 13 12 12 12 11 11 10 9 8 7 7 6 6 5 5
17 15 14 12 9 8 11 19 21 18 14 14 13 13 13 13 13 13 13 13 13 13 13 13 14 14 14 15 15 15 15 15 15 15 15 14 14 14 13 12 11 11 10 9 8 8 7 7 7
17 16 15 13 11 11 15 20 19 17 14 14 14 14 14 13 14 14 14 14 13 14 15 15 15 15 15 16 15 16 17 17 17 17 17 16 16 16 15 14 13 12 12 11 11 10 10 9 9
17 16 15 12 11 16 20 20 17 15 14 14 16 15 15 14 14 14 14 15 14 14 15 15 15 15 16 17 17 17 18 18 19 19 19 18 17 17 17 16 15 14 14 13 13 12 12 11 11
18 17 14 10 12 18 20 19 16 15 16 17 17 15 15 14 15 15 15 15 15 15 15 15 15 16 17 18 18 19 20 19 19 20 20 20 19 19 19 18 17 16 15 15 15 15 14 14 13
18 18 15 13 15 18 20 18 18 15 17 16 16 15 14 14 15 16 16 16 16 16 16 16 16 16 17 18 18 19 20 20 20 20 20 20 20 20 20 19 19 18 18 17 17 17 16 15 15
18 17 14 13 16 19 20 18 18 17 19 19 18 16 14 15 16 16 17 17 17 17 17 17 17 17 18 18 18 18 19 20 21 21 20 20 20 20 20 19 19 20 19 19 18 18 18 17 16
17 15 12 15 18 21 20 18 18 17 19 19 17 16 15 16 15 17 17 18 18 18 19 19 19 18 19 19 19 19 20 20 21 21 21 21 21 21 20 20 20 21 21 20 19 19 18 18 18
18 17 16 21 23 22 20 18 18 17 17 18 18 16 14 16 17 18 18 19 20 19 19 19 20 20 19 20 20 20 21 22 22 22 21 21 22 22 21 21 22 22 21 21 20 19 19 19 19
18 19 20 22 23 22 19 18 18 17 17 17 17 18 18 17 18 19 20 20 21 20 20 21 20 20 20 20 21 21 21 22 23 22 21 23 23 22 22 22 22 22 22 21 20 20 20 19 18
18 20 20 21 21 19 19 18 17 18 18 17 19 19 17 18 19 19 20 21 21 21 21 21 21 21 21 21 21 22 22 22 22 23 24 24 23 23 22 22 22 21 20 20 21 21 21 21 20
18 19 19 18 17 16 17 17 18 18 17 18 19 19 19 19 20 21 21 21 21 21 22 22 21 21 22 21 22 23 24 23 23 24 25 24 24 22 22 22 23 22 22 21 22 23 23 22 21
18 18 17 17 16 15 16 17 17 17 17 18 19 19 19 20 21 21 22 22 22 22 22 23 23 22 22 22 23 24 25 24 25 25 25 24 24 24 24 24 24 23 23 23 24 24 24 23 22
16 15 15 15 15 15 15 16 17 19 18 19 19 20 20 21 21 22 22 22 22 23 24 24 24 23 24 24 24 25 26 25 25 26 26 25 25 25 25 24 24 25 25 25 26 25 25 24 23
13 13 13 14 14 14 14 17 20 20 20 20 21 20 21 21 21 22 23 23 23 24 24 24 24 25 25 26 25 26 26 26 26 26 26 25 25 25 25 24 24 24 25 25 25 25 25 25 24
11 11 13 15 15 14 15 18 20 20 21 21 21 20 21 21 21 22 23 23 24 24 24 24 24 25 26 26 27 27 27 26 26 26 27 26 26 26 26 24 24 25 26 26 26 25 25 26 26
11 13 14 15 17 16 18 20 20 20 22 22 21 21 21 20 21 23 23 24 24 25 24 24 25 26 26 27 27 27 27 27 26 27 27 27 26 25 26 25 25 25 26 26 26 26 25 25 26
16 16 16 17 18 17 18 20 20 21 22 22 21 21 23 22 21 22 23 23 24 24 25 25 25 25 26 26 27 27 27 27 27 26 27 27 26 26 27 25 25 25 26 26 26 26 26 26 26
18 16 15 17 19 18 19 21 21 21 23 22 23 23 23 22 21 22 23 22 23 24 25 25 25 26 26 27 27 27 26 26 26 27 27 28 28 27 27 26 26 26 26 27 27 27 27 27 28
16 15 15 18 20 18 19 21 22 21 22 22 22 23 23 22 22 23 23 23 23 23 23 25 26 27 27 27 27 26 25 26 26 27 27 27 27 27 27 27 27 27 28 28 28 28 28 27 27
15 16 17 19 19 18 17 17 20 23 23 21 21 21 22 22 23 23 24 23 23 24 25 26 27 28 28 28 26 25 25 25 25 25 26 26 26 27 27 28 29 29 29 29 29 28 28 28 27
15 16 16 17 17 18 17 20 22 24 23 21 21 21 22 22 23 24 23 24 25 25 26 27 27 27 27 26 26 25 25 25 26 26 26 26 26 27 28 28 28 28 28 28 28 28 28 28 28
16 16 15 16 17 19 18 21 24 23 23 22 21 21 21 23 24 24 24 25 26 26 26 26 26 26 25 25 26 26 26 26 25 26 26 26 26 26 27 27 26 27 27 28 28 28 27 27 27
16 16 16 16 16 18 18 21 25 25 24 23 23 23 22 23 24 24 25 27 27 27 27 27 27 26 26 26 27 27 27 26 26 26 26 26 26 26 26 27 27 27 27 27 27 27 27 27 27
15 16 15 16 16 17 18 19 21 21 21 23 24 24 24 25 25 25 26 26 27 27 27 27 26 26 27 28 27 27 27 26 26 26 27 26 26 26 26 26 26 26 26 26 26 26 26 26 25
15 15 16 17 17 18 17 19 21 22 21 22 23 24 25 25 25 25 25 25 26 26 26 26 26 26 27 28 28 27 27 27 27 26 25 25 25 24 23 24 24 25 25 25 25 25 25 25 25
16 16 16 17 17 17 19 21 21 22 22 21 22 23 23 23 24 24 25 26 26 26 26 27 27 27 27 27 26 27 27 26 26 25 24 24 24 23 23 22 22 23 24 24 24 24 24 24 24
16 15 16 18 18 18 20 23 21 22 21 21 22 22 23 23 24 25 26 25 25 25 26 26 26 26 26 26 26 26 26 25 24 24 23 23 23 23 22 21 21 21 21 22 22 22 22 23 23

GEFSSGP_500_meanwind_150.txt.gz
Wind_Speed
13 12 11 10 10 10 11 11 9 8 7 7 10 13 13 11 9 8 7 7 8 8 7 7 7 7 7 8 9 10 11 11 12 12 12 12 12 12 12 12 12 12 11 10 9 8 8 7 6
14 13 13 12 11 12 13 12 10 9 9 9 12 14 13 12 11 9 8 9 9 9 8 8 8 8 8 9 10 11 12 13 13 14 14 14 14 13 13 13 13 13 12 11 10 10 9 9 8
15 14 14 13 14 15 14 12 11 12 12 12 14 14 15 13 11 10 9 9 9 9 9 9 9 10 10 10 11 12 13 14 14 15 15 15 15 15 15 15 14 14 13 13 12 12 11 11 10
17 15 15 15 16 16 16 14 13 14 14 15 15 16 15 13 11 10 9 9 9 10 10 10 10 11 12 12 12 13 13 14 15 16 17 17 17 17 17 16 15 15 15 14 14 13 13 12 12
18 17 16 16 17 17 17 16 15 16 17 18 17 17 16 13 10 10 9 10 10 10 10 11 12 12 12 13 13 14 15 15 16 17 18 18 18 18 18 18 17 17 16 16 15 15 14 14 13
19 18 18 19 19 19 18 17 17 18 18 18 18 16 16 14 12 10 10 10 10 11 11 12 12 13 13 14 15 15 16 16 17 18 19 19 19 20 20 19 19 18 18 18 17 17 16 16 15
19 19 20 21 21 20 19 18 17 19 19 18 18 18 15 12 11 10 11 11 11 11 12 12 13 13 14 15 16 16 17 17 18 19 19 20 20 20 21 20 20 20 19 19 19 18 18 17 17
19 20 21 22 22 21 20 19 19 20 20 19 18 17 16 13 12 10 11 11 11 12 13 13 14 14 15 15 16 17 18 18 19 20 20 20 21 21 22 22 21 21 21 20 20 20 19 19 19
20 21 22 23 24 23 20 21 22 21 20 19 18 17 16 14 13 10 10 11 11 12 14 15 15 15 16 16 17 18 19 19 20 20 20 21 21 22 22 22 22 22 22 22 22 21 21 20 20
22 22 24 25 25 23 21 21 22 21 20 20 17 16 15 14 13 12 12 13 13 13 15 16 16 17 17 18 18 19 19 20 20 21 21 22 22 22 22 22 23 23 23 23 22 22 21 21 21
23 25 26 27 26 24 22 22 22 22 20 19 19 18 17 15 14 14 14 15 15 16 16 17 17 18 18 18 19 19 20 20 20 21 22 22 22 23 23 23 23 23 24 23 23 23 22 22 22
25 27 27 26 25 24 23 22 23 21 20 20 19 18 17 16 15 15 15 16 16 16 17 18 17 17 18 18 18 19 19 20 20 21 22 23 23 23 24 25 24 24 24 23 23 24 23 22 22
26 27 28 27 26 25 24 24 24 23 21 20 18 17 16 15 16 16 16 17 18 18 18 18 18 18 19 19 19 20 21 21 21 22 22 23 24 24 23 24 24 24 25 25 24 24 24 23 23
27 28 28 27 25 24 24 24 24 23 22 20 17 16 16 16 16 17 18 19 18 18 19 19 19 20 20 21 21 21 22 22 22 22 23 24 25 25 25 24 23 24 24 24 23 23 23 23 23
28 28 27 25 24 23 22 21 21 20 20 19 16 16 15 16 17 18 19 18 18 19 20 20 21 21 21 22 22 23 23 23 24 24 24 25 25 25 25 25 24 23 23 23 23 24 24 23 23
27 25 25 22 21 19 19 20 19 18 18 17 17 16 16 17 17 18 19 20 20 20 21 21 22 22 23 23 23 24 24 24 25 25 25 26 26 26 25 25 24 24 23 23 23 23 24 23 23
23 22 20 18 17 17 16 17 17 17 16 16 16 16 17 18 17 18 20 20 21 21 22 22 22 23 23 24 24 25 25 26 26 27 27 27 26 27 26 25 25 24 25 24 23 23 23 24 24
19 18 17 15 15 16 15 14 15 16 16 15 16 16 17 18 18 19 20 20 21 21 22 22 23 23 23 24 25 25 26 27 27 27 28 28 28 27 28 27 26 25 25 25 25 24 24 25 24
18 18 17 15 13 14 14 14 15 16 17 17 17 18 18 18 19 19 20 20 21 21 22 23 23 23 24 24 25 25 26 27 27 28 28 28 28 28 27 27 26 25 24 24 25 25 24 25 25
18 17 16 15 15 15 15 15 16 17 18 19 18 19 18 19 19 20 20 21 22 23 23 23 23 24 24 24 24 26 26 27 28 28 28 27 27 27 27 27 27 26 25 25 26 26 25 25 25
18 17 15 15 15 16 17 17 16 16 18 19 19 18 19 21 20 20 21 21 22 23 24 24 25 25 24 24 25 26 27 28 28 28 27 27 26 27 27 27 27 27 26 26 26 26 26 26 25
18 15 15 15 15 16 17 18 17 17 18 19 20 20 20 21 21 21 21 22 23 23 24 24 25 25 25 25 25 26 27 27 27 26 26 25 25 25 26 28 28 28 27 27 27 27 27 26 25
17 16 16 16 16 17 18 19 19 20 20 21 21 21 21 21 21 21 21 22 23 24 24 25 25 26 26 26 26 26 26 27 25 25 25 26 25 26 26 26 27 27 27 27 26 27 27 27 27
17 18 18 18 18 20 19 21 21 21 21 22 23 23 23 23 23 22 21 21 23 24 25 26 26 26 26 27 27 27 27 26 25 25 25 25 25 25 25 25 25 25 25 25 25 26 27 27 27
19 20 20 20 20 21 21 23 23 22 22 22 22 22 22 23 23 22 21 21 22 24 25 25 25 25 26 27 26 26 26 26 26 26 25 25 24 24 23 23 23 22 22 23 24 24 25 26 26
20 20 20 21 21 21 22 24 23 22 22 22 22 24 24 23 23 22 22 23 24 24 24 24 24 25 26 25 26 25 25 25 25 25 24 24 23 23 23 23 22 22 22 23 23 23 23 24 25
19 20 19 20 20 21 22 22 21 21 22 23 23 24 23 22 21 21 22 24 24 24 23 23 24 25 25 24 25 25 24 24 24 23 23 23 23 23 23 22 22 22 22 22 22 22 22 23 24
19 19 20 21 21 22 22 21 21 20 22 23 22 22 22 21 21 21 23 24 22 22 22 23 24 24 24 24 24 25 24 24 23 23 23 22 23 23 23 23 23 22 22 22 22 22 22 22 22
20 20 20 21 21 21 22 20 20 21 21 21 21 21 21 21 20 21 21 21 21 21 22 23 23 23 23 23 24 24 23 23 22 22 22 22 22 22 22 22 22 22 22 21 21 21 21 20 20
19 20 19 21 20 21 21 21 19 21 20 21 21 20 19 19 19 19 20 21 21 21 22 22 22 22 22 22 22 22 21 21 22 21 22 22 22 22 21 20 20 20 20 20 20 20 20 19 19

GEFSSGP_500_meanwind_156.txt.gz
Wind_Speed
15 14 14 14 14 13 12 11 9 6 4 3 4 4 5 6 7 7 7 7 7 7 8 8 8 8 8 8 7 8 8 9 9 9 10 10 11 11 11 12 12 12 13 13 13 12 12 11 10
16 16 16 15 15 15 14 12 11 8 6 5 6 6 7 8 8 9 9 8 8 8 9 9 9 9 9 9 9 9 9 10 10 11 11 12 12 13 13 13 13 14 14 14 14 13 13 12 11
18 17 17 16 16 16 16 13 12 10 8 8 7 7 8 9 10 10 9 9 9 9 10 10 10 11 10 10 10 10 10 11 12 12 13 13 14 15 15 15 15 15 15 15 15 14 13 13 12
19 19 19 18 17 18 17 14 12 10 9 9 8 8 9 11 11 11 10 10 10 11 11 11 11 11 11 11 11 11 12 12 13 14 14 15 16 16 16 17 17 17 17 17 16 15 14 14 14
21 20 20 19 19 19 18 16 14 13 12 10 9 9 11 12 12 12 11 11 12 13 13 12 12 12 12 12 12 12 13 14 15 15 16 17 17 17 18 18 18 18 18 18 18 17 16 16 15
22 21 21 21 21 20 19 18 16 14 12 11 10 11 12 12 12 12 12 13 13 14 14 14 13 12 12 13 13 13 13 14 15 16 17 18 19 19 19 19 19 19 20 20 19 19 19 18 18
23 22 23 23 23 22 21 19 17 15 13 12 12 12 12 13 12 12 13 14 14 14 15 15 14 13 13 14 14 14 14 15 16 17 18 18 19 19 19 19 19 20 21 21 21 22 21 20 20
24 24 24 24 24 24 22 20 18 17 15 13 12 13 13 13 13 13 14 15 15 15 15 15 15 15 15 15 15 15 16 16 17 18 18 19 19 20 20 20 20 21 21 22 22 22 22 22 21
25 25 26 26 26 25 23 21 19 17 15 13 12 13 13 14 14 14 15 15 15 15 15 15 16 16 16 16 16 16 17 17 18 19 19 20 20 20 21 21 21 21 21 23 24 24 23 23 23
25 27 28 28 27 27 24 22 20 17 15 14 13 14 14 14 14 15 15 15 15 16 16 16 17 17 17 17 17 17 18 18 19 20 20 21 20 20 21 21 22 23 23 23 24 25 25 24 23
26 28 29 29 28 27 25 23 21 18 16 15 15 15 16 16 16 16 15 16 16 16 16 16 17 18 18 18 19 18 19 19 19 20 21 21 21 22 22 22 23 24 24 24 25 26 26 25 25
27 28 29 30 30 29 27 24 22 19 17 16 16 16 15 16 16 16 16 17 17 17 17 17 19 19 19 19 19 19 19 20 20 21 21 22 22 23 24 23 24 24 25 25 25 26 27 27 26
27 28 29 30 30 29 28 26 24 22 20 17 17 17 17 17 18 18 17 17 17 17 18 19 19 19 20 20 20 20 20 20 21 22 22 23 24 24 25 25 25 25 25 26 26 27 27 27 26
27 28 29 29 29 29 28 26 24 22 20 18 18 18 18 18 17 17 17 17 17 18 18 19 19 20 20 20 20 21 21 21 22 22 22 23 24 25 26 26 26 26 26 26 27 27 27 27 27
27 28 29 28 28 28 27 26 24 22 20 19 18 18 17 16 16 17 17 17 18 18 18 19 20 20 21 21 21 21 22 22 22 23 24 24 25 26 26 26 27 27 27 26 26 26 27 27 26
26 27 28 27 26 27 25 24 23 21 19 19 18 18 17 17 16 17 17 18 18 18 19 19 20 21 21 21 21 22 22 23 24 24 25 26 26 27 27 28 28 28 28 27 26 26 26 27 26
26 27 27 26 25 26 25 23 22 20 19 18 17 17 17 17 17 18 18 19 19 20 20 21 21 22 22 21 22 23 23 23 24 25 26 27 27 28 28 29 28 28 28 28 27 27 26 25 26
25 25 26 25 24 24 24 22 20 18 17 16 16 17 17 17 17 18 19 20 21 21 21 22 21 22 22 23 23 23 24 25 26 27 27 28 28 28 28 28 28 29 28 28 28 27 27 26 26
24 25 25 25 24 23 22 21 20 19 18 17 17 17 17 17 18 19 20 21 21 22 23 23 23 23 23 24 25 25 26 27 28 28 28 29 28 28 28 29 29 29 29 28 28 27 27 27 27
23 24 23 23 23 23 22 22 21 20 18 18 17 17 17 18 19 20 21 23 23 23 23 23 24 25 25 25 26 27 28 28 29 29 29 29 29 29 28 28 29 29 29 29 28 28 27 27 27
22 22 22 23 23 24 23 22 20 17 17 17 17 17 18 20 21 22 23 23 23 24 24 24 25 26 26 27 28 28 28 29 29 29 29 29 28 27 27 27 27 27 28 28 28 29 28 27 27
21 20 20 22 23 23 23 21 18 17 17 16 17 18 19 21 21 22 24 25 25 25 25 25 26 26 27 28 28 29 29 29 29 29 29 28 28 27 26 25 26 27 27 27 28 28 28 28 28
20 20 21 21 23 23 22 21 19 18 18 17 17 18 20 22 23 24 24 24 25 26 26 27 27 27 27 28 28 28 29 28 28 29 28 28 27 27 26 26 26 26 26 26 26 26 26 27 27
21 22 22 22 22 22 21 21 20 18 18 17 17 19 20 22 23 24 25 25 25 26 27 27 27 26 27 28 28 28 28 28 28 28 27 27 26 25 25 26 26 25 26 26 25 25 25 26 25
21 22 22 23 23 22 21 21 20 18 18 18 19 20 21 22 23 24 25 24 24 25 26 25 26 26 27 28 28 28 27 27 27 27 27 26 25 25 25 24 24 24 25 25 25 25 25 25 25
19 20 22 23 23 22 21 21 20 19 20 20 21 22 22 23 24 25 24 23 24 24 25 25 25 26 27 27 27 27 26 26 26 26 26 25 24 24 24 24 24 24 24 24 24 24 24 24 24
18 19 20 22 22 22 21 21 20 19 20 21 22 22 23 24 24 24 24 23 23 23 24 23 24 25 26 26 25 25 25 25 25 24 24 24 24 23 23 23 23 23 23 23 23 23 23 23 23
18 19 20 21 22 22 21 20 19 19 20 21 22 22 23 23 24 23 23 22 21 22 22 23 24 25 26 25 24 24 24 24 24 24 24 24 23 23 23 23 23 23 23 23 23 22 22 22 23
19 20 21 21 22 22 22 20 19 20 20 21 22 22 21 22 22 22 22 21 21 21 21 22 23 23 24 24 24 24 24 23 23 23 23 23 23 23 23 23 23 23 23 23 23 23 23 23 22
19 19 20 21 21 22 22 21 20 21 21 21 22 21 22 22 21 20 20 20 20 19 20 21 22 22 22 22 22 22 22 22 22 22 22 21 22 22 22 22 22 21 21 21 21 22 22 21 20

GEFSSGP_500_meanwind_162.txt.gz
Wind_Speed
16 15 14 13 12 10 10 9 8 6 5 5 4 3 3 3 3 4 4 4 5 5 5 6 5 6 7 7 8 8 8 8 8 8 8 8 8 8 8 8 8 8 8 8 8 8 8 8 8
18 17 16 15 13 12 13 11 10 8 7 6 6 5 4 4 5 5 5 5 5 6 6 7 7 7 8 9 9 10 10 10 10 10 10 9 10 10 10 10 10 10 10 10 9 9 9 9 9
19 18 18 16 15 14 15 13 11 10 9 8 8 7 6 6 6 6 6 6 6 7 8 8 8 9 10 10 11 11 11 11 11 11 11 11 11 11 12 11 11 11 11 11 11 11 11 10 10
21 20 19 18 17 18 17 14 12 11 11 10 10 9 8 6 6 6 6 7 7 8 9 9 10 10 11 11 11 12 12 12 12 12 12 12 12 13 13 13 13 12 12 12 12 12 12 12 12
22 21 20 19 19 19 17 15 14 13 12 11 10 10 9 8 8 7 7 8 8 9 9 10 11 12 12 12 12 12 12 13 13 13 13 13 13 13 14 13 13 13 13 13 13 13 14 14 13
23 22 20 20 20 19 17 16 15 15 14 13 12 11 10 9 9 9 9 9 10 10 11 11 11 12 13 13 13 13 13 13 13 14 14 14 14 15 15 14 14 14 14 14 14 14 15 15 15
24 23 22 22 21 20 19 17 17 16 15 13 12 12 11 10 10 10 10 10 10 11 12 12 12 13 13 13 13 14 14 14 14 15 15 15 16 16 16 16 15 15 15 15 15 16 16 16 16
24 24 23 23 22 22 20 19 18 18 17 15 13 12 12 11 11 11 11 11 11 11 12 13 14 14 14 13 14 14 14 14 15 16 17 17 17 17 17 17 17 17 16 16 17 17 17 17 18
24 24 24 24 24 24 22 21 19 18 18 16 14 14 13 13 12 12 11 11 12 13 13 15 14 14 14 14 14 15 15 16 16 17 18 18 18 19 18 19 19 18 18 18 18 19 19 19 19
24 25 26 26 25 24 23 22 20 19 18 17 16 15 15 14 13 13 13 13 13 14 15 15 15 15 15 15 16 16 17 17 18 18 19 19 19 20 20 20 20 20 20 20 20 21 21 21 21
25 26 26 25 25 24 23 22 21 20 20 18 18 17 17 16 14 14 15 15 15 15 16 16 17 17 17 16 17 18 19 19 19 20 20 20 20 21 21 22 22 22 22 22 22 22 22 22 22
25 25 25 26 26 25 24 23 21 21 20 19 19 18 18 17 16 16 15 16 16 16 17 17 17 18 18 18 19 19 20 21 21 21 22 22 22 22 22 23 23 23 24 24 24 24 24 24 24
23 24 25 25 26 25 24 23 21 21 20 19 19 18 19 17 17 17 17 17 16 17 17 18 18 18 19 19 20 21 22 22 22 23 23 22 23 23 24 24 24 25 25 25 25 25 25 25 24
22 22 23 24 25 25 24 23 22 21 21 20 20 19 19 17 17 17 16 17 18 19 19 19 19 20 20 20 21 21 22 23 23 23 24 23 24 25 26 26 26 26 26 26 27 26 27 26 26
20 21 22 24 24 25 23 23 23 22 21 20 20 20 19 18 17 18 19 19 19 19 20 21 21 21 21 21 22 23 23 23 24 24 25 25 26 27 27 27 27 27 27 27 28 28 27 27 26
20 20 21 22 23 24 22 22 23 22 20 20 20 20 19 18 18 19 19 20 20 20 20 21 21 22 22 22 24 24 24 24 25 26 26 26 27 28 28 28 28 28 28 28 28 28 28 27 27
19 19 20 22 22 21 21 22 22 21 20 20 19 18 18 18 18 19 19 19 20 20 21 21 22 23 24 25 25 25 25 25 26 26 26 27 28 28 28 29 29 30 29 29 29 29 28 28 28
18 18 19 20 21 20 20 21 23 22 21 20 18 18 18 19 19 19 19 20 20 22 22 22 23 25 25 26 26 26 27 29 29 28 27 28 28 29 30 31 31 31 30 30 29 29 29 29 29
18 18 18 20 19 19 19 20 19 20 20 19 19 19 20 21 20 20 20 21 22 21 22 24 24 25 26 27 27 28 29 30 30 29 28 29 29 30 31 31 32 31 31 30 30 29 29 29 29
16 16 17 18 19 18 19 19 18 19 18 18 19 20 21 20 20 21 21 22 22 22 23 24 25 25 27 28 28 29 29 30 29 29 29 29 30 30 31 31 32 31 30 29 29 30 30 29 29
15 15 15 17 17 17 18 17 17 16 17 18 19 19 19 19 20 20 20 21 22 23 24 25 26 26 28 28 28 28 29 28 28 28 29 30 30 30 30 30 30 30 29 29 29 30 30 30 30
14 16 17 17 16 16 17 15 16 16 17 18 18 18 18 19 20 21 21 22 23 24 25 26 26 26 27 27 27 27 27 27 27 28 29 29 30 30 29 29 29 28 28 28 28 28 29 29 29
14 16 16 16 16 17 17 15 15 17 17 18 18 18 18 19 21 21 22 22 23 24 25 25 25 26 26 26 26 27 28 28 28 28 29 29 28 29 29 28 28 27 27 27 27 27 27 27 28
13 14 15 15 16 16 16 16 15 17 17 17 17 18 19 20 22 22 22 23 24 24 25 25 26 26 27 27 28 28 28 28 27 27 27 27 27 27 28 27 27 27 26 26 26 26 27 26 26
13 12 12 13 14 15 16 16 16 17 16 17 18 19 19 21 22 22 22 23 23 24 24 25 25 25 26 26 27 27 27 27 27 27 26 26 26 26 27 27 26 26 26 26 26 26 26 25 26
13 13 13 14 14 15 16 17 16 17 18 19 19 19 18 19 19 21 22 22 23 23 25 25 24 24 25 25 26 26 25 25 26 26 25 25 26 26 26 26 25 25 25 25 25 24 24 24 25
14 14 14 15 14 15 16 17 18 18 18 18 18 18 18 19 19 20 21 22 23 23 24 24 24 24 24 24 24 24 24 24 24 24 24 25 25 25 24 23 23 23 24 23 23 23 23 23 24
14 15 15 15 15 16 17 17 17 17 17 17 17 18 18 18 19 20 21 22 22 22 22 23 22 22 23 23 23 23 23 23 23 23 23 23 23 23 22 22 22 22 23 22 22 21 22 22 22
15 15 15 16 16 16 17 17 18 17 16 16 16 17 18 19 19 20 21 21 21 21 21 21 21 21 22 23 22 22 22 22 22 22 22 22 23 22 21 21 21 21 21 21 21 20 20 21 20
14 14 15 16 18 18 17 17 16 16 17 17 17 17 18 18 18 19 19 19 19 19 19 20 20 21 21 21 21 22 21 21 21 21 21 21 21 21 20 20 19 19 20 20 20 19 18 19 19

GEFSSGP_500_meanwind_168.txt.gz
Wind_Speed
16 15 14 13 11 8 5 4 8 12 12 12 12 12 11 9 9 9 9 9 7 8 8 9 10 10 11 11 11 11 12 12 12 12 12 12 11 11 11 11 11 11 10 10 10 10 10 10 10
18 17 16 15 13 9 6 7 12 16 15 14 14 13 12 11 11 11 10 10 9 10 10 10 11 11 12 12 12 12 12 13 13 13 13 13 13 12 12 12 12 11 11 11 11 11 11 11 11
20 19 18 16 13 10 9 12 15 17 18 16 15 14 14 13 13 12 12 11 11 11 11 12 12 12 12 13 13 13 14 14 14 14 14 13 13 13 13 13 13 13 13 13 13 13 12 12 12
21 21 19 17 12 11 12 15 17 19 19 18 16 16 15 14 14 14 13 13 12 12 12 12 13 13 13 14 14 14 15 15 15 15 15 14 14 14 14 14 14 14 14 14 14 13 13 13 13
23 21 19 17 14 12 14 18 18 19 19 19 18 18 17 16 16 15 14 14 13 13 13 13 14 14 14 14 15 15 15 15 15 15 15 15 15 15 15 14 14 14 15 15 15 14 14 14 14
22 21 19 17 14 15 18 20 21 20 19 19 19 19 18 18 17 16 15 15 15 15 15 15 15 15 15 15 16 16 16 17 16 16 16 16 16 16 16 15 15 15 15 16 15 15 15 15 15
22 21 19 16 14 19 20 22 23 22 21 20 20 20 19 19 18 17 17 17 17 16 16 16 16 16 16 16 17 17 18 18 17 17 17 17 17 17 17 16 17 17 16 16 16 17 17 17 17
23 22 20 17 17 21 23 25 24 23 23 21 21 21 20 19 19 19 19 18 18 17 17 16 17 17 17 17 18 18 18 18 18 18 17 18 18 18 18 18 18 18 18 18 18 18 18 18 19
23 22 19 16 17 21 23 24 24 23 23 22 21 21 20 20 20 20 19 19 18 18 18 17 17 17 17 17 18 18 19 19 18 19 19 19 19 20 20 19 19 19 19 19 19 19 20 20 20
22 19 17 17 19 22 24 24 23 23 24 23 23 21 22 20 20 20 20 20 18 18 18 18 18 18 17 18 19 19 20 20 20 20 20 20 21 21 21 21 21 21 21 21 21 21 21 21 21
22 19 19 21 23 25 25 24 23 24 25 24 22 21 20 19 20 20 19 19 19 19 19 19 18 18 18 19 20 21 22 22 21 21 21 21 22 22 22 22 23 23 23 23 23 23 22 22 22
20 21 21 23 24 26 25 25 23 24 25 25 23 22 20 21 20 20 20 19 19 19 20 19 19 19 20 20 21 22 23 23 22 22 22 23 23 23 24 24 24 24 24 24 25 24 24 24 24
19 21 23 23 24 25 26 25 24 24 24 23 22 20 19 19 20 21 20 19 19 21 21 21 20 20 21 21 22 22 23 23 23 23 24 25 25 25 25 26 26 26 26 26 26 26 25 26 25
20 20 21 22 22 23 25 24 25 23 24 24 22 21 21 20 20 20 20 21 21 21 21 21 20 20 21 22 23 23 23 24 25 26 26 27 27 27 27 27 28 28 28 28 28 27 26 26 26
17 17 18 20 21 22 22 24 22 22 23 23 22 22 23 22 20 20 20 21 21 20 20 20 20 21 22 23 24 24 25 26 26 27 28 28 29 29 29 29 29 29 30 29 29 29 28 27 26
14 14 15 17 19 20 21 21 19 20 23 23 22 22 21 20 20 21 20 20 21 21 20 20 21 22 24 24 25 26 26 27 28 29 29 31 31 30 31 30 30 30 30 30 30 30 29 28 28
11 12 14 15 17 17 19 19 19 20 22 23 22 21 22 22 22 22 22 21 21 21 21 21 22 24 25 26 26 27 27 29 30 30 31 31 31 31 31 31 30 31 31 31 31 31 31 30 30
11 12 13 13 15 18 18 19 21 20 22 23 22 23 24 23 23 23 23 22 22 22 22 23 24 25 26 27 28 28 29 30 31 31 31 31 32 32 31 31 31 31 31 31 31 31 31 31 30
13 14 15 14 15 16 17 18 20 21 22 21 21 23 25 24 23 23 23 23 23 23 23 24 26 26 27 28 28 29 30 31 31 32 32 32 32 32 32 32 31 31 31 31 31 30 31 31 31
13 15 13 12 15 17 18 18 19 21 20 21 21 21 22 23 21 20 21 22 22 23 24 26 27 27 28 29 30 30 30 31 32 32 32 31 31 31 32 31 31 31 30 30 30 30 31 31 31
13 13 14 14 16 16 15 17 17 19 21 21 19 20 19 19 20 21 22 22 23 24 25 26 27 27 29 30 29 30 31 31 31 31 30 30 31 30 30 30 30 30 30 30 30 29 30 30 30
11 14 15 14 14 13 13 15 16 19 21 20 19 20 20 19 19 20 21 22 23 24 25 26 27 28 28 28 28 29 31 31 30 30 30 30 29 29 29 29 30 31 31 30 30 28 28 28 28
11 12 13 13 13 13 13 16 17 20 19 19 21 21 21 20 19 20 21 22 23 24 25 26 27 27 27 27 28 29 30 30 29 29 29 29 29 29 29 29 30 30 30 29 29 28 28 28 28
10 11 12 11 12 16 15 16 17 19 18 19 22 23 23 20 21 21 21 22 23 24 25 26 26 26 26 27 27 28 28 28 28 29 29 30 30 30 30 30 30 29 28 28 28 27 27 27 27
9 10 12 13 15 15 14 16 17 18 20 19 20 21 21 19 20 21 21 22 23 24 25 25 26 26 26 27 27 27 27 27 28 30 29 29 29 29 28 28 28 28 27 27 27 26 26 26 26
11 12 12 14 16 16 15 17 18 19 19 19 20 21 22 22 20 21 22 23 24 25 25 25 25 26 26 26 26 26 26 27 27 28 29 29 28 28 27 27 26 26 26 25 24 24 24 25 25
13 13 14 17 16 15 15 17 17 18 19 20 21 22 23 23 22 22 22 23 24 24 24 24 25 25 25 25 26 26 26 26 27 28 29 28 27 27 25 24 24 24 24 24 24 24 24 24 24
13 15 15 17 16 17 16 15 16 17 18 20 21 23 23 23 22 21 21 22 22 22 22 23 23 24 25 24 25 25 25 25 25 26 27 27 26 25 24 23 23 22 22 22 22 22 22 22 22
13 15 16 18 17 18 19 18 17 18 20 22 21 22 21 22 23 22 22 22 21 21 22 23 24 24 24 23 23 22 23 23 24 25 26 26 26 24 23 22 21 21 21 22 21 21 21 21 21
14 15 18 19 18 19 21 21 19 21 21 21 19 19 20 22 22 21 21 22 22 21 22 22 23 23 22 22 21 20 22 22 23 25 25 25 24 23 22 21 21 21 21 20 20 19 20 20 19

GEFSSGP_500_meanwind_174.txt.gz
Wind_Speed
19 18 16 15 14 13 11 10 9 10 9 8 8 9 9 8 8 8 9 8 8 9 9 9 9 10 10 11 12 12 12 12 13 14 15 15 16 16 16 16 16 15 15 15 14 14 14 14 14
21 20 19 17 16 14 13 12 11 11 11 10 10 10 12 10 10 10 10 10 9 10 10 10 11 11 12 12 13 13 13 14 14 15 16 16 16 17 16 16 16 16 16 16 16 15 15 15 15
22 21 20 19 17 16 15 14 13 13 14 12 12 13 13 13 11 12 11 11 11 11 11 11 12 13 13 14 14 14 14 15 16 16 17 17 17 17 17 17 17 17 17 17 17 16 16 16 16
23 23 22 20 19 17 17 15 13 14 16 14 13 13 14 14 14 13 13 12 12 12 12 13 14 14 14 15 15 15 15 16 17 17 17 17 17 18 18 18 18 18 18 17 17 17 17 17 17
23 23 22 20 20 19 19 17 15 16 15 16 15 14 14 14 15 14 14 14 13 14 14 15 15 15 15 15 15 15 16 17 18 18 18 18 18 18 18 18 18 18 18 18 17 17 17 18 18
23 22 22 21 21 21 20 19 17 17 19 18 17 16 15 15 15 14 15 15 15 15 15 16 16 16 16 16 16 16 17 18 19 19 19 19 18 18 19 19 19 19 19 18 18 18 18 18 19
23 22 21 21 21 22 20 19 17 16 16 18 19 18 17 18 17 16 15 15 15 16 16 17 17 17 17 17 17 18 18 19 19 19 19 19 19 18 19 19 20 20 20 19 19 19 19 19 20
23 23 22 21 21 21 21 20 19 18 18 19 21 19 18 20 18 16 16 16 16 16 17 17 17 17 18 18 18 18 18 18 19 19 19 19 19 19 19 19 20 20 20 20 20 19 20 21 21
23 23 22 23 22 21 21 20 20 20 21 22 22 21 20 20 18 17 16 15 16 17 17 18 18 18 18 18 18 18 18 18 18 19 19 19 20 20 20 21 21 21 21 21 20 20 20 21 22
23 23 23 23 23 22 21 21 21 22 22 22 21 21 21 21 20 18 16 15 15 17 18 19 18 18 17 18 18 18 18 18 18 19 20 21 22 22 22 22 22 22 22 22 22 22 22 22 23
23 22 23 24 25 24 23 22 21 23 23 22 21 21 21 21 22 19 16 14 15 17 18 17 17 17 17 18 18 18 19 19 19 20 21 21 22 22 22 23 23 23 24 24 24 23 23 23 24
23 23 24 23 24 24 23 23 23 23 24 23 21 21 21 21 20 20 19 17 17 18 18 17 17 18 18 19 18 19 19 19 20 21 21 21 21 22 23 24 25 25 25 25 25 25 25 24 25
22 22 22 22 23 22 23 24 25 24 24 24 22 22 22 21 20 18 17 17 18 17 17 17 17 18 18 19 19 19 20 20 20 21 21 22 23 23 24 24 25 26 26 27 27 26 26 26 25
20 22 21 21 21 22 22 22 23 23 23 23 23 22 22 20 20 19 18 19 19 19 18 19 19 18 18 19 19 19 20 21 22 23 23 24 25 25 25 25 26 27 28 29 28 28 28 28 27
21 21 19 19 20 20 21 20 20 21 21 22 22 22 22 21 19 19 20 20 20 19 19 18 18 18 18 19 20 21 22 23 23 24 25 25 26 26 26 27 27 28 29 29 29 29 29 28 28
20 20 18 17 18 19 20 19 18 18 19 20 21 21 21 20 20 20 20 20 20 19 18 18 18 18 19 20 20 22 23 23 24 25 26 26 27 27 27 28 28 29 30 30 30 30 29 29 28
17 17 17 17 18 18 19 18 18 18 18 19 20 21 20 20 19 19 20 19 20 19 19 18 19 19 20 21 21 22 24 24 25 25 26 26 27 28 28 28 29 30 30 30 30 30 30 29 29
15 16 17 16 17 17 17 18 18 18 18 18 19 19 18 19 18 19 19 19 20 20 20 20 20 20 20 21 22 23 24 25 26 26 26 27 28 29 28 28 28 28 28 28 29 30 30 30 29
15 16 16 16 17 17 18 17 18 18 18 17 17 18 19 19 18 19 19 20 21 21 21 19 19 20 21 21 22 24 25 26 27 27 27 27 28 29 28 28 28 29 29 28 28 28 29 30 30
14 15 14 15 17 18 19 18 18 19 19 18 17 17 17 18 19 19 20 19 19 18 18 18 18 19 21 22 23 24 25 27 28 28 28 27 27 28 28 28 30 30 29 28 29 29 29 29 30
13 14 14 14 15 16 17 17 17 18 18 18 17 16 16 16 18 18 18 19 19 18 18 19 19 20 21 22 23 25 26 27 27 28 27 27 28 28 29 29 30 30 29 29 29 29 29 29 29
12 12 13 13 14 14 16 17 16 17 18 18 16 16 16 17 17 18 18 18 19 19 21 20 20 20 21 22 24 25 25 26 27 28 29 29 29 28 29 30 30 28 28 28 28 28 28 27 27
11 12 13 14 16 15 16 17 15 16 16 16 17 17 17 17 18 19 19 18 18 19 20 20 20 20 21 23 24 25 25 26 27 28 28 28 27 28 28 29 28 28 27 27 27 26 26 26 25
11 13 15 16 17 18 16 18 16 16 16 16 16 15 15 16 17 18 18 17 19 20 20 20 20 21 22 22 23 24 25 25 26 26 26 26 27 27 27 26 26 26 25 25 25 25 24 24 24
10 12 14 15 17 17 17 18 17 17 16 16 15 14 14 16 16 18 17 19 20 20 20 20 20 21 21 22 23 24 24 24 25 25 25 25 26 26 25 24 24 24 24 23 23 22 22 23 23
10 12 14 16 16 16 16 18 18 17 16 15 13 13 14 15 17 17 17 18 19 19 19 20 20 21 22 22 23 23 23 23 23 25 25 25 25 24 23 23 24 23 23 22 22 22 22 22 22
11 12 14 16 16 16 16 17 18 18 17 16 15 15 16 17 16 17 17 18 18 17 18 19 20 20 21 21 22 22 22 23 24 25 24 24 23 22 22 23 23 23 23 22 22 21 21 21 21
13 14 15 16 17 17 16 16 16 16 17 17 16 16 16 17 18 17 17 18 18 17 17 18 19 19 20 20 20 21 21 23 24 24 23 23 23 23 23 23 23 23 22 22 21 21 20 20 21
15 16 17 18 19 19 19 17 17 17 17 16 17 17 17 18 18 17 17 18 18 17 17 18 18 19 19 20 20 20 21 23 23 23 22 22 22 22 22 22 22 22 21 21 21 20 20 20 20
16 17 18 19 19 20 22 20 18 19 18 17 17 17 17 17 17 16 16 17 17 16 16 17 17 18 19 20 20 20 22 22 23 22 22 22 22 22 22 22 21 21 21 20 20 20 20 19 18

GEFSSGP_500_meanwind_180.txt.gz
Wind_Speed
21 20 19 18 17 15 13 11 11 10 10 9 8 8 8 7 6 6 6 7 7 8 9 10 11 11 12 12 12 12 13 13 13 14 14 15 15 16 16 17 17 17 17 17 17 17 16 16 16
22 21 20 19 18 16 14 13 13 13 12 11 10 10 10 8 8 7 7 7 8 9 10 11 11 12 12 12 12 13 13 14 14 15 15 16 16 17 17 18 18 18 18 18 18 18 17 17 17
23 23 22 21 19 17 15 15 16 14 13 12 12 12 11 10 9 9 9 9 9 10 11 12 12 12 12 13 13 13 14 15 15 15 16 16 17 17 18 19 19 19 19 19 19 19 18 18 18
24 23 23 22 20 19 18 17 17 16 14 13 12 12 11 11 10 10 10 10 11 11 12 13 13 13 13 14 14 14 15 16 16 16 16 17 17 18 19 20 20 20 20 20 20 19 19 19 19
25 24 23 22 20 20 20 20 18 17 16 14 14 14 12 12 12 11 11 12 12 13 13 13 14 14 14 14 15 15 16 16 17 17 17 17 18 18 19 20 20 20 20 21 21 20 20 20 19
25 24 22 21 20 21 22 21 20 18 16 17 16 14 13 12 12 12 13 12 13 14 14 14 14 14 14 15 15 16 16 17 17 17 17 18 19 19 19 20 20 21 21 21 21 21 21 21 20
25 24 22 22 22 22 23 22 22 20 18 18 17 15 14 14 14 13 13 13 13 14 15 15 14 14 15 16 17 17 17 17 18 18 18 19 19 20 20 20 21 21 21 21 22 22 22 21 21
24 23 22 22 23 23 23 23 23 22 20 20 18 17 15 15 15 13 13 13 14 15 16 16 16 16 16 17 17 17 17 17 18 18 19 20 20 21 20 21 22 22 22 22 22 23 23 22 22
23 23 22 22 23 24 24 24 24 23 22 21 18 18 16 16 16 15 14 14 14 15 16 16 17 17 17 17 17 17 17 18 18 19 20 21 21 21 21 22 22 23 24 24 24 24 24 24 24
23 22 22 23 23 24 25 25 24 23 22 21 20 17 16 17 16 15 15 15 16 17 17 18 18 18 18 17 17 18 18 19 19 20 21 22 22 23 23 23 23 24 24 25 25 26 26 26 26
22 22 22 23 24 24 25 25 24 23 21 20 19 17 17 17 17 16 16 16 17 18 18 17 17 18 18 18 18 19 19 20 20 20 21 22 23 24 24 24 25 25 26 26 26 27 27 27 27
21 22 23 23 24 24 25 25 24 22 20 20 20 18 17 17 17 17 17 18 18 18 18 18 18 19 20 19 19 20 20 20 21 22 22 23 23 24 25 25 26 26 27 27 27 27 28 29 29
21 21 23 23 23 24 25 24 24 23 21 20 20 20 19 18 18 17 18 19 19 18 19 20 20 21 21 20 20 21 22 21 21 22 22 23 24 25 25 26 27 27 28 28 29 29 30 30 30
19 20 22 22 22 23 23 23 23 22 21 21 20 20 20 19 18 17 18 18 18 19 19 20 21 21 22 23 22 23 22 21 20 21 23 24 24 25 26 27 27 28 28 29 29 29 30 30 30
18 19 21 21 22 22 23 22 21 21 21 21 20 20 20 20 19 18 18 18 19 20 20 21 22 22 22 22 22 22 21 20 21 21 22 23 24 25 26 27 27 28 28 28 29 30 30 29 30
17 18 19 19 21 21 22 21 21 21 21 21 20 20 20 20 19 19 18 18 19 21 22 21 21 21 21 21 22 20 20 20 21 22 22 23 24 25 26 27 28 28 28 28 29 29 30 30 29
16 17 18 19 20 21 22 22 21 21 21 21 21 21 21 20 19 19 19 20 20 21 21 22 20 20 19 20 21 20 21 21 22 22 23 23 24 25 27 27 27 28 28 28 29 29 30 30 30
16 17 18 19 20 21 21 22 22 21 21 20 20 21 21 21 21 21 21 21 22 22 21 22 21 20 20 21 22 22 21 21 22 23 23 23 25 26 27 27 27 28 29 29 29 30 31 31 30
16 17 17 19 21 21 21 22 22 20 20 20 20 20 20 21 22 22 22 21 21 20 20 20 19 19 20 22 22 22 21 22 22 23 23 24 25 26 27 27 27 28 29 28 29 30 30 30 30
15 16 17 18 19 20 20 20 20 20 19 19 19 20 20 20 21 20 20 20 19 19 19 19 19 20 20 21 22 21 21 22 22 23 24 24 25 26 27 28 29 29 28 29 28 29 29 29 30
14 16 17 18 18 19 20 19 19 19 20 19 19 19 20 21 21 19 19 20 20 20 20 20 20 21 21 21 20 20 21 22 23 23 24 24 25 26 27 28 29 29 29 28 28 28 28 29 30
14 15 17 18 18 19 19 20 18 19 19 19 19 20 20 20 20 20 19 19 20 20 21 21 21 21 21 21 20 20 21 21 23 23 24 24 25 26 27 28 29 30 29 27 27 27 28 29 28
14 14 15 17 18 18 18 19 17 18 18 19 19 20 19 19 20 20 19 20 20 21 22 22 21 21 22 22 21 21 21 22 23 23 23 23 24 25 26 28 28 27 26 26 26 27 28 28 27
14 15 15 16 18 18 17 18 17 17 17 18 19 19 19 19 19 18 19 19 20 22 22 22 22 22 22 22 21 21 22 22 23 22 22 23 24 25 26 27 27 27 26 25 25 26 26 26 26
13 14 15 15 16 16 17 18 16 16 17 17 17 17 18 18 18 18 19 20 21 21 21 22 21 22 22 21 20 21 22 22 23 22 22 23 23 24 25 26 26 26 25 24 25 25 25 25 25
13 13 14 16 16 15 15 16 15 15 15 16 17 18 18 18 18 19 19 20 21 21 21 21 22 22 22 21 21 22 21 21 22 22 22 23 23 24 25 25 25 26 25 25 24 24 24 24 24
12 13 14 16 17 17 16 15 13 13 15 16 17 18 19 19 19 19 18 19 20 21 21 22 22 21 20 20 21 21 21 21 22 22 22 23 24 25 25 25 25 25 25 25 25 24 24 24 23
13 14 15 17 18 18 16 15 14 14 16 16 17 18 19 19 19 20 19 20 20 20 20 21 21 20 20 21 21 22 21 21 21 21 22 23 23 24 24 24 24 25 25 26 25 25 24 24 23
14 15 16 17 18 19 19 16 15 16 16 17 18 19 19 20 21 20 19 19 19 19 19 19 19 18 19 20 21 21 20 21 21 21 22 22 23 23 24 24 25 25 26 25 25 25 24 23 23
13 14 16 17 18 19 19 18 17 17 17 17 19 20 20 21 21 20 19 19 19 18 18 18 18 18 18 19 19 19 19 19 20 21 22 22 22 23 23 24 25 25 25 25 25 24 23 23 23

GEFSSGP_500_meanwind_186.txt.gz
Wind_Speed
19 18 17 17 16 14 13 13 13 11 11 10 9 9 8 7 6 6 6 6 6 6 6 6 6 6 6 7 8 9 9 10 10 10 10 10 11 11 10 11 11 11 12 12 12 12 12 12 12
21 20 19 18 17 15 14 15 15 13 12 11 11 10 10 9 9 8 7 7 7 7 8 8 7 7 7 8 9 9 10 11 11 11 11 11 11 11 12 12 12 13 13 13 13 13 13 13 13
21 21 21 19 18 16 16 17 15 15 13 12 12 12 12 11 10 9 8 8 8 9 9 9 9 9 9 9 10 10 11 11 12 12 12 12 12 13 13 13 13 14 14 14 14 14 14 14 14
22 21 22 20 19 19 20 18 17 16 14 13 13 12 12 12 11 10 10 9 9 10 10 10 10 10 11 11 11 11 12 12 13 13 13 13 13 13 14 14 14 15 15 15 16 16 16 15 15
22 22 22 21 20 20 20 19 18 16 15 14 13 13 13 13 12 12 12 11 11 11 12 12 12 12 12 12 12 12 13 14 14 14 14 14 15 15 15 15 16 16 16 17 17 17 17 16 16
23 22 21 20 20 20 20 19 19 18 17 16 15 15 14 13 11 12 13 13 13 13 13 13 13 13 13 13 13 14 15 15 16 16 16 16 16 16 16 17 17 18 18 18 18 18 18 18 18
22 21 20 20 20 21 21 20 20 19 18 17 16 16 15 14 14 14 14 13 13 13 13 14 14 14 14 14 14 15 16 16 17 17 17 17 17 18 18 18 19 19 20 20 20 20 19 20 20
21 21 20 20 20 21 22 21 20 20 19 18 17 17 17 16 16 15 14 13 12 13 14 14 14 15 15 15 16 16 17 17 17 18 18 18 19 19 19 20 20 21 21 21 21 21 21 21 21
21 20 20 20 20 21 22 21 20 20 19 18 18 17 17 17 17 16 16 15 15 14 15 15 15 15 15 16 17 17 18 18 18 19 19 19 19 20 20 20 21 22 22 22 22 22 22 22 22
20 19 20 21 21 21 21 20 20 20 19 19 18 18 18 18 17 17 17 16 16 16 16 16 16 16 16 16 17 18 18 18 19 20 20 20 21 21 21 22 22 22 23 22 22 23 23 24 24
19 20 20 20 20 20 20 20 20 20 20 19 19 18 18 18 17 17 17 17 17 17 17 17 17 17 16 17 18 18 18 19 20 20 21 21 23 23 23 23 23 23 24 24 24 24 24 25 25
18 18 18 19 19 20 20 20 20 20 20 19 19 19 19 19 18 18 18 17 17 17 17 18 18 18 19 19 19 19 20 20 21 21 22 23 23 24 24 24 23 24 25 25 25 26 25 26 27
16 17 17 18 19 19 20 20 20 19 19 19 19 20 20 20 19 19 19 18 19 18 18 19 19 20 20 20 20 21 21 22 22 22 23 23 24 24 24 24 24 25 26 26 26 26 26 26 27
14 15 16 17 17 19 19 19 20 19 19 19 19 19 19 19 19 19 19 19 19 19 19 20 21 22 22 22 21 22 23 22 22 23 24 24 24 24 25 25 25 25 26 26 26 26 26 26 26
12 13 15 16 17 18 19 19 20 19 19 19 19 19 19 19 19 19 19 19 19 20 20 21 22 23 23 23 22 22 23 23 24 24 24 24 24 25 25 26 26 26 27 27 26 26 26 26 26
10 12 14 16 16 17 18 18 20 20 19 19 19 19 18 19 19 19 20 20 20 20 21 22 23 23 24 23 22 23 23 23 24 24 24 24 25 26 26 26 26 26 27 27 26 26 27 27 27
9 10 13 15 16 17 18 18 19 20 18 19 19 19 19 20 20 20 20 20 19 20 22 22 23 24 24 23 22 23 23 24 24 24 23 24 25 26 26 26 26 26 27 27 26 27 27 28 28
11 11 13 14 16 17 18 18 18 18 19 19 19 18 18 20 21 20 20 20 20 20 21 23 23 23 24 23 23 24 24 25 25 24 24 25 25 26 26 26 26 26 27 26 27 28 28 28 28
11 12 14 15 16 17 18 18 18 18 18 18 19 19 19 20 21 20 20 20 21 21 22 23 23 24 24 24 24 24 25 24 25 25 24 25 26 26 26 27 27 26 26 27 27 28 29 29 28
11 12 14 15 17 16 17 17 18 18 18 18 19 18 19 19 19 19 19 20 21 22 23 23 23 24 24 25 24 24 24 25 27 26 25 25 25 26 26 26 26 26 26 27 28 28 29 29 28
12 13 14 15 15 16 17 16 16 17 18 18 18 18 18 19 19 19 19 20 21 22 23 24 24 24 24 25 24 25 26 26 25 26 25 26 25 25 25 25 26 26 26 27 28 28 29 29 28
11 13 13 14 14 14 16 14 15 16 17 17 18 18 18 18 19 19 20 21 22 23 23 24 24 24 24 25 26 26 27 27 27 27 26 26 26 26 25 25 26 26 26 27 28 28 28 27 28
11 12 13 13 13 13 14 14 14 15 16 17 17 18 18 18 18 19 20 21 22 22 23 24 24 25 25 25 26 27 27 27 28 27 26 26 26 25 25 25 25 25 26 27 27 27 26 26 26
11 11 12 11 11 11 12 12 12 14 15 16 17 17 17 18 18 18 20 21 22 22 23 24 25 25 26 26 26 27 27 27 27 27 26 26 26 25 25 26 25 25 26 26 26 26 25 25 25
9 9 9 9 9 11 12 12 13 14 15 16 16 17 17 18 18 18 19 20 22 23 24 25 25 25 26 26 26 26 27 27 28 28 26 26 26 25 24 25 25 25 25 26 26 26 25 24 25
10 9 9 10 11 11 12 13 14 15 16 16 16 16 17 18 18 19 21 21 21 22 23 24 24 25 25 25 26 26 26 27 27 26 25 25 26 25 24 24 24 24 25 24 25 24 24 24 24
11 10 10 11 11 12 12 13 14 15 15 16 16 16 17 18 19 20 21 21 21 22 22 22 23 24 25 25 25 25 26 27 26 25 25 25 25 25 24 24 24 24 24 24 24 24 24 24 24
10 10 11 11 12 12 12 13 14 14 15 16 18 17 18 18 18 19 20 20 20 21 22 22 23 23 24 24 24 24 24 25 25 24 24 24 24 24 24 24 23 23 24 24 24 24 25 24 24
10 11 11 12 12 13 14 14 16 16 17 17 18 17 17 17 18 19 19 19 20 21 22 22 22 22 23 23 23 23 24 24 23 22 23 23 24 24 24 24 23 23 24 24 24 24 25 25 25
12 12 12 13 14 13 15 16 16 15 15 16 16 16 16 17 18 18 19 19 20 21 21 22 22 22 22 23 22 22 22 22 21 21 22 22 23 24 24 24 23 23 24 23 23 24 25 24 24

GEFSSGP_500_meanwind_192.txt.gz
Wind_Speed
17 16 15 14 12 10 7 7 8 9 12 13 13 12 11 11 11 12 11 11 9 9 9 10 10 11 11 11 11 11 11 12 11 11 11 12 12 12 12 12 12 12 12 12 11 12 12 12 12
18 17 16 15 12 9 7 8 10 10 13 15 14 13 13 12 13 14 13 12 10 10 11 12 12 12 12 13 12 13 13 13 13 13 13 13 14 13 13 13 13 13 13 13 13 13 13 13 13
19 18 16 15 13 10 10 9 10 13 16 16 14 13 13 13 13 14 13 13 12 12 12 13 13 13 13 14 14 14 14 14 14 14 14 14 15 15 15 14 14 14 14 14 14 14 14 14 14
19 18 17 16 13 11 12 12 13 15 17 16 15 14 14 14 13 13 12 12 13 13 13 14 14 14 15 15 15 15 15 15 15 15 15 16 16 16 16 16 15 15 15 15 16 16 16 15 15
19 18 17 16 13 12 16 15 15 15 17 16 15 14 14 15 14 14 14 13 13 14 15 15 15 15 16 15 15 16 16 16 16 16 17 17 17 17 17 17 17 17 17 16 17 17 17 17 17
18 17 16 14 12 14 16 17 16 17 18 14 14 14 14 16 15 14 13 13 14 14 15 17 17 16 16 16 16 17 17 17 17 17 17 17 18 18 18 18 18 18 18 18 18 18 18 18 18
17 15 14 13 13 14 16 17 18 18 18 15 15 16 15 16 16 15 15 15 16 15 15 16 16 17 16 16 17 18 17 17 17 17 18 18 18 18 19 19 19 19 19 19 19 18 19 19 19
17 15 14 14 14 15 17 17 19 19 19 17 16 17 17 18 17 16 16 16 17 16 15 16 15 17 17 17 18 18 18 17 18 18 19 19 19 19 19 19 20 20 20 20 20 20 20 20 20
16 15 15 14 14 16 18 18 19 20 20 20 19 19 19 18 19 18 18 18 18 18 17 17 17 17 17 18 18 19 18 19 19 19 20 20 20 20 20 20 21 21 21 21 21 21 21 21 21
15 14 14 14 17 18 19 20 19 19 20 20 21 22 20 19 20 19 19 18 19 19 18 18 18 18 19 19 19 19 20 21 21 21 21 21 21 21 22 22 22 22 22 22 23 23 23 23 23
15 14 15 17 20 19 20 20 20 20 20 20 21 23 21 20 21 20 20 19 19 19 19 19 19 19 20 20 20 21 21 21 21 21 22 22 22 23 23 23 22 23 23 23 23 23 24 24 24
14 14 15 17 20 19 20 20 21 21 21 21 21 22 22 21 21 21 21 21 20 20 21 21 20 21 21 21 22 22 21 21 21 22 22 22 23 23 23 23 23 24 24 24 24 25 25 25 24
13 14 15 15 16 18 21 20 19 20 22 22 22 22 21 20 22 22 21 21 21 21 21 21 21 22 22 22 22 22 22 22 22 22 23 23 24 24 24 24 25 25 25 25 25 25 25 24 23
13 13 13 14 15 16 16 15 18 19 21 22 22 22 21 21 22 22 22 21 22 22 21 21 22 21 22 22 22 23 23 23 23 23 24 24 25 25 25 25 25 26 26 26 25 25 25 24 25
10 11 11 13 15 15 15 15 17 18 20 20 21 21 21 21 21 21 21 21 22 22 21 22 22 22 22 22 23 23 23 24 25 24 25 25 26 26 26 26 25 26 26 26 26 26 26 26 26
7 10 11 12 14 15 16 16 17 18 19 20 21 21 21 20 21 20 20 21 22 22 22 22 22 22 22 23 24 24 24 25 25 26 26 27 26 26 27 26 26 27 27 26 27 27 28 27 28
7 10 12 13 14 16 18 17 17 19 19 20 21 21 21 21 21 21 21 21 21 22 22 21 22 22 23 23 24 25 26 26 27 28 27 28 27 28 29 27 27 27 27 27 27 28 28 28 28
7 10 12 12 15 17 18 20 19 19 19 21 21 21 21 21 22 22 21 22 22 22 21 21 22 22 23 23 24 26 27 27 28 28 27 28 28 29 29 28 27 28 27 27 28 29 30 30 30
9 11 12 13 16 17 18 19 17 19 20 20 20 20 20 21 21 21 20 21 21 20 20 21 22 23 24 25 25 27 27 28 29 28 28 29 29 29 29 28 28 28 28 27 28 30 30 31 31
10 12 13 14 15 18 17 16 14 17 20 19 19 20 20 21 21 21 20 21 21 21 22 22 23 24 25 26 27 28 28 29 29 30 29 30 30 30 29 29 28 28 28 28 29 30 31 31 30
12 13 13 15 14 14 15 16 15 16 18 18 19 20 21 21 21 21 20 21 21 22 22 24 24 25 26 27 28 29 29 30 30 30 31 31 31 30 30 29 29 28 29 30 30 31 31 30 30
14 15 15 14 11 13 15 16 14 14 17 19 18 19 19 19 20 21 21 21 22 23 23 24 26 26 27 28 29 30 31 31 30 30 31 31 30 30 30 30 29 30 30 30 31 31 30 29 28
14 15 16 15 13 13 12 14 15 15 17 18 18 18 18 18 19 19 20 21 23 23 23 25 26 27 28 29 30 31 31 31 30 30 30 30 30 29 30 30 30 31 30 29 30 30 29 29 28
13 14 13 11 11 12 9 12 14 16 18 18 18 20 19 19 19 19 20 22 22 23 24 25 26 27 28 29 29 30 30 30 29 28 29 28 28 29 30 31 30 30 29 30 30 29 29 28 28
11 11 10 10 10 10 10 13 15 16 17 17 19 19 19 20 21 20 21 23 24 24 25 26 26 27 28 28 28 28 29 29 29 28 28 28 28 28 29 30 30 30 30 30 28 28 28 28 28
10 10 10 12 13 12 12 14 15 14 17 19 19 19 18 20 20 20 21 23 24 25 25 26 26 27 27 27 27 27 27 28 27 28 28 28 28 28 30 29 29 30 29 29 28 27 27 27 27
9 9 12 13 13 13 12 13 15 17 18 17 18 18 18 19 19 21 22 22 23 24 24 24 25 25 26 26 26 26 27 27 27 27 27 28 28 28 28 27 27 28 28 28 28 27 28 28 27
10 12 13 11 12 12 12 13 15 16 18 19 18 19 19 20 20 21 22 22 23 23 24 24 23 24 24 25 26 26 26 26 27 27 27 27 27 26 26 25 25 26 27 28 27 27 27 27 27
9 11 12 12 12 14 14 14 13 15 16 17 18 18 19 20 20 20 21 21 22 22 22 22 23 23 24 25 25 26 25 25 25 26 26 25 26 25 25 25 26 26 26 26 27 27 27 27 27
10 10 11 13 14 14 16 17 15 15 15 17 17 18 19 20 19 19 20 21 21 21 21 22 23 23 23 24 24 24 24 25 25 25 25 25 26 25 25 25 25 25 26 26 26 26 26 27 26

GEFSSGP_500_meanwind_198.txt.gz
Wind_Speed
16 16 15 14 13 11 10 9 9 8 6 7 8 9 9 9 9 9 9 9 9 8 8 8 8 8 9 9 10 10 11 11 12 12 13 13 14 15 15 14 15 15 15 16 15 15 15 15 14
17 17 16 15 14 12 11 11 10 11 9 7 8 9 10 10 10 10 10 10 10 10 10 10 10 9 10 10 10 11 12 12 13 13 14 14 15 15 15 15 15 16 16 16 16 16 16 16 16
17 17 16 15 14 12 11 12 12 13 11 8 8 10 11 12 12 11 11 10 11 10 10 11 11 11 11 11 12 12 13 13 14 14 15 15 15 16 16 16 16 16 16 16 16 16 16 16 17
17 16 15 14 12 12 12 12 12 12 11 9 8 10 11 12 12 11 11 12 12 11 12 12 13 13 13 13 13 13 14 14 15 15 15 16 16 17 17 17 17 17 17 17 17 17 17 17 17
16 16 14 13 12 12 13 13 11 10 10 11 9 11 14 15 13 13 13 13 13 12 13 14 13 13 13 14 14 14 14 14 15 16 16 17 17 17 18 18 17 17 17 17 17 17 17 17 17
17 15 15 14 13 13 14 13 11 10 10 11 12 13 15 14 14 14 14 14 13 12 13 14 13 14 14 14 14 14 14 15 15 16 17 17 17 18 17 18 17 17 17 17 17 18 18 18 18
17 16 15 15 14 13 13 13 13 13 12 13 14 14 14 14 15 15 15 14 14 14 15 14 13 14 14 14 14 15 15 16 16 17 17 17 17 17 17 17 17 17 17 18 18 19 19 18 18
16 16 15 14 14 13 14 14 15 15 14 15 15 16 15 15 16 16 16 15 14 14 15 14 14 15 15 15 15 15 16 16 17 18 18 17 18 18 18 18 18 19 19 19 19 19 19 19 19
15 14 13 13 14 14 15 16 17 15 15 15 15 16 17 16 16 17 17 17 15 15 15 16 16 16 16 16 16 17 17 17 18 19 19 18 18 18 19 19 19 20 20 20 20 19 19 20 20
14 13 12 13 15 15 15 17 17 17 15 15 16 18 18 18 17 17 18 18 17 16 16 17 16 16 16 16 17 18 18 18 18 19 19 19 18 19 19 19 20 21 21 20 20 20 20 20 20
13 13 14 15 15 14 15 16 16 17 16 16 17 18 20 20 19 19 19 18 18 18 17 16 16 17 18 18 18 18 19 19 19 19 19 19 19 19 20 20 21 21 21 21 21 21 21 21 21
13 14 15 16 16 14 15 16 16 16 18 19 19 19 21 21 21 21 22 21 20 19 18 17 18 18 19 20 19 19 20 20 19 19 20 19 19 19 20 20 21 20 20 20 21 21 21 21 22
12 14 15 16 16 15 15 15 16 16 18 19 19 21 22 22 21 22 23 23 21 20 19 18 17 18 20 20 19 20 20 19 18 19 19 19 19 20 20 21 21 22 21 21 20 20 20 21 21
10 11 14 14 14 13 14 14 15 16 17 18 19 20 21 22 21 21 22 23 22 21 20 18 18 19 21 21 20 20 20 20 20 19 19 20 21 21 22 22 22 22 22 22 22 21 21 21 22
9 10 11 13 14 13 14 15 16 16 18 18 20 21 22 22 22 21 22 22 22 21 20 19 20 21 21 20 21 21 21 21 21 21 21 22 23 23 23 23 24 23 23 22 22 22 23 23 22
7 9 11 11 12 12 14 14 14 17 19 19 20 22 22 22 21 21 22 22 22 22 21 21 22 22 22 22 22 22 22 22 22 23 23 24 25 24 25 24 24 24 24 23 24 23 24 24 23
8 8 9 10 10 11 13 14 15 17 18 19 20 21 21 21 20 19 20 20 21 22 23 22 22 22 22 22 22 22 22 23 23 24 24 25 25 25 24 24 24 24 24 25 25 24 25 24 24
7 9 10 11 11 12 14 14 14 16 17 19 21 21 19 18 18 18 18 20 20 21 22 22 22 22 22 23 23 23 23 24 24 26 26 26 26 24 24 25 25 25 25 25 25 25 25 25 25
9 10 11 11 12 14 15 15 15 15 16 17 18 19 19 19 19 18 19 20 20 19 20 21 22 22 22 22 23 23 23 24 25 27 27 27 26 25 25 26 26 25 25 26 26 25 25 26 25
10 11 12 13 13 14 14 15 14 15 16 17 17 17 17 18 17 17 19 19 19 19 18 21 22 22 22 23 23 23 25 25 26 28 29 27 26 27 27 27 27 26 26 26 27 26 26 26 25
12 13 14 15 15 15 15 14 14 14 15 15 16 16 16 15 14 16 18 17 19 20 21 20 21 22 22 23 24 25 25 26 28 28 28 29 28 28 28 27 27 27 27 26 26 25 25 26 26
11 14 15 15 15 14 13 12 11 12 14 15 16 16 16 16 16 15 17 18 19 20 20 21 21 22 23 24 24 25 26 27 28 28 27 28 29 28 27 27 27 27 27 27 27 27 26 27 27
13 14 14 14 14 13 11 12 12 13 13 14 15 15 15 15 16 16 17 18 18 19 20 21 21 21 23 25 26 26 27 27 27 27 27 27 27 27 27 27 27 28 28 28 28 28 28 28 27
13 13 13 13 12 13 13 13 13 12 13 13 13 14 14 15 15 16 17 18 18 18 20 20 20 22 24 25 25 26 27 27 27 27 27 26 27 27 27 27 27 27 27 27 27 28 28 28 28
12 13 13 13 11 12 13 14 13 12 12 12 12 13 13 13 14 16 17 17 17 18 19 21 22 23 24 25 25 26 26 27 27 26 26 26 27 27 27 27 27 26 26 26 27 27 28 27 27
12 12 13 12 12 11 12 13 13 12 12 12 12 12 11 13 14 15 16 17 18 19 20 22 23 23 23 24 25 25 25 25 25 25 25 26 26 27 27 27 26 27 27 27 27 27 28 27 26
11 11 11 12 12 12 11 11 12 11 10 10 10 11 12 13 15 15 15 17 18 19 20 21 21 21 22 23 24 23 24 24 24 25 25 25 25 25 26 26 26 26 26 27 27 26 26 26 26
10 10 11 11 12 11 11 11 10 8 9 11 10 11 12 13 13 14 15 17 17 18 18 18 19 20 21 22 23 23 23 23 24 24 24 24 24 23 24 25 25 25 25 25 25 25 26 26 25
8 9 10 11 11 12 12 11 9 9 11 10 10 11 12 12 12 14 16 16 16 17 17 18 18 18 20 20 21 21 22 23 23 23 23 23 23 23 24 24 24 24 24 24 24 25 25 24 24
9 10 10 10 10 11 12 12 10 10 11 11 11 13 14 12 13 14 15 15 15 16 17 18 17 17 18 20 21 21 21 21 21 22 22 22 23 23 23 23 22 22 23 24 24 24 24 24 24

GEFSSGP_500_meanwind_204.txt.gz
Wind_Speed
15 15 15 15 14 13 12 11 11 11 11 11 11 10 10 9 7 8 8 6 6 6 7 8 8 8 9 8 9 9 9 10 10 11 12 12 12 13 14 14 14 15 15 15 15 15 15 15 15
16 16 16 16 15 13 12 13 13 13 12 11 11 11 10 9 8 8 8 7 7 7 8 8 9 9 9 9 9 10 10 11 12 12 13 13 14 14 14 15 15 16 16 16 16 16 15 15 15
16 17 16 15 14 14 13 14 14 13 13 13 11 11 10 9 9 9 8 8 8 9 9 10 10 10 10 10 10 11 11 12 13 14 14 14 14 15 15 15 16 17 18 17 17 16 16 16 15
15 15 15 15 15 15 15 15 16 15 13 13 13 12 12 11 10 10 9 8 9 11 11 11 11 11 11 11 11 12 12 13 14 15 14 15 15 15 16 17 17 18 18 17 17 17 16 17 17
16 16 16 16 16 16 16 17 16 15 13 14 14 13 13 13 11 10 9 8 9 11 12 12 12 12 12 13 13 13 14 14 15 15 15 15 16 16 17 18 18 18 18 18 18 17 18 18 18
16 16 17 16 16 16 17 16 16 15 14 14 14 14 14 14 12 11 10 10 11 12 12 13 13 13 13 13 13 14 15 15 15 15 16 16 17 18 18 18 19 19 19 19 18 18 19 19 19
17 17 17 17 16 17 18 18 17 16 15 14 15 15 15 13 11 11 11 12 12 12 12 13 13 13 13 13 13 14 14 15 16 16 16 17 18 18 19 19 20 20 19 19 19 19 20 21 21
16 17 17 16 16 17 19 17 17 16 15 15 14 14 14 14 13 13 13 13 13 13 13 14 13 13 13 13 14 14 14 15 16 16 17 17 18 19 19 20 20 20 20 20 20 20 21 22 22
16 17 16 16 16 17 17 17 18 16 16 15 13 13 13 13 13 13 12 13 13 13 14 15 14 14 14 15 15 15 16 16 17 17 17 18 19 19 20 20 21 20 21 21 21 21 22 23 23
14 15 15 15 16 16 17 17 17 17 16 15 14 13 14 14 13 14 14 14 14 14 15 16 15 15 15 16 16 16 17 18 18 19 19 19 19 19 20 20 20 21 21 21 22 22 22 23 23
13 13 14 15 16 17 18 18 16 16 16 16 15 15 15 14 14 15 15 15 16 16 17 17 17 17 17 17 17 18 19 19 19 20 20 21 20 20 20 20 21 21 22 22 22 23 23 23 23
13 14 14 14 15 17 18 18 17 16 16 17 17 16 16 15 15 16 17 17 18 18 18 18 17 17 17 17 18 19 20 21 22 22 22 22 22 22 22 21 21 22 22 23 24 23 24 24 23
13 14 15 15 16 17 17 17 17 17 16 17 17 17 17 17 17 16 17 18 18 18 18 19 18 18 18 18 19 19 20 22 22 23 22 22 23 22 23 23 23 23 24 24 24 25 24 24 24
13 14 15 16 16 17 17 17 18 18 19 19 19 19 19 18 17 17 18 19 19 19 19 19 18 18 19 19 20 21 22 23 25 25 25 24 23 23 23 23 24 25 25 25 25 25 25 25 25
13 14 15 17 17 17 17 18 19 18 19 20 21 21 20 19 18 18 19 19 20 20 20 20 19 19 20 20 21 22 23 24 24 25 26 25 24 24 24 24 25 26 26 26 26 26 25 26 26
14 15 15 16 18 18 18 17 17 18 19 20 21 22 22 20 19 19 19 20 20 21 21 21 21 21 21 22 22 23 24 24 25 25 26 26 26 27 26 25 26 27 26 26 25 25 25 25 25
13 14 15 15 17 17 18 18 17 18 20 20 21 22 22 21 21 20 21 21 22 22 22 22 22 23 23 23 23 23 24 25 25 25 25 26 27 27 27 27 27 28 27 26 26 25 26 26 27
12 14 15 15 16 17 18 19 19 19 19 20 20 21 22 22 21 21 21 21 23 24 24 23 23 23 23 24 24 24 25 26 26 27 27 27 27 28 28 28 28 28 27 27 28 28 28 28 28
13 14 15 15 15 17 17 18 17 18 18 18 18 19 20 19 20 21 22 22 22 23 23 23 23 23 23 24 24 24 25 26 27 27 27 28 28 29 29 29 29 29 29 30 30 30 30 29 28
12 13 13 13 14 16 16 17 17 17 16 16 17 17 18 18 19 20 21 21 22 22 22 23 23 24 23 23 23 24 25 25 26 27 29 30 30 30 30 30 30 30 31 31 30 30 31 30 30
12 12 12 13 14 16 17 15 15 15 15 15 16 16 17 17 18 19 19 19 20 20 21 22 23 23 23 23 23 24 24 24 25 27 29 30 30 30 30 30 30 30 30 30 30 30 31 30 30
11 11 12 13 14 14 15 15 13 14 14 14 15 15 15 16 17 18 18 18 19 20 21 20 20 21 21 22 23 24 25 26 27 28 29 30 30 30 29 29 30 30 30 30 29 29 29 30 30
12 11 11 12 12 13 13 13 12 12 13 14 14 14 14 15 16 17 17 18 18 19 19 19 20 21 21 22 24 25 25 26 27 28 29 30 29 29 28 29 29 29 29 28 28 28 29 29 30
12 12 12 12 12 12 13 13 12 13 13 14 14 14 14 14 15 16 16 16 17 17 18 19 20 20 21 22 23 24 25 26 27 27 28 28 27 28 28 28 28 28 28 28 28 28 29 29 29
12 11 12 11 10 10 10 11 11 12 13 13 14 14 14 15 15 15 16 17 17 17 18 19 19 20 21 22 22 23 25 25 26 27 27 26 27 28 28 28 28 28 28 27 27 28 28 28 29
10 10 11 12 11 10 9 9 10 10 11 13 13 13 13 14 14 15 16 17 17 17 18 18 19 19 20 20 22 23 24 24 25 25 26 26 27 27 27 27 27 27 26 26 26 26 27 28 29
9 9 9 11 10 10 10 10 10 10 10 11 10 10 12 13 14 14 15 16 16 17 18 19 19 19 19 20 21 22 22 22 23 23 24 25 25 26 25 25 26 26 26 25 26 26 27 28 29
9 9 9 9 10 10 10 11 11 10 10 10 10 10 11 12 13 14 15 15 16 17 18 17 17 17 17 18 20 20 21 22 21 22 23 24 24 24 24 24 25 25 25 25 25 26 27 27 28
10 10 10 10 10 11 11 10 11 11 11 11 10 10 11 12 13 13 14 14 15 15 15 15 15 16 16 17 19 20 21 20 20 21 21 22 23 23 23 23 23 23 23 24 25 25 26 27 27
11 11 11 11 11 10 10 9 10 10 10 9 9 10 11 12 12 12 12 12 13 13 14 15 15 15 16 17 18 19 19 19 20 20 21 22 22 22 22 22 22 22 23 23 24 25 26 26 26

GEFSSGP_500_meanwind_210.txt.gz
Wind_Speed
13 13 13 14 13 12 12 12 13 13 12 12 12 12 11 11 10 10 9 8 8 8 7 6 7 7 6 6 6 6 6 7 7 7 7 7 7 7 8 8 8 9 9 9 9 10 10 10 10
14 14 15 14 13 13 13 13 13 13 13 12 12 12 11 11 11 11 10 9 9 9 8 7 7 6 7 7 7 7 8 8 8 8 8 8 8 8 9 9 9 10 10 11 11 12 11 11 11
14 14 15 14 15 15 15 14 14 13 13 13 12 11 12 12 12 12 11 11 10 10 9 8 8 8 8 9 9 9 9 9 9 9 9 10 9 10 10 10 10 11 11 12 12 12 13 13 13
14 15 14 14 14 16 16 15 15 14 14 13 13 12 12 12 12 12 12 12 11 11 11 10 9 9 9 9 10 10 11 10 10 10 11 11 10 11 11 12 12 12 12 13 13 13 14 14 14
15 14 14 14 15 16 16 16 16 16 15 14 13 12 12 12 12 12 12 12 12 12 11 10 9 10 10 10 11 12 12 12 12 12 12 12 12 12 12 13 13 13 14 14 14 14 14 15 15
15 15 14 15 16 17 17 17 17 17 17 16 15 14 13 12 12 12 12 12 13 12 12 11 11 11 11 11 12 12 13 13 13 13 14 13 13 13 14 14 14 14 15 15 16 16 16 15 16
15 14 15 16 17 17 17 18 18 18 18 17 16 16 15 13 13 13 12 13 13 13 13 12 12 12 12 13 13 13 13 14 14 15 15 14 14 14 15 16 15 16 16 16 17 17 17 17 17
15 14 14 15 16 17 18 18 19 19 19 19 17 16 16 14 14 14 13 13 13 14 14 14 14 12 13 14 14 14 14 14 15 15 15 15 15 16 16 16 17 18 18 18 18 18 18 18 18
14 14 14 15 15 17 18 18 19 19 19 18 18 17 17 15 15 14 13 13 13 13 14 14 13 13 14 15 15 15 15 15 15 15 16 16 16 17 17 17 19 19 19 19 19 19 19 19 18
14 14 15 15 15 16 16 17 18 18 18 18 17 17 16 15 14 14 13 13 13 14 14 14 15 15 15 15 15 16 16 16 16 17 17 17 17 18 19 19 19 20 20 20 20 20 20 19 19
14 15 15 15 15 15 15 16 17 16 17 18 17 16 15 15 15 14 14 14 15 15 15 15 15 16 16 17 17 17 17 18 18 18 18 18 19 20 21 21 21 21 22 22 22 21 21 20 20
12 14 14 15 15 15 15 16 16 17 18 17 17 17 17 16 16 16 15 16 17 17 16 16 17 17 18 18 19 19 19 19 20 20 20 20 20 21 22 23 23 22 23 23 22 22 22 22 22
12 13 13 14 14 15 16 16 16 17 17 17 18 18 17 17 17 17 17 18 18 18 18 18 18 18 19 19 20 20 20 21 21 21 21 22 22 22 23 23 23 23 23 23 23 23 23 23 23
12 13 13 13 14 14 15 16 16 16 17 18 19 19 18 17 17 18 18 19 20 20 20 20 19 19 20 21 22 23 22 22 23 22 22 23 23 24 24 24 23 24 24 24 24 24 25 25 25
11 11 11 13 13 13 13 14 15 17 17 18 19 19 20 19 19 20 20 21 21 21 21 21 21 21 22 23 24 24 24 25 24 24 24 24 24 25 25 25 25 25 25 25 26 26 26 25 26
10 10 11 13 13 12 12 14 15 16 17 18 19 20 21 21 21 22 21 22 23 23 23 23 22 23 23 24 25 25 25 26 26 25 25 25 25 27 27 27 27 27 26 26 27 27 27 27 26
11 11 13 14 14 14 14 15 15 17 18 18 20 20 20 22 22 23 23 23 23 23 24 23 23 23 23 24 24 24 25 26 26 26 26 26 26 27 28 28 27 27 27 27 27 27 27 26 26
12 12 13 14 14 15 16 14 14 16 18 19 20 20 19 20 21 22 23 22 22 23 22 23 23 23 23 23 23 23 25 26 26 25 26 27 27 27 28 27 27 27 27 27 27 27 27 28 28
11 11 12 13 14 14 15 15 15 16 16 17 18 18 18 18 18 20 21 22 23 22 22 23 22 23 23 23 24 24 25 25 26 26 26 27 27 28 28 28 28 28 28 27 27 27 28 28 29
10 11 11 12 13 13 13 14 16 16 16 16 16 16 16 17 18 18 20 20 21 22 22 21 22 22 22 22 23 23 24 25 26 26 26 27 27 28 28 28 28 28 27 27 27 28 28 28 29
9 10 12 13 13 13 13 13 14 15 16 16 15 14 14 15 16 17 18 19 20 20 21 22 22 22 22 22 22 22 23 24 25 26 26 26 27 27 27 26 26 26 26 26 27 28 29 30 30
8 10 11 11 11 11 11 11 12 13 13 13 13 14 14 14 14 15 16 17 18 18 19 20 20 21 21 22 22 22 23 24 24 25 25 25 25 26 26 26 26 26 26 27 27 29 30 30 30
7 8 8 9 9 10 10 10 10 11 11 11 12 13 13 14 14 14 15 16 17 18 18 19 20 20 20 20 21 22 23 24 24 25 25 26 25 25 26 26 27 27 27 28 29 29 29 29 29
6 6 7 8 8 8 9 8 9 11 11 11 11 11 11 12 13 14 15 16 16 17 17 18 18 19 19 20 21 22 23 24 24 24 26 26 26 26 26 26 27 27 27 28 28 28 28 28 29
5 4 5 6 6 8 9 8 10 10 10 10 10 10 10 10 11 11 12 14 15 16 16 16 17 18 19 20 21 21 22 23 24 24 25 25 25 25 25 25 26 27 27 28 27 27 27 28 29
5 4 4 5 6 7 7 7 8 9 9 10 11 10 10 10 11 11 12 13 13 15 15 15 16 17 17 19 19 20 21 22 22 23 24 24 24 24 24 26 26 26 26 26 25 26 27 28 28
7 6 5 5 6 5 5 6 8 9 9 9 9 9 9 10 10 11 11 12 13 14 14 14 15 15 16 17 18 19 20 21 21 22 22 22 23 23 24 24 25 25 25 24 25 25 26 26 27
7 7 6 5 5 5 6 7 7 9 9 8 8 9 10 10 9 10 10 12 13 13 13 13 14 15 16 16 17 18 19 20 20 20 20 21 22 22 23 23 24 23 24 24 25 25 25 25 25
8 7 7 6 5 6 6 8 9 9 8 8 8 9 10 10 10 10 11 12 13 13 13 13 14 14 15 16 17 18 18 18 19 19 20 20 21 22 22 23 23 23 23 24 24 24 24 25 25
8 8 7 7 8 7 7 9 9 9 9 9 9 10 10 9 9 10 11 12 13 13 14 14 14 14 15 15 16 16 17 17 19 20 20 21 22 22 22 22 22 22 23 23 24 23 24 25 26

GEFSSGP_500_meanwind_216.txt.gz
Wind_Speed
12 12 12 10 8 7 7 8 9 12 16 15 14 13 12 13 13 14 12 12 12 12 11 11 11 11 11 11 10 10 9 9 9 9 9 9 9 9 9 9 9 9 10 9 10 10 10 10 10
12 12 12 10 8 6 8 9 12 14 17 15 15 14 13 14 14 14 13 14 13 12 12 12 12 12 11 11 11 10 10 10 10 10 10 11 11 11 11 11 11 11 11 11 11 11 11 11 11
14 13 12 10 8 9 8 8 13 16 18 17 16 15 15 15 14 14 14 13 13 13 13 13 13 12 12 11 11 11 11 11 12 12 12 12 12 12 12 12 12 12 12 12 13 13 13 13 13
15 14 12 10 9 11 10 11 14 17 19 19 19 18 17 16 15 15 14 14 14 15 14 14 14 14 13 12 12 12 12 12 12 12 13 13 13 13 13 13 13 13 14 14 14 13 14 14 15
16 14 11 10 12 12 11 13 15 19 20 20 19 18 18 17 16 16 16 16 16 16 16 15 15 15 14 13 13 13 12 12 13 14 14 14 14 14 14 15 15 15 15 15 15 15 15 15 16
15 13 12 12 12 11 11 15 19 20 20 19 19 19 18 17 17 17 17 17 17 16 16 16 16 15 14 14 13 12 13 13 14 15 15 15 16 16 16 16 16 16 16 15 15 15 15 16 16
15 13 12 13 12 10 13 17 19 19 18 18 19 19 18 18 17 17 17 18 18 18 17 17 16 14 14 13 13 13 14 15 15 15 16 17 17 17 17 17 17 17 16 16 16 16 16 16 17
14 14 13 14 12 12 16 17 19 19 16 18 19 19 19 18 17 16 17 17 17 17 17 17 15 14 14 15 14 15 16 16 16 16 16 17 17 17 17 17 18 17 18 17 17 17 17 17 18
13 13 13 14 14 14 16 18 19 19 18 19 19 19 19 18 18 17 17 17 17 17 16 17 17 16 16 16 16 16 16 17 17 18 17 17 17 17 17 18 18 18 18 18 18 18 18 18 18
13 12 13 14 14 15 17 18 18 18 19 19 18 18 19 19 18 18 17 17 17 18 18 17 18 17 17 17 17 17 17 18 19 19 19 18 18 18 19 19 19 19 19 19 20 20 20 20 20
13 13 14 14 14 17 17 17 19 18 19 19 18 18 19 19 18 19 17 18 18 18 18 18 18 18 18 18 18 19 19 20 20 20 20 20 20 19 20 20 20 20 21 21 21 21 21 21 21
13 12 14 16 16 17 18 17 18 18 19 20 19 18 18 18 19 19 18 18 19 19 19 19 19 19 20 21 21 20 20 20 21 21 21 22 22 21 22 22 21 22 22 22 22 22 22 22 22
12 12 13 14 16 17 17 16 18 18 18 19 18 17 17 17 19 19 19 20 21 20 20 20 21 21 21 22 22 21 21 22 23 23 23 24 24 23 24 24 23 23 23 23 23 23 23 23 22
9 11 11 12 14 15 16 15 17 18 18 17 17 17 17 17 18 19 20 20 21 21 21 21 21 21 21 22 23 21 22 23 24 24 24 24 25 25 25 25 24 25 25 24 24 24 24 24 23
8 10 10 11 12 14 15 14 14 15 16 16 16 18 18 19 19 20 21 20 21 21 22 22 22 22 21 22 23 23 23 24 25 25 25 25 25 25 25 26 26 25 25 25 25 25 25 25 25
6 8 10 10 11 12 13 14 15 16 16 17 17 18 17 18 19 20 20 21 22 22 23 23 23 23 23 24 24 24 25 25 25 25 25 25 25 25 26 25 26 26 26 26 26 26 25 26 25
7 10 11 11 11 12 14 14 16 17 17 17 18 17 18 18 19 20 21 21 22 23 23 23 23 23 24 24 24 24 26 26 26 26 26 26 25 25 25 25 25 26 26 26 27 27 27 26 26
9 11 12 12 12 13 15 16 17 17 16 18 18 17 18 18 19 20 21 22 22 21 22 22 23 23 23 24 25 25 25 25 26 26 25 26 26 25 25 25 25 25 26 26 26 26 27 26 26
10 11 12 12 11 13 15 16 17 18 18 18 18 17 18 18 20 20 21 21 21 20 20 20 21 21 22 23 24 23 23 24 25 25 25 25 25 25 25 25 25 25 26 26 26 26 26 26 26
9 10 11 11 12 12 14 14 14 16 16 16 17 19 18 18 19 20 21 21 19 20 20 20 20 21 22 22 23 23 23 23 23 24 23 23 24 23 24 25 25 25 25 25 26 26 26 26 26
7 9 9 10 12 12 13 12 13 15 15 16 17 18 19 19 19 20 19 19 19 19 20 19 20 21 22 22 22 23 24 23 22 23 24 23 24 23 24 24 24 24 25 25 26 25 25 26 26
6 7 8 9 10 10 10 11 12 14 16 16 17 17 17 17 17 18 19 18 18 19 19 19 19 19 20 21 21 21 22 22 22 23 23 23 24 24 24 24 25 25 25 25 24 25 26 27 27
5 5 8 8 8 8 9 9 12 14 15 15 16 16 16 16 16 17 18 18 17 18 18 18 17 18 19 19 19 19 20 21 22 22 22 22 23 24 24 25 25 25 24 24 25 26 27 28 28
3 5 6 6 6 7 8 10 14 15 15 15 16 15 15 15 16 16 17 16 16 16 16 16 16 17 17 17 18 19 19 20 21 21 22 23 23 24 25 25 25 24 24 25 25 26 28 28 28
3 5 5 4 5 7 8 10 14 15 15 15 15 14 15 15 15 15 15 15 14 14 14 15 15 16 16 17 18 19 19 19 20 21 22 22 23 24 25 24 24 24 25 26 26 27 28 28 28
5 6 6 6 5 6 8 10 11 11 13 15 15 13 14 14 14 13 13 14 14 14 15 15 15 16 16 18 18 18 19 19 19 21 21 22 23 24 23 23 24 24 25 26 27 28 28 28 28
4 4 6 7 6 6 8 9 10 10 12 12 13 14 13 13 13 13 14 15 15 15 15 16 16 16 17 18 17 18 18 19 19 20 21 22 22 23 23 23 24 24 25 26 27 28 28 28 29
5 4 6 7 7 7 7 9 9 10 10 13 13 13 13 13 13 13 14 15 15 15 15 15 15 16 16 17 17 17 18 18 19 20 21 21 21 22 23 23 24 24 25 26 27 28 28 29 30
6 5 7 8 8 8 8 10 9 10 12 13 13 12 12 13 13 14 15 15 15 14 15 15 15 15 16 16 17 17 17 18 19 20 20 20 20 21 22 23 24 24 24 26 27 28 28 29 30
7 7 8 10 8 8 10 11 10 12 12 13 13 13 13 14 14 14 15 15 15 15 15 14 15 15 16 17 17 18 17 18 18 19 20 21 21 21 21 22 23 24 25 27 27 28 28 29 28

GEFSSGP_500_meanwind_222.txt.gz
Wind_Speed
14 13 12 11 10 9 8 8 8 9 10 10 10 11 12 12 12 10 9 9 8 8 8 7 7 7 7 8 8 9 9 9 9 10 10 10 10 11 11 12 12 12 13 13 13 13 13 14 14
15 14 14 13 11 10 8 9 10 10 10 10 12 13 14 14 13 12 11 10 9 9 8 8 8 9 9 9 10 10 10 11 11 11 11 11 11 12 12 13 13 14 14 14 14 14 14 14 15
16 15 15 14 13 11 10 10 11 11 11 11 13 14 14 15 14 13 12 12 11 11 10 9 10 11 11 11 11 11 11 11 12 12 12 12 13 13 13 13 14 15 15 15 16 16 15 15 15
17 16 16 15 12 11 11 11 12 12 13 14 14 15 15 15 15 15 13 13 13 13 12 12 12 12 12 13 13 12 12 12 12 13 13 13 13 13 14 14 15 16 16 16 17 17 16 15 15
17 17 16 14 12 11 12 13 13 14 14 14 15 16 17 17 16 15 15 14 14 13 14 13 13 12 13 14 14 13 13 12 13 13 13 13 14 14 15 16 16 17 17 17 17 17 16 16 16
17 17 16 14 13 13 14 15 15 15 14 15 16 17 18 17 17 15 15 15 14 14 15 14 14 14 14 14 14 15 14 14 14 14 14 14 15 15 16 16 17 17 17 17 17 17 17 17 16
17 17 15 14 13 14 14 15 15 15 15 16 18 19 18 17 16 15 15 16 16 16 16 16 16 15 14 15 15 16 15 15 15 15 15 15 15 16 16 17 17 17 18 18 18 18 18 18 17
18 17 16 15 15 15 14 14 14 16 16 17 18 20 21 20 17 16 15 15 16 17 18 18 16 15 16 16 16 16 15 15 15 16 16 16 17 17 17 18 17 18 18 18 18 19 19 18 18
17 17 17 16 16 16 15 15 15 17 17 17 18 19 19 19 18 17 15 15 16 15 16 17 16 16 16 16 16 16 16 16 16 16 16 17 17 17 18 18 18 18 18 19 19 19 19 19 18
18 17 16 16 16 16 17 17 17 18 17 17 18 18 18 18 18 17 16 16 17 17 16 16 15 16 16 17 16 17 17 17 17 17 17 17 18 17 18 18 18 19 19 20 20 20 20 20 19
16 16 15 16 15 17 16 16 17 18 18 18 18 18 19 18 17 17 17 16 17 17 17 16 15 15 16 17 16 17 18 18 18 18 18 19 18 18 18 19 20 20 20 20 21 21 21 21 21
14 15 16 17 16 16 15 15 16 18 18 18 18 17 17 18 18 18 17 16 16 17 18 18 18 18 18 18 18 18 19 19 19 19 19 19 19 19 19 20 20 21 21 21 21 21 22 22 21
11 12 14 16 16 15 15 15 15 17 17 18 17 17 17 18 18 18 17 17 17 18 17 18 19 19 18 18 19 20 20 20 20 20 20 19 20 20 21 21 21 21 21 22 23 23 22 22 21
10 11 13 14 14 14 14 14 15 16 17 16 16 15 16 17 17 18 18 18 18 18 18 18 18 17 18 18 19 20 21 21 21 21 21 20 21 21 21 21 22 22 22 23 24 23 23 23 23
9 9 10 12 12 13 14 13 14 15 15 15 15 15 15 16 16 17 17 18 19 18 18 18 18 19 19 19 19 20 21 22 21 21 21 21 21 22 22 22 23 23 23 24 24 24 24 24 24
8 8 8 10 10 11 14 14 15 15 16 14 14 14 14 15 16 16 17 19 19 18 18 17 18 19 19 19 20 20 20 20 21 22 22 21 22 22 23 24 24 24 25 25 25 25 25 24 24
8 9 8 9 10 13 15 15 16 17 18 16 15 14 13 14 15 16 17 18 19 20 18 17 18 18 18 18 19 19 20 20 20 22 22 22 23 23 23 24 24 25 24 25 25 25 25 25 25
7 8 9 9 10 13 15 16 17 17 19 18 16 15 14 14 15 16 17 18 18 19 19 20 19 18 18 18 18 19 19 19 20 22 21 21 22 22 23 23 23 24 24 24 25 25 25 25 26
7 8 9 10 10 12 14 16 16 16 17 16 14 15 15 15 15 16 17 18 18 18 19 19 18 18 17 17 18 18 19 20 21 21 22 22 22 22 23 22 21 22 22 24 24 24 24 24 24
7 7 7 8 9 11 12 14 15 15 14 14 14 15 15 16 16 17 17 16 17 17 18 17 15 16 17 16 17 18 19 20 21 21 21 22 21 21 22 22 21 22 23 23 24 23 23 24 24
5 6 6 6 7 9 10 11 13 13 13 13 13 13 13 14 14 14 14 14 15 16 16 15 15 15 15 16 17 18 19 20 20 21 21 21 21 20 21 20 21 22 22 22 21 21 21 22 23
4 5 5 5 6 6 7 9 9 10 11 11 12 12 12 13 13 13 13 14 15 15 14 14 14 13 14 15 16 17 18 19 19 20 20 21 20 20 21 21 21 21 21 21 22 22 21 21 22
3 4 4 5 5 5 6 7 8 9 9 10 11 12 12 13 14 13 12 14 14 14 14 14 12 12 13 15 16 17 17 18 18 18 18 19 19 20 20 21 21 21 22 22 21 21 21 21 22
3 4 4 4 5 5 6 7 7 7 9 10 11 10 11 13 14 12 12 13 13 13 14 14 14 13 13 15 16 17 17 18 17 17 17 18 19 20 20 21 21 22 21 21 20 20 21 21 22
4 4 4 5 5 5 5 7 8 9 10 10 9 8 9 12 13 13 12 12 13 13 14 15 14 14 15 16 16 17 17 17 16 17 18 18 19 20 20 20 20 20 21 21 20 20 21 23 24
4 4 6 6 5 4 6 8 9 10 10 10 9 9 10 11 12 12 12 12 12 14 14 14 14 15 15 16 16 16 15 16 16 17 18 19 19 19 19 19 19 19 20 20 19 20 21 23 24
5 5 6 6 6 6 6 7 9 10 9 9 9 9 9 9 10 10 11 10 11 12 13 13 13 14 14 15 15 15 15 16 16 17 17 17 17 17 18 18 18 18 20 21 21 20 22 23 24
5 4 4 5 7 8 8 8 10 9 9 9 9 9 9 9 9 9 10 10 11 11 11 11 12 12 13 14 15 16 16 16 16 16 16 16 17 17 16 17 17 18 20 21 21 21 22 23 25
4 4 5 6 8 8 8 8 9 9 9 9 10 10 9 9 9 9 9 11 12 11 11 11 12 13 14 15 16 16 16 16 16 15 15 16 16 16 16 17 17 19 20 21 22 22 23 24 26
5 5 6 8 9 8 8 9 9 10 10 10 11 11 10 10 10 10 11 11 12 12 12 12 13 13 14 14 15 15 15 15 14 14 14 14 15 16 17 18 18 19 20 21 22 23 24 26 27

GEFSSGP_500_meanwind_228.txt.gz
Wind_Speed
14 14 14 14 14 13 12 12 11 10 10 10 9 8 8 7 7 7 7 7 7 7 7 8 8 7 7 7 7 7 7 7 8 8 9 9 9 9 10 10 11 11 12 12 12 13 13 13 13
16 15 15 15 14 13 13 13 12 11 10 10 9 8 8 8 8 8 8 8 8 8 7 7 8 8 8 9 9 9 9 9 9 10 10 10 10 10 11 12 12 13 13 13 13 13 13 14 13
17 17 17 16 15 14 14 14 13 12 12 11 11 10 10 10 9 9 9 9 10 9 8 8 9 9 10 10 10 10 10 10 10 11 11 11 11 11 12 13 14 14 14 14 14 14 13 14 13
19 18 18 17 16 15 15 14 14 14 13 13 13 12 11 10 10 10 10 10 10 10 10 10 11 11 11 11 12 12 11 11 11 11 12 12 12 12 13 14 15 15 15 15 15 15 15 15 15
20 20 19 17 17 16 16 16 15 15 14 14 15 14 12 12 12 11 11 10 11 11 11 11 12 12 12 12 12 13 13 13 13 13 13 13 13 14 14 15 16 16 16 16 16 16 16 16 16
20 20 19 17 17 17 17 17 17 16 16 15 15 15 15 14 13 12 12 12 11 11 11 12 12 13 12 12 13 13 13 14 14 13 13 14 14 15 15 16 16 16 17 17 17 17 17 17 16
19 19 18 17 17 17 17 17 18 17 17 17 16 16 16 15 14 14 14 14 13 12 12 12 13 13 14 14 14 14 14 14 14 14 14 14 14 14 15 16 17 18 18 18 18 18 18 17 17
18 18 18 17 17 18 18 18 19 19 19 18 18 17 16 16 14 14 14 14 13 13 13 13 14 15 15 15 15 15 15 15 15 15 15 15 15 16 17 18 18 18 18 18 18 19 19 19 19
18 18 17 17 17 18 19 19 20 20 20 19 18 17 16 15 14 13 14 14 14 14 14 14 15 15 16 15 16 16 16 16 16 16 16 17 17 17 18 18 19 19 19 19 19 19 19 19 20
17 17 17 17 19 18 18 20 20 20 20 19 18 17 16 15 14 14 14 14 15 15 15 15 16 16 16 17 17 18 17 17 17 18 18 18 19 19 19 20 20 21 21 21 21 20 20 20 21
16 17 16 17 18 18 19 19 20 20 19 18 18 18 17 16 15 15 15 15 15 15 16 16 16 16 16 16 16 17 17 18 18 19 19 20 21 20 20 20 21 22 22 22 22 22 21 21 21
16 16 16 17 18 18 18 18 19 19 19 19 19 18 17 17 17 17 16 15 15 15 15 15 16 16 16 16 15 16 17 18 18 19 19 20 20 21 22 22 22 22 22 23 23 23 23 23 23
15 15 16 17 18 19 18 18 19 19 20 20 20 19 17 17 18 17 17 16 15 15 15 16 16 17 17 18 17 16 17 18 19 19 19 20 20 22 23 23 23 23 22 23 24 24 24 24 25
13 14 15 16 17 18 19 19 19 19 20 20 20 20 18 18 18 17 17 17 16 16 16 16 18 18 18 19 18 17 19 19 18 19 20 21 22 23 22 23 23 23 23 23 24 24 25 25 25
11 12 14 15 16 17 17 17 18 19 20 20 20 19 19 19 18 17 17 16 15 15 16 17 17 18 18 19 19 19 19 19 19 20 20 21 22 23 23 23 23 23 23 24 24 25 25 26 26
10 11 12 13 14 15 16 17 18 19 19 19 19 19 18 17 17 17 17 15 15 16 16 17 16 17 17 19 20 20 20 20 20 20 20 20 21 22 22 22 22 22 22 24 24 25 26 26 26
9 10 10 11 13 13 15 16 17 19 20 19 18 18 17 16 16 16 16 16 16 16 17 17 17 17 18 19 19 20 20 20 20 20 20 20 21 22 22 22 23 24 24 24 25 25 25 26 26
9 9 9 10 12 13 15 15 16 17 19 18 17 17 17 16 16 16 17 17 17 16 16 17 18 19 19 19 19 20 20 20 20 21 21 21 22 23 23 23 24 24 23 24 24 24 25 25 25
8 9 9 9 11 13 15 15 15 16 17 17 18 17 17 17 17 16 17 17 16 16 16 17 17 17 18 18 18 19 19 19 21 22 22 22 22 23 23 23 24 24 24 24 24 24 25 25 25
8 8 8 9 10 13 14 14 15 16 17 17 18 18 18 18 17 17 17 16 17 16 17 17 17 16 17 17 18 19 19 19 20 21 22 22 22 23 23 23 23 23 24 24 24 25 25 24 24
7 8 8 9 10 12 13 14 15 16 16 17 17 18 18 18 18 18 17 17 17 16 16 16 15 15 15 16 16 17 17 18 19 20 21 22 22 22 23 23 24 23 23 23 24 24 24 24 24
7 8 8 9 10 10 11 13 13 14 14 15 15 15 16 16 17 17 16 15 15 16 15 16 15 15 15 15 16 18 17 18 19 20 20 21 21 21 22 23 23 23 23 23 23 24 25 25 24
6 6 7 8 10 10 11 13 12 13 13 14 14 13 13 14 14 14 14 14 14 14 14 14 14 14 15 15 16 16 16 17 18 19 19 20 20 20 21 22 22 22 22 22 22 22 23 23 24
5 6 6 7 9 9 10 11 12 12 12 12 12 12 12 12 13 12 12 12 13 12 12 13 13 13 14 15 15 16 16 17 17 18 19 20 20 21 20 20 21 22 22 22 22 22 22 22 23
5 5 6 6 6 8 9 10 11 10 10 10 11 10 9 10 12 12 11 12 12 12 12 12 12 12 13 14 14 15 16 16 17 17 18 18 19 20 20 20 21 21 22 22 22 22 23 23 24
5 5 6 7 7 7 8 9 10 10 9 9 9 8 8 9 9 9 10 11 10 9 10 11 11 12 12 13 14 15 16 16 16 16 16 17 18 19 19 19 20 20 20 20 22 22 24 24 25
5 6 6 7 8 8 8 8 8 9 8 9 9 7 8 8 9 9 9 9 9 8 9 11 11 12 13 13 14 14 15 15 15 15 16 16 16 17 17 18 19 19 19 20 21 23 23 24 24
6 6 7 7 8 8 8 8 9 9 9 9 9 9 9 9 9 8 8 8 8 8 9 10 11 11 12 13 13 14 14 15 16 15 15 15 16 17 17 18 19 20 19 19 20 21 22 23 24
7 7 8 8 9 10 10 9 10 11 11 9 9 9 9 8 8 8 8 7 8 8 9 9 10 10 11 11 12 13 13 14 14 15 16 16 16 17 17 17 18 19 19 20 20 21 22 23 24
8 8 9 10 10 11 11 11 11 11 11 9 9 9 9 8 8 8 8 8 9 9 8 9 10 10 10 11 11 12 13 13 14 15 16 16 16 17 17 17 18 19 19 20 21 22 23 24 24

GEFSSGP_500_meanwind_234.txt.gz
Wind_Speed
10 10 10 10 10 10 12 12 12 11 11 9 9 8 8 8 8 8 7 7 7 6 6 5 5 5 5 6 6 6 6 6 6 6 7 7 7 7 6 7 7 7 7 7 7 7 8 8 8
12 12 12 12 11 12 13 14 13 13 12 10 9 9 9 9 9 9 8 8 8 7 6 6 5 5 6 6 7 7 7 7 7 7 8 8 8 7 7 7 8 8 8 8 9 9 9 9 9
14 14 14 13 13 14 15 15 15 13 12 11 11 10 10 10 9 10 9 9 8 8 7 6 6 6 7 7 7 8 9 9 9 9 8 8 8 8 8 8 9 9 10 9 9 10 10 10 10
15 15 15 15 16 17 17 16 15 13 13 13 12 11 10 10 10 10 9 9 8 8 8 8 7 8 8 8 9 9 10 10 10 10 10 10 10 10 10 10 11 11 11 10 10 11 11 11 11
16 16 16 16 17 18 18 17 16 14 14 14 13 12 12 11 11 10 10 10 10 9 9 8 8 8 9 9 10 11 11 11 11 11 11 11 10 10 11 11 11 11 12 12 12 12 12 12 13
16 17 17 17 18 18 17 17 16 15 15 14 14 13 13 13 13 12 11 11 11 11 11 10 11 11 11 11 11 12 12 12 12 12 12 12 12 12 13 13 13 13 13 14 14 13 13 13 14
16 16 17 18 18 17 17 17 17 16 16 15 14 14 14 14 14 13 12 12 12 12 12 12 12 12 12 12 12 12 12 13 13 13 13 13 13 13 14 14 14 15 15 15 15 15 14 14 14
14 15 17 17 16 17 17 17 17 17 17 16 16 16 16 15 14 14 14 13 13 13 13 13 12 13 13 14 14 14 13 13 13 14 15 15 14 14 15 16 16 16 17 16 17 16 16 15 15
12 14 15 16 16 17 18 18 17 17 17 17 17 17 17 16 15 15 15 15 15 14 13 13 13 14 14 14 14 14 14 14 15 15 15 16 16 16 17 17 17 17 18 17 17 17 17 17 17
12 13 15 15 16 16 17 18 17 17 18 18 18 18 18 17 16 16 15 15 15 15 15 15 14 14 14 14 15 15 15 15 16 16 17 18 18 18 19 18 18 18 19 18 18 18 18 18 18
12 13 14 15 16 16 16 17 18 18 18 18 18 18 18 18 18 17 16 16 16 16 16 16 16 15 15 15 16 17 17 17 17 18 18 18 19 19 19 20 20 19 19 20 20 19 19 19 19
13 13 14 14 15 16 16 17 18 18 18 19 19 19 19 18 19 18 17 17 17 17 17 17 17 16 17 17 17 17 18 18 18 19 19 20 20 21 21 21 21 20 20 20 20 20 20 20 20
12 13 13 14 15 16 16 17 18 18 19 19 20 20 20 19 18 18 18 18 17 17 18 18 17 17 17 17 17 17 18 18 19 20 20 22 22 22 22 21 21 21 21 21 22 21 20 21 21
12 12 13 14 14 16 17 17 17 17 18 18 19 19 20 19 18 17 18 18 18 18 18 18 17 17 16 16 16 17 18 18 20 20 20 21 22 21 21 21 21 21 21 21 21 21 22 22 21
12 12 12 13 14 15 16 16 17 17 18 18 18 18 18 18 17 17 18 18 18 18 18 17 17 16 16 16 17 18 18 19 19 20 20 21 21 22 22 22 22 22 21 21 22 22 23 23 23
10 10 11 12 14 14 15 15 16 17 17 18 18 18 19 19 19 18 17 17 17 18 18 18 18 17 17 17 18 18 19 20 20 21 21 22 22 22 22 22 22 23 22 22 22 23 23 23 23
8 9 10 11 13 13 14 15 16 17 18 18 19 18 17 18 18 18 17 17 17 18 18 18 18 19 18 18 18 19 20 21 21 21 21 22 22 22 22 22 23 23 23 23 23 23 23 23 23
8 8 9 10 11 12 13 14 15 15 16 17 17 17 17 18 19 18 18 17 17 18 19 18 18 19 19 19 18 19 20 21 20 21 22 21 21 22 22 22 23 23 23 23 23 23 23 23 23
7 7 8 9 10 11 11 12 13 13 15 16 16 17 17 18 19 19 19 18 18 18 19 19 19 20 20 19 19 19 20 20 20 21 21 21 21 21 22 22 22 22 23 22 22 22 22 22 22
6 7 8 9 10 11 11 12 13 13 13 14 15 16 18 18 19 19 19 19 18 19 19 20 20 19 19 20 19 19 19 19 19 21 20 20 21 21 21 22 21 21 22 22 21 21 21 21 22
6 6 7 9 10 10 10 10 11 12 13 13 14 15 16 18 19 18 18 18 18 19 19 19 19 19 19 19 19 19 18 18 18 18 18 20 20 20 20 20 21 21 22 22 21 21 21 22 22
5 6 6 7 8 9 9 9 11 11 12 13 14 14 14 15 17 17 16 16 17 17 18 18 18 17 17 17 18 18 18 18 18 18 18 18 19 20 20 20 20 21 22 22 22 21 22 22 22
5 5 5 6 7 8 8 8 10 10 10 11 12 13 13 13 14 15 15 14 15 16 16 16 16 15 15 15 16 17 17 17 17 17 17 18 19 20 20 21 21 21 21 20 20 21 22 22 22
5 5 5 5 6 7 8 8 9 10 10 10 10 11 11 12 13 14 14 14 14 14 14 14 14 14 14 15 15 15 16 16 17 17 18 19 20 20 20 20 20 19 19 18 18 19 20 21 22
4 4 4 4 5 7 9 9 10 10 10 10 10 11 10 10 11 12 12 13 13 13 13 13 14 14 14 14 15 16 16 17 17 19 19 20 20 19 18 18 18 19 19 19 19 20 21 23 24
4 4 4 5 6 7 9 9 10 10 10 10 10 9 10 10 10 10 11 12 12 13 13 13 13 13 14 14 15 16 17 17 18 19 19 18 17 16 16 17 19 19 20 20 21 22 23 24 24
4 4 5 6 7 7 8 10 10 10 10 9 9 9 9 9 9 9 9 10 11 13 14 14 13 13 14 14 15 16 17 18 18 17 17 16 16 16 17 18 19 19 20 20 21 22 23 24 23
4 5 5 6 7 7 8 9 9 9 9 9 8 9 9 8 8 8 9 10 11 12 13 13 13 13 14 15 15 16 17 17 17 16 15 14 15 16 17 18 19 20 20 21 22 23 23 23 24
6 6 6 6 7 7 8 9 10 10 9 9 8 8 8 7 7 8 9 9 10 11 12 12 14 15 15 16 15 15 16 16 15 14 14 15 16 17 18 18 18 19 20 20 20 22 23 23 24
7 7 7 8 9 9 9 11 10 10 9 8 7 7 7 7 7 8 8 9 10 11 12 12 12 13 13 13 14 15 15 15 14 14 15 16 17 17 17 17 17 18 19 20 20 21 22 23 24

GEFSSGP_500_meanwind_240.txt.gz
Wind_Speed
8 8 8 8 7 5 3 5 8 12 15 14 14 13 12 13 14 13 13 13 12 10 9 9 10 9 9 9 9 9 9 9 9 9 9 9 9 9 9 9 9 9 9 9 9 9 9 9 9
9 9 9 8 7 5 5 9 13 17 17 15 14 13 13 15 15 14 13 13 12 11 10 10 10 11 10 10 10 10 10 10 10 10 10 10 10 10 10 10 9 10 10 10 10 10 10 10 10
10 10 11 9 7 7 8 12 16 17 17 16 15 14 14 16 14 14 14 13 12 11 11 11 11 11 12 12 11 10 10 10 10 11 11 11 11 11 11 11 10 10 10 10 10 10 10 10 11
11 11 11 11 10 11 11 13 16 17 17 16 15 14 15 16 15 15 15 14 13 12 12 12 12 12 12 11 10 10 10 11 11 11 11 11 11 11 11 12 12 11 12 12 11 11 11 11 11
11 11 11 11 11 14 15 17 17 18 18 16 16 15 16 16 16 15 15 15 14 13 12 12 12 12 12 12 11 11 11 12 12 12 12 12 12 12 13 13 13 13 13 12 12 12 13 13 13
11 10 10 11 13 15 16 18 19 17 16 17 16 17 17 17 16 14 15 15 14 13 12 12 13 13 13 13 13 12 12 12 13 13 14 14 14 13 13 13 14 14 14 14 13 14 14 14 14
10 10 10 10 12 15 16 18 19 18 18 17 18 18 17 17 15 14 15 15 14 15 13 12 13 14 14 14 14 14 13 14 14 14 15 15 15 14 14 15 15 15 15 14 15 15 15 15 15
9 9 10 10 12 14 17 19 19 18 19 18 18 17 17 18 17 16 16 16 16 16 15 14 14 15 15 16 15 15 15 15 15 15 16 16 16 15 16 16 16 16 16 16 16 16 16 16 16
9 10 10 11 13 15 18 18 19 20 20 18 18 18 18 18 18 18 18 17 17 17 18 17 16 16 17 16 17 16 16 16 16 16 16 16 16 17 17 16 16 17 18 17 17 17 17 17 17
9 10 11 14 15 17 19 18 18 18 19 19 19 18 18 19 19 19 19 19 18 18 19 19 18 18 18 17 17 17 17 17 18 17 17 17 17 18 18 18 18 18 19 19 19 18 18 19 18
11 13 14 16 18 19 19 19 19 18 18 19 18 17 19 19 19 19 20 20 19 19 19 20 18 18 18 18 17 18 18 18 18 18 18 18 18 18 18 18 18 19 20 20 20 20 20 20 20
12 14 15 16 17 18 17 18 18 18 17 18 17 17 19 20 20 20 20 20 21 20 19 18 19 19 18 18 17 17 17 17 17 18 18 18 18 18 19 19 19 19 20 20 21 22 22 21 21
12 15 15 16 16 17 17 17 17 17 17 18 18 19 20 20 20 20 20 21 21 20 19 19 19 20 19 19 19 18 18 18 18 18 19 19 19 19 19 20 20 20 21 20 21 22 22 21 22
12 13 14 14 15 15 16 16 17 17 18 19 20 20 19 20 19 20 20 20 21 20 19 19 19 19 19 19 19 19 19 19 19 19 20 20 20 20 20 21 21 22 21 20 20 21 21 22 22
12 12 13 13 15 15 14 15 17 17 17 19 19 20 21 21 20 20 20 20 20 20 20 19 18 19 20 20 20 20 19 20 19 19 20 20 20 20 20 20 21 21 20 20 20 21 21 21 21
11 11 12 13 14 15 16 17 19 18 17 18 19 20 22 22 20 20 21 20 20 20 20 20 20 19 19 19 20 20 19 19 19 20 20 20 20 21 21 21 21 20 21 21 21 21 21 21 21
11 11 12 14 15 15 16 18 20 19 19 19 21 21 22 21 20 20 20 20 20 20 21 21 21 20 19 19 19 19 19 19 19 19 19 20 21 22 22 21 21 21 21 21 21 21 21 21 21
12 12 12 14 16 16 17 18 18 17 19 21 21 21 21 20 19 19 20 20 20 20 20 21 20 20 20 20 19 19 18 19 19 20 20 21 21 21 21 22 21 21 21 21 21 22 22 22 21
12 11 11 12 14 16 17 18 17 18 19 20 19 20 20 20 18 18 19 20 20 20 20 21 20 20 20 20 19 19 19 20 20 20 20 21 21 21 22 21 21 21 22 22 22 22 22 22 22
11 11 10 10 12 14 15 15 14 16 17 19 19 19 19 19 18 18 18 19 19 19 19 19 20 19 20 20 20 20 20 20 21 21 21 21 21 21 22 22 21 21 21 22 22 22 22 22 22
11 10 11 11 11 12 12 13 14 15 17 16 18 18 18 18 18 18 18 18 18 19 19 19 19 19 19 19 20 20 20 21 22 21 22 22 22 22 22 22 22 22 23 22 21 21 21 21 21
11 9 9 8 9 10 11 14 14 16 17 16 16 16 17 17 18 18 17 16 17 17 18 18 19 19 19 20 20 20 20 21 22 22 22 23 22 22 22 22 21 22 23 22 20 21 21 21 21
9 8 8 8 8 9 11 13 15 16 17 17 16 15 16 16 17 17 17 17 16 16 17 18 18 18 19 19 20 20 19 20 20 20 20 20 21 22 23 22 21 22 21 21 20 21 21 22 22
9 9 8 8 9 11 11 13 15 17 17 17 15 15 15 16 15 16 16 16 15 15 17 17 17 17 17 18 18 18 19 19 19 20 19 20 21 21 21 21 21 21 21 21 21 21 21 21 21
9 8 9 9 8 9 10 13 15 17 16 16 16 15 14 15 15 14 14 15 15 16 16 16 16 16 16 17 17 17 18 18 19 19 19 20 20 20 20 20 20 20 19 19 19 20 20 21 21
8 7 8 9 9 10 11 13 15 17 16 16 15 14 14 14 12 12 12 12 14 14 14 15 15 15 16 17 17 17 17 17 17 18 19 19 19 20 20 20 19 18 17 18 19 19 20 21 22
6 6 7 10 9 9 10 13 15 17 15 14 14 13 13 12 11 11 9 9 11 13 13 14 15 15 15 16 17 16 16 16 17 18 18 18 19 19 18 17 17 17 18 18 19 21 21 21 22
7 7 8 8 10 10 10 12 15 17 15 14 13 12 11 10 10 10 9 9 10 10 11 13 13 14 14 14 15 16 16 16 17 18 18 17 17 17 16 16 16 16 17 19 20 21 21 22 22
10 10 10 10 11 12 13 13 15 16 16 14 12 11 11 10 10 10 9 10 10 10 12 11 12 12 12 13 14 15 16 17 18 18 17 17 16 15 15 16 16 17 17 18 19 20 21 21 21
11 11 12 12 11 12 14 16 15 14 14 13 12 12 10 10 10 10 10 10 10 11 12 12 12 12 12 12 14 15 16 17 17 16 16 14 14 15 15 14 16 17 18 18 19 20 20 20 20

GEFSSGP_500_meanwind_246.txt.gz
Wind_Speed
9 9 8 8 8 8 8 7 7 7 8 9 10 12 12 13 13 11 10 11 10 9 7 7 7 8 7 8 8 8 8 9 9 10 10 10 10 10 11 11 11 11 11 11 11 10 11 11 11
11 10 10 10 10 9 9 10 10 9 10 11 12 13 13 14 13 13 12 12 11 10 9 8 8 8 8 8 9 10 10 9 9 10 10 10 11 11 11 12 11 11 11 11 11 11 11 11 11
12 11 10 11 11 11 11 12 11 11 11 12 14 15 15 15 15 14 13 12 11 11 9 9 9 9 9 10 10 11 11 11 11 10 11 11 11 11 12 12 12 12 12 12 12 12 12 12 12
12 11 11 11 11 11 13 13 13 13 12 13 14 16 16 16 15 14 13 13 12 11 10 10 10 10 10 10 10 11 12 12 12 11 12 11 11 12 12 13 13 13 13 13 13 13 13 13 13
13 13 12 12 12 12 13 14 15 15 15 15 15 16 17 17 15 14 13 13 12 11 11 11 11 11 11 11 12 12 12 12 12 12 12 13 12 12 13 13 13 14 14 14 14 14 14 14 13
12 13 13 13 13 14 14 14 16 17 17 17 17 17 18 17 17 16 15 14 13 12 12 12 12 13 13 13 13 14 13 13 13 13 13 13 13 13 14 14 14 14 15 15 15 15 15 15 14
13 13 14 14 14 14 14 15 17 19 19 19 19 19 18 18 18 17 16 16 14 13 13 13 13 13 14 14 15 14 14 14 14 14 14 14 13 13 14 14 15 15 15 15 15 15 15 15 15
13 13 14 15 15 15 15 17 18 19 19 20 20 20 19 18 18 17 17 17 15 15 15 14 15 15 14 15 15 15 15 15 15 15 15 14 14 14 15 15 16 16 16 16 16 16 15 15 15
13 14 14 15 15 15 16 17 17 19 19 20 21 21 20 18 17 17 18 18 17 17 16 15 16 16 15 15 15 15 15 15 15 15 15 15 15 15 16 16 16 16 17 17 16 16 16 16 16
13 13 13 14 16 15 17 18 17 19 20 20 21 21 20 18 18 18 18 18 18 18 17 16 16 15 16 16 16 16 15 15 15 15 15 15 16 17 17 17 17 17 17 16 16 16 16 16 17
12 12 12 13 14 14 16 18 19 19 20 20 21 21 19 19 19 19 19 19 19 18 17 17 17 17 16 16 16 16 16 16 15 15 16 16 16 17 17 17 18 17 17 16 16 17 17 17 17
12 11 12 12 12 14 15 17 19 19 20 20 20 20 19 18 19 20 20 19 18 19 19 18 17 17 17 16 16 16 16 16 15 15 17 17 17 17 17 18 18 18 18 17 17 18 18 18 18
11 11 12 11 12 14 15 17 17 18 20 20 19 18 18 17 18 19 19 19 19 19 20 19 18 17 16 16 16 16 17 17 17 17 17 18 18 18 19 18 17 18 18 17 17 18 18 18 19
9 10 10 11 12 14 15 15 16 16 18 19 20 19 18 18 16 17 18 18 19 19 19 18 18 17 17 17 16 16 17 17 17 17 18 19 19 19 18 18 17 17 17 17 18 18 18 19 19
9 10 10 11 12 13 14 13 14 15 17 19 20 19 19 18 16 16 18 18 18 18 18 18 18 17 16 15 16 16 17 17 16 17 18 18 18 18 18 18 18 18 18 18 18 18 19 19 19
10 10 10 10 11 13 14 13 13 15 17 19 20 20 18 17 17 17 18 18 18 19 18 18 17 16 15 15 16 16 17 17 17 16 17 17 18 19 18 18 18 19 18 18 18 19 19 19 20
9 11 10 10 10 12 14 14 14 15 16 17 18 19 18 18 17 17 17 18 18 19 18 16 16 16 16 15 15 16 16 16 16 16 17 18 19 19 19 18 18 19 18 19 19 19 19 20 20
9 11 11 11 11 12 14 14 15 14 16 16 17 18 18 19 18 17 17 18 18 18 17 17 16 17 16 16 16 16 15 15 15 16 17 18 19 19 19 18 19 18 18 19 19 19 20 20 20
11 11 10 11 12 13 13 14 15 14 14 15 16 17 17 18 16 16 16 16 15 16 16 17 17 17 16 16 16 16 17 16 15 15 16 18 19 19 20 19 19 18 18 19 20 20 20 20 20
11 12 12 11 13 13 14 14 15 15 15 16 16 16 17 16 15 16 15 15 16 16 15 16 15 15 16 16 15 16 17 17 17 16 17 18 18 18 18 18 19 20 20 20 19 18 18 19 19
11 13 13 14 14 13 14 14 14 14 16 16 16 16 16 15 15 15 15 15 15 15 16 16 16 16 16 17 16 16 17 17 18 18 18 18 18 18 18 19 19 20 20 19 18 17 18 19 19
13 13 13 14 14 14 14 15 13 13 14 15 16 15 14 13 13 13 14 16 15 15 15 16 16 16 17 17 17 17 18 17 17 18 18 18 18 18 18 19 19 18 17 17 18 18 18 19 19
11 11 12 14 14 13 14 15 13 13 13 14 14 13 12 12 13 13 14 15 15 16 16 16 16 17 17 17 17 17 17 17 17 17 17 17 18 18 19 18 17 17 17 17 18 18 18 17 17
10 11 11 12 12 13 13 13 12 12 13 13 12 12 11 12 13 14 15 15 14 14 16 17 16 17 17 17 16 15 15 16 16 16 16 16 16 17 17 16 16 16 17 18 18 17 16 16 17
10 11 11 11 12 12 12 11 11 12 12 13 13 12 11 12 13 13 13 13 12 12 14 15 15 16 16 16 16 16 15 15 16 15 14 15 15 15 14 14 15 15 15 16 16 16 16 16 17
11 10 10 12 13 13 12 12 11 12 12 12 12 12 11 11 11 10 9 9 9 10 11 13 14 14 14 14 14 14 15 15 15 15 15 15 14 14 14 15 15 15 15 15 15 16 17 17 18
11 10 10 11 13 13 12 12 11 11 12 12 11 10 10 10 9 9 8 7 8 9 10 11 12 13 14 14 14 13 14 15 15 15 15 14 14 14 14 15 15 14 14 14 15 15 17 18 18
11 10 11 12 13 13 13 12 12 11 10 11 11 10 9 9 8 7 7 7 8 8 9 9 10 11 12 13 13 13 13 13 14 14 13 13 13 13 14 14 13 13 13 14 15 16 17 18 20
11 11 11 12 13 14 15 13 12 12 11 11 11 10 10 10 8 7 7 8 8 9 10 10 10 10 11 11 11 12 12 13 13 13 12 12 12 12 12 13 13 13 13 14 15 16 17 18 19
11 11 11 13 14 14 15 14 12 12 12 11 11 10 10 9 8 7 7 8 9 9 10 9 9 10 10 10 10 11 11 12 13 12 12 13 12 12 13 12 12 12 13 15 15 17 17 18 19

GEFSSGP_500_meanwind_252.txt.gz
Wind_Speed
10 11 10 10 11 11 10 9 8 8 8 8 8 8 9 9 9 9 8 7 7 7 8 8 8 7 6 5 5 5 5 6 6 6 7 7 8 8 8 9 9 9 10 10 10 10 10 10 10
11 11 11 12 12 12 11 10 10 9 10 9 9 10 10 10 11 10 10 9 8 8 9 10 9 7 7 6 6 6 7 7 7 8 8 8 9 9 9 9 10 10 10 11 11 11 11 11 10
11 11 12 12 13 12 11 11 11 11 11 10 9 10 11 11 11 12 11 10 10 9 10 10 10 8 8 8 8 8 9 9 9 9 9 9 10 10 10 10 10 10 11 11 11 11 11 11 11
12 12 13 13 13 13 12 13 13 13 12 12 11 11 12 12 12 12 12 12 11 11 10 11 10 9 9 9 9 9 10 10 10 10 10 10 10 10 10 11 11 11 11 12 12 12 12 12 12
14 14 14 13 13 14 15 15 15 15 14 14 14 14 13 13 14 14 13 12 12 12 11 11 11 11 11 11 11 11 11 11 11 11 11 11 11 11 11 11 11 11 12 12 12 12 12 12 13
15 15 14 14 14 15 15 16 16 16 15 15 15 15 14 15 15 15 14 13 13 13 12 11 12 12 12 13 12 12 12 12 12 12 11 11 12 12 12 12 12 12 12 13 13 13 13 13 13
15 15 15 14 15 15 15 16 17 17 17 17 16 16 16 16 16 16 16 15 14 13 14 13 13 13 14 14 14 13 12 12 13 12 12 12 12 12 13 13 13 13 13 13 14 13 14 14 14
14 15 15 15 15 15 16 17 19 18 19 19 19 18 18 18 17 17 16 16 16 16 16 15 14 15 15 15 15 14 13 13 13 13 13 12 12 13 13 14 14 14 14 14 14 14 15 15 15
13 15 15 15 14 15 17 18 19 19 19 19 19 18 19 18 18 17 17 16 16 16 15 15 16 16 15 15 14 14 13 13 13 13 13 13 13 13 14 15 15 15 15 15 15 15 15 16 15
13 14 14 14 15 16 18 19 19 20 20 19 19 19 19 18 17 17 17 16 16 16 16 15 16 16 16 15 15 15 14 13 14 14 14 14 14 14 15 15 16 16 16 16 16 16 16 16 15
12 13 14 15 17 18 19 20 20 20 20 20 19 19 19 19 19 18 18 18 18 17 16 16 15 15 16 16 16 15 14 14 15 15 15 15 15 15 15 16 17 17 16 16 16 16 16 16 16
12 13 14 15 17 18 19 20 20 20 20 20 20 20 20 19 19 19 18 19 18 18 18 17 16 16 17 17 17 16 16 15 16 16 16 16 15 16 16 16 17 17 17 17 17 17 17 17 17
11 12 13 14 16 17 18 19 20 20 19 20 20 21 20 20 20 19 19 18 18 18 17 17 17 17 17 17 16 16 16 16 17 17 17 17 17 17 17 17 17 17 17 18 18 18 18 18 18
11 12 13 14 15 17 18 18 19 19 19 20 20 20 21 20 20 19 18 19 19 18 18 17 16 17 16 16 17 17 17 17 17 17 16 17 17 17 18 18 17 17 18 18 18 18 18 18 18
11 12 12 14 16 16 17 17 18 19 19 20 20 19 20 20 19 18 17 18 19 18 18 18 17 17 17 17 16 16 17 17 17 17 17 18 17 18 18 18 19 19 19 19 18 19 19 19 19
11 12 13 13 15 16 17 16 17 18 18 19 20 19 19 20 19 19 18 18 17 18 17 17 17 17 17 17 16 17 17 17 17 16 17 18 18 18 19 19 20 20 20 20 19 19 20 20 21
12 13 14 14 15 15 16 15 16 17 18 19 19 19 19 19 20 20 19 18 16 16 16 15 15 15 16 16 17 17 18 17 17 17 19 18 18 19 19 20 21 21 20 20 19 20 21 21 21
13 14 15 15 15 15 15 15 17 17 17 18 18 19 20 19 19 19 18 17 16 15 15 15 14 15 15 15 16 17 16 16 17 18 19 18 18 19 20 21 20 20 20 20 20 20 21 21 21
14 15 16 15 16 16 15 15 16 16 16 17 17 17 18 19 18 17 17 17 17 14 14 14 15 15 15 15 15 15 15 15 16 17 18 18 19 19 20 20 20 20 20 20 21 20 20 20 20
15 16 16 15 16 16 16 15 16 16 15 16 16 16 17 17 18 18 18 17 16 15 13 13 13 13 13 13 14 15 15 15 15 16 17 17 18 19 20 20 20 19 20 20 20 20 19 19 19
15 16 15 15 15 16 16 15 15 15 15 16 16 16 15 16 17 17 18 17 17 16 15 14 13 13 13 14 15 16 17 16 16 17 17 18 18 18 18 19 20 19 20 20 20 20 20 19 19
14 15 15 15 15 16 16 15 13 14 15 16 15 15 15 15 13 14 14 16 16 16 16 15 14 13 14 14 15 16 17 17 17 17 16 17 17 17 17 18 19 20 20 20 19 19 19 19 19
15 16 16 15 15 15 15 15 13 13 14 14 15 14 13 12 12 13 14 14 15 15 14 14 14 14 14 15 16 17 18 17 17 16 16 17 17 17 17 17 17 19 19 20 19 19 19 19 20
17 16 16 15 14 14 14 15 13 13 14 14 14 14 13 13 12 13 13 12 13 13 13 14 14 13 13 14 15 16 17 16 16 16 16 16 17 18 17 17 17 18 19 19 19 19 19 20 20
16 17 17 16 15 14 13 14 13 13 13 13 13 13 13 13 13 13 12 11 10 11 12 13 13 13 13 14 14 15 16 16 16 16 16 17 17 17 17 17 17 18 19 18 18 19 18 18 19
15 16 17 17 16 14 13 15 14 13 13 14 13 13 12 11 11 11 11 11 10 10 11 12 12 12 13 13 13 13 14 15 15 16 16 17 17 17 17 17 16 16 17 18 18 18 18 18 19
16 16 16 17 16 15 14 14 14 14 14 14 13 13 12 11 10 9 9 9 9 10 11 11 11 11 12 12 12 13 13 14 15 16 17 17 16 16 16 15 14 15 15 17 18 18 18 18 17
17 17 17 16 15 15 14 15 14 14 14 14 13 13 12 11 10 8 8 9 9 10 11 11 11 12 12 13 13 13 14 15 15 16 16 16 16 15 15 14 14 14 15 16 17 17 17 17 18
17 18 17 17 16 16 16 15 14 14 14 14 13 13 12 11 9 8 9 9 10 11 11 11 11 11 12 13 13 14 14 15 16 15 15 14 14 13 13 14 15 15 16 17 17 17 17 18 18
17 17 17 17 17 17 17 15 15 15 14 13 13 13 12 11 10 10 10 11 11 11 11 11 11 11 12 12 11 12 13 14 15 15 15 14 14 14 14 15 15 16 16 17 17 17 17 17 17

GEFSSGP_500_meanwind_258.txt.gz
Wind_Speed
8 8 8 7 7 7 9 10 9 8 7 7 7 6 6 6 6 6 6 6 6 6 5 5 6 6 6 6 6 7 7 6 6 5 4 4 3 3 3 3 3 4 4 4 4 4 4 4 5
8 8 8 8 6 7 10 10 10 9 8 8 8 8 8 8 7 8 8 7 7 6 6 6 6 7 7 7 7 7 8 7 7 6 5 5 5 5 5 4 4 4 5 5 5 5 5 5 6
9 8 8 8 8 9 12 11 10 9 9 9 9 9 9 8 9 9 9 9 8 8 8 8 8 7 7 8 8 8 8 8 8 7 7 7 6 6 7 6 6 6 6 6 6 6 6 6 6
9 9 8 8 9 11 12 12 11 10 10 10 10 10 10 9 9 10 10 10 9 9 10 9 9 9 9 9 9 9 9 9 9 9 8 8 8 8 8 8 7 7 7 8 7 7 7 7 7
9 9 9 10 11 12 12 12 11 11 11 12 12 12 11 10 10 10 10 11 11 11 11 11 11 11 11 10 10 10 10 11 11 10 10 10 10 10 9 9 8 8 8 8 9 9 9 9 8
10 10 10 11 13 13 13 12 11 12 13 13 13 13 12 12 12 12 12 12 13 13 13 12 13 12 11 11 12 12 11 11 11 12 11 10 10 10 10 10 9 9 9 9 9 10 10 10 10
10 11 12 12 14 14 13 12 12 13 14 14 14 14 14 15 15 15 14 14 14 14 14 13 13 13 12 12 12 12 12 12 12 12 12 11 11 11 11 11 11 10 10 10 10 10 10 10 10
11 11 12 13 14 14 13 13 13 14 15 15 15 15 16 16 16 17 16 16 15 15 15 13 13 14 14 13 13 13 13 13 13 13 13 13 12 11 11 11 11 11 11 11 11 11 11 10 10
11 11 12 13 13 14 14 14 15 15 15 15 16 16 16 16 16 16 16 16 16 16 15 15 14 15 14 13 13 14 14 14 14 13 13 13 13 12 12 12 12 11 12 12 12 12 12 11 11
11 12 13 13 13 13 14 14 15 15 15 16 16 17 17 17 17 17 16 16 16 16 16 16 16 16 16 15 15 15 15 15 15 14 14 14 14 13 13 12 13 12 12 12 12 13 13 13 13
12 12 13 13 13 14 14 15 15 16 16 17 17 18 19 18 18 17 18 17 18 17 17 17 18 18 17 16 16 16 16 16 16 15 15 15 14 14 14 14 13 14 14 13 13 13 13 14 14
12 13 14 14 14 14 15 16 16 16 17 18 19 19 19 19 18 19 19 18 18 18 18 18 19 19 18 18 18 17 17 17 16 16 16 16 16 16 16 15 15 15 15 15 13 13 13 15 15
12 13 13 14 14 14 15 16 16 17 18 19 20 20 20 20 20 19 19 18 18 19 19 19 19 19 19 18 19 18 18 18 17 17 17 17 16 16 16 16 16 16 15 14 14 14 14 15 16
12 12 12 13 14 14 15 16 17 18 19 20 20 21 21 21 21 20 19 19 18 19 19 20 19 18 18 18 19 19 18 18 18 17 17 17 17 17 17 17 16 17 16 16 16 15 15 16 17
11 11 12 13 13 14 15 15 17 18 19 20 21 21 22 22 22 21 20 20 19 19 20 20 19 18 18 18 18 18 18 18 18 18 18 18 18 18 17 18 18 17 17 17 16 16 17 17 17
10 11 13 14 14 15 16 16 18 19 20 20 21 21 21 22 22 22 21 20 20 19 19 19 18 18 18 18 18 19 19 19 18 18 18 18 18 19 19 18 19 18 18 17 18 18 18 18 18
11 11 13 15 15 15 16 17 18 19 20 20 20 20 21 21 21 21 20 19 19 19 18 17 17 17 18 19 18 19 20 19 18 18 18 18 18 19 19 19 18 19 18 18 19 19 19 18 19
12 12 14 15 16 16 16 17 18 18 18 18 19 20 20 21 20 19 19 18 18 18 17 17 17 17 18 17 17 18 19 18 17 17 18 18 19 20 20 20 20 20 20 20 20 20 20 20 20
13 13 13 15 16 16 16 17 17 17 17 17 17 18 18 19 18 18 18 18 18 18 18 17 18 18 17 17 16 17 17 17 17 18 18 18 19 19 20 21 21 21 21 20 20 20 21 21 20
13 13 13 15 16 16 17 16 17 17 17 16 16 16 16 17 17 17 18 18 17 18 18 18 18 18 17 16 16 16 17 17 17 18 18 19 20 20 20 21 22 21 21 21 20 21 21 21 20
13 14 14 15 16 16 16 16 17 16 16 16 15 15 15 16 15 16 17 17 18 18 18 18 17 17 16 16 16 15 16 17 17 18 19 19 20 21 22 22 21 21 21 21 21 21 22 21 21
14 15 15 15 16 16 16 17 17 16 15 15 15 14 14 14 14 14 14 15 16 16 16 15 15 16 16 16 15 15 15 15 16 18 19 19 19 19 21 22 21 21 21 22 21 21 21 21 21
15 15 15 16 16 16 16 17 18 17 16 15 14 14 14 13 14 13 12 13 14 14 14 15 15 14 15 14 14 14 14 15 15 16 17 18 18 18 20 21 21 21 21 20 20 20 20 20 20
16 16 16 16 16 17 17 18 17 17 16 15 15 13 12 12 12 11 12 13 13 14 15 15 14 14 14 14 13 13 14 14 15 15 15 16 16 17 18 19 20 20 20 20 20 20 20 19 19
16 16 15 15 15 17 17 17 16 17 16 15 14 13 12 11 11 11 11 13 13 13 13 14 14 14 14 14 14 14 15 15 16 16 15 16 16 17 17 18 19 19 19 20 20 20 20 20 19
15 15 15 15 15 16 17 16 15 15 15 14 13 12 12 11 11 11 11 12 12 12 12 14 14 14 14 14 14 15 15 16 16 16 16 17 17 18 18 18 18 18 18 19 20 19 19 19 19
15 15 15 16 16 16 16 16 15 15 14 14 13 13 12 11 11 11 10 11 12 12 11 13 13 14 14 15 15 16 16 16 16 17 17 17 18 18 18 19 18 18 19 19 19 19 20 20 19
15 15 16 15 16 15 15 15 15 15 14 13 12 12 12 11 11 11 10 10 12 12 12 13 13 13 14 15 16 15 16 16 16 17 17 18 18 18 18 18 20 19 19 19 20 20 20 20 20
16 15 16 16 16 16 16 15 15 15 14 13 12 12 12 11 11 11 11 12 12 13 13 13 14 13 14 14 14 15 15 15 16 17 17 18 18 19 19 19 19 19 20 20 20 20 21 20 20
16 16 16 16 17 17 17 16 16 15 14 13 12 12 12 11 11 11 11 11 12 13 14 14 14 14 14 14 14 15 14 14 15 15 16 17 18 19 19 19 19 20 21 21 20 19 19 19 19

GEFSSGP_500_meanwind_264.txt.gz
Wind_Speed
4 4 3 2 0 1 2 4 8 11 12 11 9 9 10 10 11 11 11 10 10 9 9 9 9 9 10 10 10 10 10 10 10 9 9 9 8 8 7 7 7 7 6 5 5 5 5 4 4
4 5 4 3 0 3 4 7 10 13 13 12 10 9 10 11 12 12 11 12 11 10 10 10 10 10 10 11 11 11 11 11 11 10 10 10 9 9 8 8 8 8 8 7 6 6 6 5 5
4 4 3 2 2 3 7 10 13 13 14 12 11 11 11 12 12 13 12 12 11 10 11 10 11 11 11 12 12 12 12 12 12 11 11 12 11 10 10 9 10 10 9 8 8 7 7 6 6
5 4 3 2 3 6 10 12 14 13 13 13 12 13 12 13 14 14 13 13 12 11 11 11 12 12 12 12 13 13 13 13 12 12 12 12 12 12 11 10 10 10 10 10 9 9 8 8 7
5 4 4 4 5 8 10 13 15 13 14 13 13 14 14 14 14 15 15 15 14 13 13 13 13 13 13 13 13 14 14 14 13 13 13 13 12 12 12 12 12 11 11 10 10 10 10 9 9
6 5 4 7 7 10 13 15 15 14 15 15 14 15 15 16 14 14 15 16 16 14 13 14 14 14 15 14 14 14 15 15 14 14 13 14 13 13 13 13 12 12 11 11 11 10 11 11 10
7 7 7 7 8 12 17 18 17 16 16 15 16 16 16 16 15 15 16 16 17 15 14 15 15 15 16 15 15 15 15 15 15 15 15 14 14 14 14 13 13 12 12 12 11 11 11 11 11
8 8 8 7 10 13 18 19 17 17 17 16 17 17 17 17 16 16 17 17 18 17 16 16 16 16 17 16 16 16 16 16 17 16 16 15 15 15 14 14 13 13 13 13 12 12 12 12 12
7 9 8 9 12 14 18 18 18 17 17 17 17 17 17 17 17 17 18 18 18 18 18 18 18 17 17 17 17 17 18 17 17 17 17 16 15 15 14 14 14 13 13 13 13 12 12 12 12
8 10 10 12 13 15 17 18 18 17 17 18 17 18 18 17 18 19 18 19 19 20 20 19 19 19 19 19 18 18 18 18 18 17 17 17 16 16 15 15 15 14 13 13 12 12 12 13 13
10 11 11 12 13 14 15 17 17 16 17 18 19 19 20 19 20 20 19 20 20 20 21 20 19 19 19 18 19 19 18 18 18 18 17 17 17 16 16 16 15 15 14 13 13 12 13 13 14
11 12 12 12 14 13 14 16 17 17 18 18 20 21 21 21 21 22 21 20 21 21 21 21 20 19 19 18 19 18 18 18 19 19 18 18 17 17 16 16 15 15 15 14 13 13 13 13 13
11 12 12 13 14 15 16 15 15 17 19 19 20 21 21 22 22 22 22 21 21 21 22 22 21 20 20 20 19 18 19 20 20 18 18 18 18 17 17 16 15 15 15 15 15 14 14 14 14
11 11 12 12 14 16 16 16 17 16 18 18 20 21 22 22 23 23 22 22 22 22 21 21 21 22 21 21 20 20 19 19 19 19 19 18 18 18 18 17 17 16 16 15 15 16 15 15 15
11 11 12 12 14 16 16 16 17 18 19 19 20 21 23 23 23 23 23 23 22 22 22 21 21 22 21 21 21 20 20 19 19 19 18 18 18 18 18 17 17 17 16 16 16 17 18 17 17
11 12 12 14 15 17 18 17 18 18 19 20 20 21 23 24 23 23 23 22 22 22 22 22 21 21 21 21 21 20 20 19 19 19 19 18 19 18 17 17 17 17 17 17 17 18 18 18 18
11 13 14 15 16 17 17 17 19 19 18 19 21 22 24 24 23 22 22 22 22 21 22 21 20 21 21 21 21 20 20 19 19 19 19 19 19 18 18 18 17 17 18 17 19 19 18 18 18
12 13 13 14 14 17 18 17 19 20 20 20 21 22 24 23 23 22 22 22 22 21 21 21 21 20 20 20 19 18 19 19 18 18 18 19 18 18 19 18 18 18 19 19 20 19 19 19 19
13 12 12 14 14 16 16 17 18 19 18 20 21 22 22 22 21 21 21 21 20 19 19 20 19 19 18 18 17 17 18 18 18 17 18 18 18 18 19 19 18 19 19 19 19 20 19 19 19
12 13 14 15 15 17 18 18 17 19 19 20 21 21 22 22 21 21 21 20 19 18 18 18 18 18 17 17 16 17 18 18 17 17 18 17 18 18 19 19 19 19 20 20 20 20 20 20 20
14 15 16 17 14 16 18 17 18 18 20 20 20 21 21 21 21 20 19 18 17 17 16 16 17 16 16 16 16 17 17 17 16 17 18 17 17 18 18 19 19 20 21 20 19 20 20 20 21
16 15 16 16 15 16 17 18 18 18 20 21 20 20 20 20 19 18 15 15 16 16 16 16 15 15 15 16 16 16 16 16 16 17 17 17 17 18 18 19 19 20 20 20 20 20 21 21 21
16 15 15 16 16 17 17 19 19 18 21 21 19 19 20 19 19 18 17 16 16 16 15 15 15 15 16 16 16 16 16 16 16 17 17 17 18 18 18 19 19 20 19 20 20 20 21 21 21
15 14 14 14 15 18 16 18 19 18 20 21 20 20 21 20 18 17 17 16 16 16 15 15 15 16 16 16 16 16 16 15 16 17 16 16 17 17 18 18 18 18 19 19 19 20 21 21 22
15 14 15 16 16 16 15 18 19 19 21 21 21 20 20 19 18 17 17 17 15 15 15 15 15 15 15 16 16 16 16 16 16 17 17 17 17 17 17 17 17 18 18 19 19 20 20 20 22
16 15 16 18 16 17 17 19 20 20 21 22 20 19 19 17 17 17 16 15 15 15 15 15 15 16 16 16 16 16 17 17 17 17 17 17 16 17 18 19 19 19 19 20 20 21 21 21 21
17 16 17 18 18 18 17 18 21 19 21 22 21 20 19 17 16 16 15 14 14 15 14 14 15 15 16 16 17 17 16 17 17 17 17 17 17 18 18 19 19 19 20 20 21 21 21 21 22
16 15 16 17 17 17 17 17 20 21 20 22 20 20 18 17 15 16 16 14 14 15 15 15 15 16 16 17 16 15 16 17 17 18 17 17 18 19 20 19 19 19 20 21 21 21 21 22 22
16 16 17 17 18 18 18 18 21 22 23 21 20 20 20 19 17 17 17 16 15 15 16 16 16 16 16 16 16 15 15 16 17 17 17 18 18 20 21 20 20 21 22 22 22 21 22 22 23
17 17 18 19 19 19 20 20 21 23 23 22 21 20 18 18 18 17 18 17 16 15 15 16 15 16 16 15 15 15 15 16 16 17 18 19 20 21 21 21 21 22 22 22 21 21 22 22 23

GEFSSGP_500_meanwind_270.txt.gz
Wind_Speed
6 6 6 5 5 4 3 1 2 4 5 7 10 10 12 11 10 10 8 8 8 7 7 7 7 8 8 9 9 8 9 9 10 10 10 9 9 9 8 8 8 8 8 8 8 7 6 6 5
7 7 6 5 6 6 3 2 4 6 6 7 9 11 11 12 11 10 9 9 9 8 8 8 8 8 9 9 9 10 10 10 10 11 11 10 10 9 9 9 9 9 9 8 8 8 7 7 6
8 7 6 5 6 6 5 5 6 7 7 8 10 11 11 12 10 10 10 9 8 9 9 9 9 9 10 11 11 11 11 11 11 11 11 11 10 10 10 10 10 9 9 9 8 8 8 8 7
8 8 7 6 7 7 7 8 9 8 8 11 12 12 13 12 11 11 11 10 10 10 11 11 11 11 11 12 12 12 12 12 12 12 12 11 11 10 10 10 10 10 10 9 9 9 9 9 8
9 8 8 7 7 6 6 8 10 10 10 12 14 14 14 14 12 11 12 12 11 11 12 12 12 12 12 13 13 13 12 13 13 13 12 12 12 11 11 11 11 10 11 10 10 10 10 10 9
9 9 9 8 7 7 8 8 10 11 13 13 15 15 14 13 12 13 12 12 12 12 11 12 13 13 14 14 14 14 14 13 13 13 13 13 12 12 11 11 11 11 11 11 11 10 10 10 10
10 10 9 8 9 9 8 9 11 13 14 15 16 16 16 14 13 13 13 14 13 12 12 13 14 13 15 15 15 15 15 14 14 14 14 13 13 13 12 12 12 12 11 11 12 11 10 10 10
12 11 10 9 10 10 10 11 13 14 15 15 16 17 18 17 15 15 15 15 13 13 14 14 14 14 15 16 16 15 15 15 15 14 14 14 14 14 13 13 13 12 12 12 11 12 11 11 10
13 12 11 10 10 10 12 13 13 13 14 15 16 17 18 17 17 17 16 16 15 15 15 15 15 15 15 15 16 16 15 16 15 15 15 15 14 14 14 14 13 13 13 12 12 12 12 12 11
13 13 11 11 11 11 12 13 13 13 13 15 16 17 18 17 16 16 17 17 17 16 16 16 16 16 15 15 16 16 16 16 16 16 15 16 15 14 14 15 14 14 14 13 13 13 12 12 11
15 13 12 11 12 13 14 14 14 14 13 14 15 16 18 18 17 17 18 18 18 17 16 16 16 16 16 16 16 17 17 17 16 16 16 15 15 15 15 15 14 14 14 14 14 13 12 12 12
15 14 13 12 13 14 14 14 14 14 14 14 15 16 17 17 17 17 17 18 18 18 17 16 16 16 17 17 17 17 18 18 16 16 17 16 15 15 15 16 15 15 15 15 14 13 13 13 12
16 14 13 13 14 14 14 13 14 14 14 15 16 16 17 16 16 18 18 18 18 19 18 18 17 17 17 17 17 17 17 17 16 16 16 16 16 15 15 16 16 15 15 15 14 14 13 14 13
14 14 14 13 13 14 13 13 13 14 15 15 16 17 16 16 17 18 18 18 18 18 19 18 17 17 17 16 16 17 18 18 17 15 14 14 15 15 15 16 15 15 15 14 14 14 15 15 15
13 13 13 13 13 13 14 14 14 14 15 16 17 18 17 18 19 19 19 18 18 18 18 18 17 16 15 15 16 17 16 16 16 14 14 14 14 15 15 15 15 16 15 15 14 15 14 15 16
14 13 13 12 14 14 15 16 15 15 15 16 18 18 18 18 19 19 19 19 19 19 18 17 16 16 15 15 15 17 16 15 15 15 14 14 14 14 14 14 15 15 16 16 15 15 15 16 16
13 13 13 13 14 15 16 16 15 16 17 17 17 17 18 19 20 20 19 19 19 18 17 16 17 16 16 15 15 16 16 15 15 15 15 14 14 15 15 14 15 16 16 16 17 16 17 17 17
12 12 13 13 14 15 16 17 17 17 17 17 17 17 17 18 19 19 19 19 19 17 16 16 17 16 16 16 15 14 14 14 14 14 14 14 14 14 15 14 15 15 15 15 16 17 17 17 17
12 13 12 12 13 16 17 18 17 16 16 16 16 17 16 18 19 19 18 19 18 18 17 16 16 16 16 16 15 14 13 13 13 13 13 13 14 14 15 15 15 15 15 15 15 16 17 18 18
12 14 14 14 14 17 18 18 16 15 16 16 17 16 16 17 18 18 18 18 18 17 17 17 17 16 16 15 15 14 14 13 13 13 13 14 14 14 14 15 15 14 15 16 16 16 17 18 19
15 16 15 15 14 15 17 17 16 15 15 17 17 16 16 16 17 18 17 17 17 17 17 16 16 16 15 14 14 14 14 14 13 13 14 15 15 15 15 15 16 15 15 16 16 16 17 18 18
15 15 16 16 16 15 16 18 17 16 15 16 16 16 16 15 17 17 17 16 15 15 15 16 16 15 15 14 15 14 14 13 14 14 15 15 16 17 17 16 16 16 15 15 16 17 17 18 18
16 15 17 17 18 18 17 19 17 16 16 16 16 16 16 16 16 16 16 15 14 13 14 15 16 16 15 14 15 15 15 14 14 15 15 16 16 16 17 17 17 16 16 16 16 17 17 18 19
16 16 17 17 17 18 17 19 18 17 16 17 17 16 16 16 16 15 15 14 14 13 13 15 15 15 15 14 14 15 15 14 15 15 16 16 16 16 16 16 16 17 17 17 17 17 18 18 18
17 17 18 19 18 18 17 19 19 18 18 18 17 16 16 16 16 16 15 15 15 14 14 15 15 15 14 14 14 14 15 15 15 16 16 17 17 16 17 17 16 16 17 17 17 17 17 17 18
18 18 18 19 19 19 18 19 17 17 17 17 17 16 17 17 16 15 15 15 15 14 15 15 16 15 14 14 14 14 15 15 16 16 16 17 17 17 17 17 17 17 17 17 17 17 17 17 18
17 18 18 19 19 20 19 18 17 17 17 17 17 16 16 16 16 16 16 16 14 14 15 16 16 15 15 15 15 15 15 15 15 15 15 16 17 16 16 16 16 17 18 18 18 18 18 18 20
19 19 20 21 21 21 20 19 18 18 18 18 18 17 16 17 18 18 17 16 15 15 15 15 15 14 14 14 14 15 15 15 15 15 15 15 16 16 16 16 17 17 17 18 18 18 19 20 21
19 20 20 21 22 22 23 22 19 19 18 18 18 18 18 18 18 18 17 17 17 16 14 14 14 14 14 14 15 15 15 14 15 16 16 17 17 17 17 17 18 17 17 17 17 17 18 20 20
20 20 20 21 22 22 23 23 20 20 20 19 19 19 19 18 18 18 18 18 17 16 15 15 14 14 14 14 15 15 15 15 15 16 17 17 17 18 18 18 18 17 17 18 18 19 19 19 19